[[{"header":{"parameterUnit":"m.s-1","parameterCategory":1,"la1":31.0,"la2":29.5877,"lo1":-88.7671,"lo2":-86.6584,"dy":0.0162,"dx":0.0185,"nx":115,"ny":88,"refTime":"2024-03-23T06:00:00:Z","depth":0,"parameterNumber":2,"parameterNumberName":"U-component_of_WINDS"},"data":[0.0,0.0,0.0,0.0,0.0,0.0,0.0,0.0,0.0,0.0,0.0,0.0,0.0,0.0,0.0,0.0,0.0,0.0,0.0,0.0,0.0,0.0,0.0,0.0,0.0,0.0,0.0,0.0,0.0,0.0,0.0,0.0,0.0,0.0,0.0,0.0,0.0,0.0,0.0,0.0,0.0,0.0,0.0,0.0,0.0,0.0,0.0,0.0,0.0,0.0,0.0,0.0,0.0,0.0,0.0,0.0,0.0,0.0,0.0,0.0,0.0,0.0,0.0,0.0,0.0,0.0,0.0,0.0,0.0,0.0,0.0,0.0,0.0,0.0,0.0,0.0,0.0,0.0,0.0,0.0,0.0,0.0,0.0,0.0,0.0,0.0,0.0,0.0,0.0,0.0,0.0,0.0,0.0,0.0,0.0,0.0,0.0,0.0,0.0,0.0,0.0,0.0,0.0,0.0,0.0,0.0,0.0,0.0,0.0,0.0,0.0,0.0,0.0,0.0,0.0,0.0,0.0,0.0,0.0,0.0,0.0,0.0,0.0,0.0,0.0,0.0,0.0,0.0,0.0,0.0,0.0,0.0,0.0,0.0,0.0,0.0,0.0,0.0,0.0,0.0,0.0,0.0,0.0,0.0,0.0,0.0,0.0,0.0,0.0,0.0,0.0,0.0,0.0,0.0,0.0,0.0,0.0,0.0,0.0,0.0,0.0,0.0,0.0,0.0,0.0,0.0,0.0,0.0,0.0,0.0,0.0,0.0,0.0,0.0,0.0,0.0,0.0,0.0,0.0,0.0,0.0,0.0,0.0,0.0,0.0,0.0,0.0,0.0,0.0,0.0,0.0,0.0,0.0,0.0,0.0,0.0,0.0,0.0,0.0,0.0,0.0,0.0,0.0,0.0,0.0,0.0,0.0,0.0,0.0,0.0,0.0,0.0,0.0,0.0,0.0,0.0,0.0,0.0,0.0,0.0,0.0,0.0,0.0,0.0,0.0,0.0,0.0,0.0,0.0,0.0,0.0,0.0,0.0,0.0,0.0,0.0,0.0,0.0,0.0,0.0,0.0,0.0,0.0,0.0,0.0,0.0,0.0,0.0,0.0,0.0,0.0,0.0,0.0,0.0,0.0,0.0,0.0,0.0,0.0,0.0,0.0,0.0,0.0,0.0,0.0,0.0,0.0,0.0,0.0,0.0,0.0,0.0,0.0,0.0,0.0,0.0,0.0,0.0,0.0,0.0,0.0,0.0,0.0,0.0,0.0,0.0,0.0,0.0,0.0,0.0,0.0,0.0,0.0,0.0,0.0,0.0,0.0,0.0,0.0,0.0,0.0,0.0,0.0,0.0,0.0,0.0,0.0,0.0,0.0,0.0,0.0,0.0,0.0,0.0,0.0,0.0,0.0,0.0,0.0,0.0,0.0,0.0,0.0,0.0,0.0,0.0,0.0,0.0,0.0,0.0,0.0,0.0,0.0,0.0,0.0,0.0,0.0,0.0,0.0,0.0,0.0,0.0,0.0,0.0,0.0,0.0,0.0,0.0,0.0,0.0,0.0,0.0,0.0,0.0,0.0,0.0,0.0,0.0,0.0,0.0,0.0,0.0,0.0,0.0,0.0,0.0,0.0,0.0,0.0,0.0,0.0,0.0,0.0,0.0,0.0,0.0,0.0,0.0,0.0,0.0,0.0,0.0,0.0,0.0,0.0,0.0,0.0,0.0,0.0,0.0,0.0,0.0,0.0,0.0,0.0,0.0,0.0,0.0,0.0,0.0,0.0,0.0,0.0,0.0,0.0,0.0,0.0,0.0,0.0,0.0,0.0,0.0,0.0,0.0,0.0,0.0,0.0,0.0,0.0,0.0,0.0,0.0,0.0,0.0,0.0,0.0,0.0,0.0,0.0,0.0,0.0,0.0,0.0,0.0,0.0,0.0,0.0,0.0,0.0,0.0,0.0,0.0,0.0,0.0,0.0,0.0,0.0,0.0,0.0,0.0,0.0,0.0,0.0,0.0,0.0,0.0,0.0,0.0,0.0,0.0,0.0,0.0,0.0,0.0,0.0,0.0,0.0,0.0,0.0,0.0,0.0,0.0,0.0,0.0,0.0,0.0,0.0,0.0,0.0,0.0,0.0,0.0,0.0,0.0,0.0,0.0,0.0,0.0,0.0,0.0,0.0,0.0,0.0,0.0,0.0,0.0,0.0,0.0,0.0,0.0,0.0,0.0,0.0,0.0,0.0,0.0,0.0,0.0,0.0,0.0,0.0,0.0,0.0,0.0,0.0,0.0,0.0,0.0,0.0,0.0,0.0,0.0,0.0,0.0,0.0,0.0,0.0,0.0,0.0,0.0,0.0,0.0,0.0,0.0,0.0,0.0,0.0,0.0,0.0,0.0,0.0,0.0,0.0,0.0,0.0,0.0,0.0,0.0,0.0,0.0,0.0,0.0,0.0,0.0,0.0,0.0,0.0,0.0,0.0,0.0,0.0,0.0,0.0,0.0,0.0,0.0,0.0,0.0,0.0,0.0,0.0,0.0,0.0,0.0,0.0,0.0,0.0,0.0,0.0,0.0,0.0,0.0,0.0,0.0,0.0,0.0,0.0,0.0,0.0,0.0,0.0,0.0,0.0,0.0,0.0,0.0,0.0,0.0,0.0,0.0,0.0,0.0,0.0,0.0,0.0,0.0,0.0,0.0,0.0,0.0,0.0,0.0,0.0,0.0,0.0,0.0,0.0,0.0,0.0,0.0,0.0,0.0,0.0,0.0,0.0,0.0,0.0,0.0,0.0,0.0,0.0,0.0,0.0,0.0,0.0,0.0,0.0,0.0,0.0,0.0,0.0,0.0,0.0,0.0,0.0,0.0,0.0,0.0,0.0,0.0,0.0,0.0,0.0,0.0,0.0,0.0,0.0,0.0,0.0,0.0,0.0,0.0,0.0,0.0,0.0,0.0,0.0,0.0,0.0,0.0,0.0,0.0,0.0,0.0,0.0,0.0,0.0,0.0,0.0,0.0,0.0,0.0,0.0,0.0,0.0,0.0,0.0,0.0,0.0,0.0,0.0,0.0,0.0,0.0,0.0,0.0,0.0,0.0,0.0,0.0,0.0,0.0,0.0,0.0,0.0,0.0,0.0,0.0,0.0,0.0,0.0,0.0,0.0,0.0,0.0,0.0,0.0,0.0,0.0,0.0,0.0,0.0,0.0,0.0,0.0,0.0,0.0,0.0,0.0,0.0,0.0,0.0,0.0,0.0,0.0,0.0,0.0,0.0,0.0,0.0,0.0,0.0,0.0,0.0,0.0,0.0,0.0,0.0,0.0,0.0,0.0,0.0,0.0,0.0,0.0,0.0,0.0,0.0,0.0,0.0,0.0,0.0,0.0,0.0,0.0,0.0,0.0,0.0,0.0,0.0,0.0,0.0,0.0,0.0,0.0,0.0,0.0,0.0,0.0,0.0,0.0,0.0,0.0,0.0,0.0,0.0,0.0,0.0,0.0,0.0,0.0,0.0,0.0,0.0,0.0,0.0,0.0,0.0,0.0,0.0,0.0,0.0,0.0,0.0,0.0,0.0,0.0,0.0,0.0,0.0,0.0,0.0,0.0,0.0,0.0,0.0,0.0,0.0,0.0,0.0,0.0,0.0,0.0,0.0,0.0,0.0,0.0,0.0,0.0,0.0,0.0,0.0,0.0,0.0,0.0,0.0,0.0,0.0,0.0,0.0,0.0,0.0,0.0,0.0,0.0,0.0,0.0,0.0,0.0,0.0,0.0,0.0,0.0,0.0,0.0,0.0,0.0,0.0,0.0,0.0,0.0,0.0,0.0,0.0,0.0,0.0,0.0,0.0,0.0,0.0,0.0,0.0,0.0,0.0,0.0,0.0,0.0,0.0,0.0,0.0,0.0,0.0,0.0,0.0,0.0,0.0,0.0,0.0,0.0,0.0,0.0,0.0,0.0,0.0,0.0,0.0,0.0,0.0,0.0,0.0,0.0,0.0,0.0,0.0,0.0,0.0,0.0,0.0,0.0,0.0,0.0,0.0,0.0,0.0,0.0,0.0,0.0,0.0,0.0,0.0,0.0,0.0,0.0,0.0,0.0,0.0,0.0,0.0,0.0,0.0,0.0,0.0,0.0,0.0,0.0,0.0,0.0,0.0,0.0,0.0,0.0,0.0,0.0,0.0,0.0,0.0,0.0,0.0,0.0,0.0,0.0,0.0,0.0,0.0,0.0,0.0,0.0,0.0,0.0,0.0,0.0,0.0,0.0,0.0,0.0,0.0,4.0489,0.0,0.0,0.0,0.0,0.0,0.0,0.0,0.0,0.0,0.0,0.0,0.0,0.0,0.0,0.0,0.0,0.0,0.0,0.0,0.0,0.0,0.0,0.0,0.0,0.0,0.0,0.0,0.0,0.0,0.0,0.0,0.0,0.0,0.0,0.0,0.0,0.0,0.0,0.0,0.0,0.0,0.0,0.0,0.0,0.0,0.0,0.0,0.0,0.0,0.0,0.0,0.0,0.0,0.0,0.0,0.0,0.0,0.0,0.0,0.0,0.0,0.0,0.0,0.0,0.0,0.0,0.0,0.0,0.0,0.0,0.0,0.0,0.0,0.0,0.0,0.0,0.0,0.0,0.0,0.0,0.0,0.0,0.0,0.0,0.0,0.0,0.0,0.0,0.0,0.0,0.0,0.0,0.0,0.0,0.0,0.0,0.0,0.0,0.0,0.0,0.0,0.0,0.0,0.0,0.0,0.0,0.0,0.0,0.0,0.0,4.0489,4.0489,4.0489,4.0489,4.0489,0.0,0.0,0.0,0.0,0.0,0.0,0.0,0.0,0.0,0.0,0.0,0.0,0.0,0.0,0.0,0.0,0.0,0.0,0.0,0.0,0.0,0.0,0.0,0.0,0.0,0.0,0.0,0.0,0.0,0.0,0.0,0.0,0.0,0.0,0.0,0.0,0.0,0.0,0.0,0.0,0.0,0.0,0.0,0.0,0.0,0.0,0.0,0.0,0.0,0.0,0.0,0.0,0.0,0.0,0.0,0.0,0.0,0.0,0.0,0.0,0.0,0.0,0.0,0.0,0.0,0.0,0.0,0.0,0.0,0.0,0.0,0.0,0.0,0.0,0.0,0.0,0.0,0.0,0.0,0.0,0.0,0.0,0.0,0.0,0.0,0.0,0.0,0.0,0.0,0.0,0.0,0.0,0.0,0.0,0.0,0.0,0.0,0.0,0.0,0.0,0.0,0.0,0.0,0.0,0.0,0.0,0.0,0.0,0.0,0.0,0.0,0.0,4.0604,4.0489,4.0489,0.0,0.0,0.0,0.0,0.0,0.0,0.0,0.0,0.0,0.0,0.0,0.0,0.0,0.0,0.0,0.0,0.0,0.0,0.0,0.0,0.0,0.0,0.0,0.0,0.0,0.0,0.0,0.0,0.0,0.0,0.0,0.0,0.0,0.0,0.0,0.0,0.0,0.0,0.0,0.0,0.0,0.0,0.0,0.0,0.0,0.0,0.0,0.0,0.0,0.0,0.0,0.0,0.0,0.0,0.0,0.0,0.0,0.0,0.0,0.0,0.0,0.0,0.0,0.0,0.0,0.0,0.0,0.0,0.0,0.0,0.0,0.0,0.0,0.0,0.0,0.0,0.0,0.0,0.0,0.0,0.0,0.0,0.0,0.0,0.0,0.0,0.0,0.0,0.0,0.0,0.0,0.0,0.0,0.0,0.0,0.0,0.0,0.0,0.0,0.0,0.0,0.0,0.0,0.0,0.0,0.0,0.0,0.0,0.0,0.0,4.0873,4.1643,4.0893,0.0,4.0489,0.0,0.0,0.0,0.0,0.0,0.0,0.0,0.0,0.0,0.0,0.0,0.0,0.0,0.0,0.0,0.0,0.0,0.0,0.0,0.0,0.0,0.0,0.0,0.0,0.0,0.0,0.0,0.0,0.0,0.0,0.0,0.0,0.0,0.0,0.0,0.0,0.0,0.0,0.0,0.0,0.0,0.0,0.0,0.0,0.0,0.0,0.0,0.0,0.0,0.0,0.0,0.0,0.0,0.0,0.0,0.0,0.0,0.0,0.0,0.0,0.0,0.0,0.0,0.0,0.0,0.0,0.0,0.0,0.0,0.0,0.0,0.0,0.0,0.0,0.0,0.0,0.0,0.0,0.0,0.0,0.0,0.0,0.0,0.0,0.0,0.0,0.0,0.0,0.0,0.0,0.0,0.0,0.0,0.0,0.0,0.0,0.0,0.0,0.0,0.0,0.0,0.0,0.0,0.0,0.0,0.0,0.0,0.0,0.0,0.0,4.0662,4.1008,4.0681,4.0489,0.0,0.0,0.0,0.0,0.0,0.0,0.0,0.0,0.0,0.0,0.0,0.0,0.0,0.0,0.0,0.0,0.0,0.0,0.0,0.0,0.0,0.0,0.0,0.0,0.0,0.0,0.0,0.0,0.0,0.0,0.0,0.0,0.0,0.0,0.0,0.0,0.0,0.0,0.0,0.0,0.0,0.0,0.0,0.0,0.0,0.0,0.0,0.0,0.0,0.0,0.0,0.0,0.0,0.0,0.0,0.0,0.0,0.0,0.0,0.0,0.0,0.0,0.0,0.0,0.0,0.0,0.0,0.0,0.0,0.0,0.0,0.0,0.0,0.0,0.0,0.0,0.0,0.0,0.0,0.0,0.0,0.0,0.0,0.0,0.0,0.0,0.0,0.0,0.0,0.0,0.0,0.0,0.0,0.0,0.0,0.0,0.0,0.0,0.0,0.0,0.0,0.0,0.0,0.0,0.0,0.0,0.0,0.0,0.0,0.0,4.0623,4.0489,4.0489,4.0489,4.0489,4.0489,0.0,0.0,0.0,0.0,0.0,0.0,0.0,0.0,0.0,0.0,0.0,0.0,0.0,0.0,0.0,0.0,0.0,0.0,0.0,0.0,0.0,0.0,0.0,0.0,0.0,0.0,0.0,0.0,0.0,0.0,0.0,0.0,0.0,0.0,0.0,0.0,0.0,0.0,0.0,0.0,0.0,0.0,0.0,0.0,0.0,0.0,0.0,0.0,0.0,0.0,0.0,0.0,0.0,0.0,0.0,0.0,0.0,0.0,0.0,0.0,0.0,0.0,0.0,0.0,0.0,0.0,0.0,0.0,0.0,0.0,0.0,0.0,0.0,0.0,0.0,0.0,0.0,0.0,0.0,0.0,0.0,0.0,0.0,0.0,0.0,0.0,0.0,0.0,0.0,0.0,0.0,0.0,0.0,0.0,0.0,0.0,0.0,0.0,0.0,0.0,0.0,0.0,0.0,0.0,0.0,0.0,0.0,0.0,4.1662,4.0912,4.0489,4.0489,4.0489,4.0489,0.0,0.0,0.0,0.0,0.0,0.0,0.0,0.0,0.0,0.0,0.0,0.0,0.0,0.0,0.0,0.0,0.0,0.0,0.0,0.0,0.0,0.0,0.0,0.0,0.0,0.0,0.0,0.0,0.0,0.0,0.0,0.0,0.0,0.0,0.0,0.0,0.0,0.0,0.0,0.0,0.0,0.0,0.0,0.0,0.0,0.0,0.0,0.0,0.0,0.0,0.0,0.0,0.0,0.0,0.0,0.0,0.0,0.0,0.0,0.0,0.0,0.0,0.0,0.0,0.0,0.0,0.0,0.0,0.0,0.0,0.0,0.0,0.0,0.0,0.0,0.0,0.0,0.0,0.0,0.0,0.0,0.0,0.0,0.0,0.0,0.0,0.0,0.0,0.0,0.0,0.0,0.0,0.0,0.0,0.0,0.0,0.0,0.0,0.0,0.0,0.0,0.0,0.0,0.0,0.0,0.0,0.0,0.0,0.0,4.0931,4.0642,4.0489,4.0489,4.0489,4.0258,0.0,0.0,0.0,0.0,0.0,0.0,0.0,0.0,0.0,0.0,0.0,0.0,0.0,0.0,0.0,0.0,0.0,0.0,0.0,0.0,0.0,0.0,0.0,0.0,0.0,0.0,0.0,0.0,0.0,0.0,0.0,0.0,0.0,0.0,0.0,0.0,0.0,0.0,0.0,0.0,0.0,0.0,0.0,0.0,0.0,0.0,0.0,0.0,0.0,0.0,0.0,0.0,0.0,0.0,0.0,0.0,0.0,0.0,0.0,0.0,0.0,0.0,0.0,0.0,0.0,0.0,0.0,0.0,0.0,0.0,0.0,0.0,0.0,0.0,0.0,0.0,0.0,0.0,0.0,0.0,0.0,0.0,0.0,0.0,0.0,0.0,0.0,0.0,0.0,0.0,0.0,0.0,0.0,0.0,0.0,0.0,0.0,0.0,0.0,0.0,0.0,0.0,0.0,0.0,0.0,0.0,0.0,0.0,0.0,4.0489,0.0,4.0489,4.0489,4.0489,4.0123,0.0,0.0,0.0,0.0,0.0,0.0,0.0,0.0,0.0,0.0,0.0,0.0,0.0,0.0,0.0,0.0,0.0,0.0,0.0,0.0,0.0,0.0,0.0,0.0,0.0,0.0,0.0,0.0,0.0,0.0,0.0,0.0,0.0,0.0,0.0,0.0,0.0,0.0,0.0,0.0,0.0,0.0,0.0,0.0,0.0,0.0,0.0,0.0,0.0,0.0,0.0,0.0,0.0,0.0,0.0,0.0,0.0,0.0,0.0,0.0,0.0,0.0,0.0,0.0,0.0,0.0,0.0,0.0,0.0,0.0,0.0,0.0,0.0,0.0,0.0,0.0,0.0,0.0,0.0,0.0,0.0,0.0,0.0,0.0,0.0,0.0,0.0,0.0,0.0,0.0,0.0,0.0,0.0,0.0,0.0,0.0,0.0,0.0,0.0,0.0,0.0,0.0,0.0,0.0,0.0,0.0,0.0,0.0,4.0489,4.0489,4.0489,4.0508,4.0508,4.0508,4.0123,0.0,0.0,0.0,0.0,0.0,0.0,0.0,0.0,0.0,0.0,0.0,0.0,0.0,0.0,0.0,0.0,0.0,0.0,0.0,0.0,0.0,0.0,0.0,0.0,0.0,0.0,0.0,0.0,0.0,0.0,0.0,0.0,0.0,0.0,0.0,0.0,0.0,0.0,0.0,0.0,0.0,0.0,0.0,0.0,0.0,0.0,0.0,0.0,0.0,0.0,0.0,0.0,0.0,0.0,0.0,0.0,0.0,0.0,0.0,0.0,0.0,0.0,0.0,0.0,0.0,0.0,0.0,0.0,0.0,0.0,0.0,0.0,0.0,0.0,0.0,0.0,0.0,0.0,0.0,0.0,0.0,0.0,0.0,0.0,0.0,0.0,0.0,0.0,0.0,0.0,0.0,0.0,0.0,0.0,0.0,0.0,0.0,0.0,0.0,0.0,0.0,0.0,0.0,0.0,0.0,0.0,0.0,0.0,0.0,4.0489,4.0489,4.0796,4.1335,4.0816,4.0392,0.0,0.0,0.0,0.0,0.0,0.0,0.0,0.0,0.0,0.0,0.0,0.0,0.0,0.0,0.0,0.0,0.0,0.0,0.0,0.0,0.0,0.0,0.0,0.0,0.0,0.0,0.0,0.0,0.0,0.0,0.0,0.0,0.0,0.0,0.0,0.0,0.0,0.0,0.0,0.0,0.0,0.0,0.0,0.0,0.0,0.0,0.0,0.0,0.0,0.0,0.0,0.0,0.0,0.0,0.0,0.0,0.0,0.0,0.0,0.0,0.0,0.0,0.0,0.0,0.0,0.0,0.0,0.0,0.0,0.0,0.0,0.0,0.0,0.0,0.0,0.0,0.0,0.0,0.0,0.0,0.0,0.0,0.0,0.0,0.0,0.0,0.0,0.0,0.0,0.0,0.0,0.0,0.0,0.0,0.0,0.0,0.0,0.0,0.0,0.0,0.0,0.0,0.0,0.0,0.0,0.0,0.0,0.0,0.0,4.1893,4.1912,4.2181,4.272,4.2181,4.1316,4.0065,0.0,0.0,0.0,0.0,0.0,0.0,0.0,0.0,0.0,0.0,0.0,0.0,0.0,0.0,0.0,0.0,0.0,0.0,0.0,0.0,0.0,0.0,0.0,0.0,0.0,0.0,0.0,0.0,0.0,0.0,0.0,0.0,0.0,0.0,0.0,0.0,0.0,0.0,0.0,0.0,0.0,0.0,0.0,0.0,0.0,0.0,0.0,0.0,0.0,0.0,0.0,0.0,0.0,0.0,0.0,0.0,0.0,0.0,0.0,0.0,0.0,0.0,0.0,0.0,0.0,0.0,0.0,0.0,0.0,0.0,0.0,0.0,0.0,0.0,0.0,0.0,0.0,0.0,0.0,0.0,0.0,0.0,0.0,0.0,0.0,0.0,0.0,0.0,0.0,0.0,0.0,0.0,0.0,0.0,0.0,0.0,0.0,0.0,0.0,0.0,0.0,0.0,0.0,0.0,0.0,0.0,0.0,0.0,4.4509,4.4643,4.4701,4.4605,4.4374,4.2835,0.0,0.0,0.0,0.0,0.0,0.0,0.0,0.0,0.0,0.0,0.0,0.0,0.0,0.0,0.0,0.0,0.0,0.0,0.0,0.0,0.0,0.0,0.0,0.0,0.0,0.0,0.0,0.0,0.0,0.0,0.0,0.0,0.0,0.0,0.0,0.0,0.0,0.0,0.0,0.0,0.0,0.0,0.0,0.0,0.0,0.0,0.0,0.0,0.0,0.0,0.0,0.0,0.0,0.0,0.0,0.0,0.0,0.0,0.0,0.0,0.0,0.0,0.0,0.0,0.0,0.0,0.0,0.0,0.0,0.0,0.0,0.0,0.0,0.0,0.0,0.0,0.0,0.0,0.0,0.0,0.0,0.0,0.0,0.0,0.0,0.0,0.0,0.0,0.0,0.0,0.0,0.0,0.0,0.0,0.0,0.0,0.0,0.0,0.0,0.0,0.0,0.0,0.0,0.0,0.0,0.0,0.0,0.0,0.0,4.7067,4.8933,4.9317,4.8048,4.5605,4.4182,0.0,0.0,0.0,0.0,0.0,0.0,0.0,0.0,0.0,0.0,0.0,0.0,0.0,0.0,0.0,0.0,0.0,0.0,0.0,0.0,0.0,0.0,0.0,0.0,0.0,0.0,0.0,0.0,0.0,0.0,0.0,0.0,0.0,0.0,0.0,0.0,0.0,0.0,0.0,0.0,0.0,0.0,0.0,0.0,0.0,0.0,0.0,0.0,0.0,0.0,0.0,0.0,0.0,0.0,0.0,0.0,0.0,0.0,0.0,0.0,0.0,0.0,0.0,0.0,0.0,0.0,0.0,0.0,0.0,0.0,0.0,0.0,0.0,0.0,0.0,0.0,0.0,0.0,0.0,0.0,0.0,0.0,0.0,0.0,0.0,0.0,0.0,0.0,0.0,0.0,0.0,0.0,0.0,0.0,0.0,0.0,0.0,0.0,0.0,0.0,0.0,0.0,0.0,0.0,0.0,0.0,0.0,0.0,4.5913,4.8086,5.0952,5.2318,5.2049,4.8413,4.599,0.0,0.0,0.0,0.0,0.0,0.0,0.0,0.0,0.0,0.0,0.0,0.0,0.0,0.0,0.0,0.0,0.0,0.0,0.0,0.0,0.0,0.0,0.0,0.0,0.0,0.0,0.0,0.0,0.0,0.0,0.0,0.0,0.0,0.0,0.0,0.0,0.0,0.0,0.0,0.0,0.0,0.0,0.0,0.0,0.0,0.0,0.0,0.0,0.0,0.0,0.0,0.0,0.0,0.0,0.0,0.0,0.0,0.0,0.0,0.0,0.0,0.0,0.0,0.0,0.0,0.0,0.0,0.0,0.0,0.0,0.0,0.0,0.0,0.0,0.0,0.0,0.0,0.0,0.0,0.0,0.0,0.0,0.0,0.0,0.0,0.0,0.0,0.0,0.0,0.0,0.0,0.0,0.0,0.0,0.0,0.0,0.0,0.0,0.0,0.0,0.0,0.0,0.0,0.0,0.0,0.0,0.0,0.0,4.6586,4.8375,5.1625,5.4049,5.5357,5.1491,4.7836,0.0,0.0,0.0,0.0,0.0,0.0,0.0,0.0,0.0,0.0,0.0,0.0,0.0,0.0,0.0,0.0,0.0,0.0,0.0,0.0,0.0,0.0,0.0,0.0,0.0,0.0,0.0,0.0,0.0,0.0,0.0,0.0,0.0,0.0,0.0,0.0,0.0,0.0,0.0,0.0,0.0,0.0,0.0,0.0,0.0,0.0,0.0,0.0,0.0,0.0,0.0,0.0,0.0,0.0,0.0,0.0,0.0,0.0,0.0,0.0,0.0,0.0,0.0,0.0,0.0,0.0,0.0,0.0,0.0,0.0,0.0,0.0,0.0,0.0,0.0,0.0,0.0,0.0,0.0,0.0,0.0,0.0,0.0,0.0,0.0,0.0,0.0,0.0,0.0,0.0,0.0,0.0,0.0,0.0,0.0,0.0,0.0,0.0,0.0,0.0,0.0,0.0,0.0,0.0,0.0,0.0,0.0,0.0,4.7778,5.0106,5.2818,5.4395,5.4722,5.0625,4.8029,0.0,0.0,0.0,0.0,0.0,0.0,0.0,0.0,0.0,0.0,0.0,0.0,0.0,0.0,0.0,0.0,0.0,0.0,0.0,0.0,0.0,0.0,0.0,0.0,0.0,0.0,0.0,0.0,0.0,0.0,0.0,0.0,0.0,0.0,0.0,0.0,0.0,0.0,0.0,0.0,0.0,0.0,0.0,0.0,0.0,0.0,0.0,0.0,4.2338,0.0,0.0,0.0,0.0,0.0,0.0,0.0,0.0,0.0,0.0,0.0,0.0,0.0,0.0,0.0,0.0,0.0,0.0,0.0,0.0,0.0,0.0,0.0,0.0,0.0,0.0,0.0,0.0,0.0,0.0,0.0,0.0,0.0,0.0,0.0,0.0,0.0,0.0,0.0,0.0,0.0,0.0,0.0,0.0,0.0,0.0,0.0,0.0,0.0,0.0,0.0,0.0,0.0,0.0,0.0,0.0,0.0,0.0,0.0,4.7721,5.0625,5.2779,5.426,5.4895,5.1702,4.9317,0.0,0.0,0.0,0.0,0.0,0.0,0.0,0.0,0.0,0.0,0.0,0.0,0.0,0.0,0.0,0.0,0.0,0.0,0.0,0.0,0.0,0.0,0.0,0.0,0.0,0.0,0.0,0.0,0.0,0.0,0.0,0.0,0.0,0.0,0.0,0.0,0.0,0.0,0.0,0.0,0.0,0.0,0.0,0.0,0.0,0.0,0.0,0.0,0.0,0.0,0.0,0.0,0.0,0.0,0.0,0.0,0.0,0.0,0.0,0.0,0.0,0.0,0.0,0.0,0.0,0.0,0.0,0.0,0.0,0.0,0.0,0.0,0.0,0.0,0.0,0.0,0.0,0.0,0.0,0.0,0.0,0.0,0.0,0.0,0.0,0.0,0.0,0.0,0.0,0.0,0.0,0.0,0.0,0.0,0.0,0.0,0.0,0.0,0.0,0.0,0.0,0.0,0.0,0.0,0.0,0.0,0.0,4.3989,4.7182,5.076,5.226,5.3683,5.503,5.2914,5.0471,4.7817,0.0,0.0,0.0,0.0,0.0,0.0,0.0,0.0,0.0,0.0,0.0,0.0,0.0,0.0,0.0,0.0,0.0,0.0,0.0,0.0,0.0,0.0,0.0,0.0,0.0,0.0,0.0,0.0,0.0,0.0,0.0,0.0,0.0,0.0,0.0,0.0,0.0,0.0,3.8722,4.0575,0.0,0.0,0.0,0.0,0.0,0.0,0.0,0.0,4.2746,0.0,0.0,0.0,0.0,0.0,0.0,0.0,0.0,0.0,0.0,0.0,0.0,0.0,0.0,0.0,0.0,0.0,0.0,0.0,0.0,0.0,0.0,0.0,0.0,0.0,0.0,0.0,0.0,0.0,0.0,0.0,0.0,0.0,0.0,0.0,0.0,0.0,0.0,0.0,0.0,0.0,0.0,0.0,0.0,0.0,0.0,0.0,0.0,0.0,0.0,0.0,0.0,0.0,0.0,0.0,0.0,4.4662,4.4605,4.6855,5.1568,5.1972,5.226,5.2491,5.1471,4.9356,4.6163,0.0,0.0,0.0,0.0,0.0,0.0,0.0,0.0,0.0,0.0,0.0,0.0,0.0,0.0,0.0,0.0,0.0,0.0,0.0,0.0,0.0,0.0,0.0,0.0,0.0,0.0,0.0,0.0,0.0,0.0,0.0,0.0,0.0,0.0,0.0,0.0,0.0,0.0,0.0,4.3292,4.3484,0.0,0.0,0.0,0.0,0.0,0.0,0.0,0.0,4.3645,0.0,0.0,0.0,0.0,0.0,0.0,0.0,0.0,0.0,0.0,0.0,0.0,0.0,0.0,0.0,0.0,0.0,0.0,0.0,0.0,0.0,0.0,0.0,0.0,0.0,0.0,0.0,0.0,0.0,0.0,0.0,0.0,0.0,0.0,0.0,0.0,0.0,0.0,0.0,0.0,0.0,0.0,0.0,0.0,0.0,0.0,0.0,0.0,0.0,0.0,0.0,0.0,0.0,0.0,0.0,4.4143,4.5586,4.8105,5.176,5.1914,5.2125,5.251,5.0933,4.8625,0.0,0.0,0.0,0.0,0.0,0.0,0.0,0.0,0.0,0.0,0.0,0.0,0.0,0.0,0.0,0.0,0.0,0.0,0.0,0.0,0.0,0.0,0.0,0.0,0.0,0.0,0.0,0.0,0.0,0.0,0.0,0.0,0.0,0.0,0.0,0.0,0.0,0.0,0.0,0.0,4.4748,4.4998,4.7127,0.0,0.0,0.0,0.0,0.0,0.0,4.4512,4.3974,0.0,0.0,0.0,0.0,0.0,0.0,0.0,0.0,0.0,0.0,0.0,0.0,0.0,0.0,0.0,0.0,0.0,0.0,0.0,0.0,0.0,0.0,0.0,0.0,0.0,0.0,0.0,0.0,0.0,0.0,0.0,0.0,0.0,0.0,0.0,0.0,0.0,0.0,0.0,0.0,0.0,0.0,0.0,0.0,0.0,0.0,0.0,0.0,0.0,0.0,0.0,0.0,0.0,0.0,0.0,4.3143,4.624,4.9086,5.1529,5.1664,5.1991,5.2626,5.0048,4.7509,0.0,0.0,0.0,0.0,0.0,0.0,0.0,0.0,0.0,0.0,0.0,0.0,0.0,0.0,0.0,0.0,0.0,0.0,0.0,0.0,0.0,0.0,0.0,0.0,0.0,0.0,0.0,0.0,0.0,0.0,0.0,0.0,0.0,0.0,0.0,0.0,0.0,0.0,0.0,0.0,0.0,4.657,4.8106,4.6724,0.0,0.0,0.0,0.0,4.4395,4.5051,0.0,0.0,0.0,0.0,0.0,0.0,0.0,0.0,0.0,0.0,0.0,0.0,0.0,0.0,0.0,0.0,0.0,0.0,0.0,0.0,0.0,0.0,0.0,0.0,0.0,0.0,0.0,0.0,0.0,0.0,0.0,0.0,0.0,0.0,0.0,0.0,0.0,0.0,0.0,0.0,0.0,0.0,0.0,0.0,0.0,0.0,0.0,0.0,0.0,0.0,0.0,0.0,0.0,0.0,0.0,0.0,4.3085,4.5701,4.8279,5.0683,5.0837,5.0875,5.0933,4.7778,4.5201,0.0,0.0,0.0,0.0,0.0,0.0,0.0,0.0,0.0,0.0,0.0,0.0,0.0,0.0,0.0,0.0,0.0,0.0,0.0,0.0,0.0,0.0,0.0,0.0,0.0,0.0,0.0,0.0,0.0,0.0,0.0,0.0,0.0,0.0,0.0,0.0,0.0,0.0,0.0,0.0,0.0,4.8066,4.9025,4.705,4.5688,0.0,0.0,4.6935,4.8337,4.9356,0.0,0.0,0.0,0.0,0.0,0.0,0.0,0.0,0.0,0.0,0.0,0.0,0.0,0.0,0.0,0.0,0.0,0.0,0.0,0.0,0.0,0.0,0.0,0.0,0.0,0.0,0.0,0.0,0.0,0.0,0.0,0.0,0.0,0.0,0.0,0.0,0.0,0.0,0.0,0.0,0.0,0.0,0.0,0.0,0.0,0.0,0.0,0.0,0.0,0.0,0.0,0.0,0.0,0.0,0.0,4.1511,4.3167,4.7029,4.9606,5.0644,5.0683,5.0683,5.0683,4.6471,4.3835,0.0,0.0,0.0,0.0,0.0,0.0,0.0,0.0,0.0,0.0,0.0,0.0,0.0,0.0,0.0,0.0,0.0,0.0,0.0,0.0,0.0,0.0,0.0,0.0,0.0,0.0,0.0,0.0,0.0,0.0,0.0,0.0,0.0,0.0,0.0,0.0,0.0,0.0,0.0,0.0,0.0,0.0,4.9181,4.8356,0.0,0.0,0.0,4.8145,4.7972,0.0,0.0,0.0,0.0,0.0,0.0,0.0,0.0,0.0,0.0,0.0,0.0,0.0,0.0,0.0,0.0,0.0,0.0,0.0,0.0,0.0,0.0,0.0,0.0,0.0,0.0,0.0,0.0,0.0,0.0,0.0,0.0,0.0,0.0,0.0,0.0,0.0,0.0,0.0,0.0,0.0,0.0,0.0,0.0,0.0,0.0,0.0,0.0,0.0,0.0,0.0,0.0,0.0,0.0,0.0,0.0,0.0,4.3171,4.8125,5.0683,5.0683,5.0683,5.0683,5.0606,4.6567,0.0,0.0,0.0,0.0,0.0,0.0,0.0,0.0,0.0,0.0,0.0,0.0,0.0,0.0,0.0,0.0,0.0,0.0,0.0,0.0,0.0,0.0,0.0,0.0,0.0,0.0,0.0,3.5919,0.0,0.0,0.0,0.0,0.0,0.0,0.0,0.0,0.0,0.0,0.0,0.0,0.0,0.0,4.8566,4.9201,4.947,4.9797,0.0,0.0,4.9355,4.8587,5.0433,5.0414,0.0,0.0,0.0,0.0,0.0,0.0,0.0,0.0,0.0,0.0,0.0,0.0,0.0,0.0,0.0,0.0,0.0,0.0,0.0,0.0,0.0,0.0,0.0,0.0,0.0,0.0,0.0,0.0,0.0,0.0,0.0,0.0,0.0,0.0,0.0,0.0,0.0,0.0,0.0,0.0,0.0,0.0,0.0,0.0,0.0,0.0,0.0,0.0,0.0,0.0,0.0,0.0,0.0,0.0,4.2225,4.3229,4.8106,5.0683,5.0683,5.0683,5.0683,5.0664,4.8798,4.6278,0.0,0.0,0.0,0.0,0.0,0.0,0.0,0.0,0.0,0.0,0.0,0.0,0.0,0.0,0.0,0.0,0.0,0.0,0.0,0.0,0.0,0.0,0.0,0.0,0.0,0.0,0.0,0.0,0.0,0.0,0.0,0.0,0.0,0.0,0.0,0.0,0.0,0.0,0.0,0.0,0.0,4.9238,4.9278,5.0009,5.1084,0.0,5.1566,5.1008,5.2528,5.4184,5.3664,4.8644,0.0,0.0,0.0,0.0,0.0,0.0,0.0,0.0,0.0,0.0,0.0,0.0,0.0,0.0,0.0,0.0,0.0,0.0,0.0,0.0,0.0,0.0,0.0,0.0,0.0,0.0,0.0,0.0,0.0,0.0,0.0,0.0,0.0,0.0,0.0,0.0,0.0,0.0,0.0,0.0,0.0,0.0,0.0,0.0,0.0,0.0,0.0,0.0,0.0,0.0,0.0,0.0,0.0,4.169,4.3139,4.8107,5.0683,5.0683,5.0683,5.0683,5.0683,4.8529,4.6009,0.0,0.0,0.0,0.0,0.0,0.0,0.0,0.0,0.0,0.0,0.0,0.0,0.0,0.0,0.0,0.0,0.0,0.0,0.0,0.0,0.0,0.0,0.0,0.0,0.0,0.0,0.0,0.0,4.1112,4.1304,3.924,0.0,0.0,0.0,0.0,0.0,0.0,0.0,0.0,0.0,0.0,4.9316,5.1333,5.1762,0.0,0.0,5.203,5.1269,5.2652,5.2101,5.0511,4.7585,4.5668,0.0,0.0,0.0,0.0,0.0,0.0,0.0,0.0,0.0,0.0,0.0,0.0,0.0,0.0,0.0,0.0,0.0,0.0,0.0,0.0,0.0,0.0,0.0,0.0,0.0,0.0,0.0,0.0,0.0,0.0,0.0,0.0,0.0,0.0,0.0,0.0,0.0,0.0,0.0,0.0,0.0,0.0,0.0,0.0,0.0,0.0,0.0,0.0,0.0,0.0,0.0,0.0,4.1347,4.3101,4.8106,5.0683,5.0683,5.0683,5.0683,5.0644,4.8952,4.6855,0.0,0.0,0.0,0.0,0.0,0.0,0.0,0.0,0.0,0.0,0.0,0.0,0.0,0.0,0.0,0.0,0.0,0.0,0.0,0.0,0.0,0.0,0.0,0.0,0.0,0.0,0.0,0.0,4.1319,4.1113,3.8534,0.0,0.0,0.0,0.0,0.0,0.0,0.0,0.0,0.0,0.0,4.9592,5.2162,5.2482,5.2669,5.3312,5.1954,5.115,5.2011,5.085,4.9156,4.7057,0.0,0.0,0.0,0.0,0.0,0.0,0.0,0.0,0.0,0.0,0.0,0.0,0.0,0.0,0.0,0.0,0.0,0.0,0.0,0.0,0.0,0.0,0.0,0.0,0.0,0.0,0.0,3.1686,0.0,0.0,3.0171,0.0,0.0,0.0,0.0,0.0,0.0,0.0,0.0,0.0,0.0,0.0,0.0,0.0,0.0,0.0,0.0,0.0,0.0,0.0,0.0,0.0,0.0,4.1385,4.3139,4.8126,5.0683,5.0683,5.0683,5.0683,5.0683,5.0625,4.9394,4.6797,0.0,0.0,0.0,0.0,0.0,0.0,0.0,0.0,0.0,0.0,0.0,0.0,0.0,0.0,0.0,0.0,0.0,0.0,0.0,0.0,0.0,0.0,0.0,0.0,0.0,0.0,3.5103,3.6654,3.7578,0.0,0.0,0.0,0.0,0.0,0.0,0.0,0.0,0.0,4.3905,4.7414,5.0202,5.1211,5.1708,5.2043,5.2073,5.1326,5.0797,5.0893,5.1499,5.0998,0.0,0.0,0.0,0.0,0.0,0.0,0.0,0.0,0.0,0.0,0.0,0.0,0.0,0.0,0.0,0.0,0.0,0.0,0.0,0.0,0.0,0.0,0.0,0.0,0.0,0.0,0.0,3.5201,3.4829,0.0,0.0,0.0,0.0,0.0,0.0,0.0,0.0,0.0,0.0,0.0,4.1385,4.1684,0.0,0.0,0.0,0.0,0.0,0.0,0.0,0.0,0.0,0.0,0.0,0.0,4.1925,4.3274,4.8106,5.0683,5.0683,5.0683,5.0683,5.0683,5.0683,4.924,4.6105,0.0,0.0,0.0,0.0,0.0,0.0,0.0,0.0,0.0,0.0,0.0,0.0,0.0,0.0,0.0,0.0,0.0,0.0,0.0,0.0,0.0,0.0,0.0,0.0,0.0,3.6904,0.0,0.0,0.0,0.0,0.0,0.0,0.0,0.0,0.0,0.0,0.0,4.3368,4.6027,4.7481,4.8941,5.0713,5.1393,5.1935,0.0,0.0,0.0,0.0,0.0,0.0,0.0,0.0,0.0,0.0,0.0,0.0,0.0,0.0,4.7721,4.3816,4.2624,4.2239,4.2239,0.0,0.0,0.0,0.0,0.0,0.0,0.0,0.0,0.0,0.0,0.0,0.0,0.0,0.0,3.8178,0.0,3.7821,0.0,0.0,0.0,0.0,0.0,0.0,0.0,0.0,4.2129,4.3684,4.4418,4.4414,4.4412,0.0,4.322,4.0527,0.0,0.0,0.0,0.0,0.0,0.0,0.0,0.0,4.2213,4.3254,4.8106,5.0683,5.0683,5.0683,5.0683,5.0683,5.0683,4.9663,4.7432,4.4932,4.2681,0.0,0.0,0.0,0.0,0.0,0.0,0.0,0.0,0.0,0.0,0.0,0.0,0.0,0.0,0.0,0.0,0.0,0.0,0.0,0.0,0.0,0.0,0.0,3.8024,0.0,0.0,0.0,0.0,0.0,0.0,0.0,0.0,0.0,4.1476,4.3024,4.5006,4.7561,4.8249,4.9041,5.0372,0.0,0.0,0.0,0.0,0.0,0.0,0.0,4.7076,4.7479,4.684,4.6497,4.7231,4.9477,5.0948,5.0068,0.0,0.0,4.6856,4.5451,4.4836,4.4855,4.549,4.6124,4.6413,4.7567,4.8644,0.0,0.0,0.0,0.0,0.0,0.0,0.0,0.0,4.3088,4.1245,0.0,4.0516,0.0,0.0,0.0,0.0,0.0,3.9884,0.0,0.0,4.7952,4.9202,4.699,4.6913,4.6932,4.6874,4.5297,4.4085,4.3239,4.1643,0.0,0.0,0.0,0.0,0.0,0.0,4.229,4.3388,4.8183,5.0683,5.0683,5.0683,5.0683,5.0683,5.0683,5.0664,5.0567,4.8279,4.6586,4.5586,4.0912,0.0,0.0,0.0,0.0,0.0,0.0,0.0,0.0,0.0,0.0,0.0,0.0,0.0,0.0,0.0,0.0,0.0,0.0,0.0,0.0,3.7416,0.0,0.0,0.0,0.0,0.0,0.0,0.0,0.0,0.0,0.0,4.1953,4.4512,4.7018,4.8382,0.0,0.0,0.0,0.0,5.0196,4.8691,4.8379,4.8216,4.7647,4.8827,4.964,4.899,0.0,0.0,5.0033,5.115,5.15,4.9162,5.0311,5.1572,5.1776,4.9683,4.8182,4.8163,4.7721,4.7471,4.8182,4.9298,5.0067,4.2527,0.0,0.0,0.0,0.0,4.2027,4.2981,4.4594,4.4575,4.3514,4.1737,4.2413,0.0,0.0,0.0,0.0,0.0,0.0,4.1388,4.3514,4.5323,4.6701,4.774,4.7759,4.8067,4.8644,4.8182,4.8144,4.849,4.8009,4.4335,3.7719,0.0,0.0,0.0,0.0,4.3726,4.588,4.9048,5.0683,5.0683,5.0683,5.0683,5.0683,5.0683,5.0683,5.0683,4.999,4.8644,4.6605,4.442,0.0,0.0,0.0,0.0,0.0,0.0,0.0,0.0,0.0,0.0,0.0,0.0,0.0,0.0,0.0,0.0,0.0,0.0,0.0,3.6205,3.9207,3.9773,0.0,0.0,0.0,0.0,0.0,0.0,0.0,0.0,0.0,4.5632,4.6467,4.7378,0.0,0.0,4.8314,4.7997,4.9044,4.9942,5.0149,5.0245,0.0,5.0802,5.0323,5.0028,5.0435,5.174,5.2583,5.2196,5.2715,5.2968,5.2182,5.163,5.1485,5.2246,5.1158,5.0221,5.0664,5.1106,5.1664,5.2491,5.3318,5.3935,4.5509,4.4895,4.2789,4.2556,4.3547,4.3461,4.448,4.6194,4.6194,4.5118,4.3403,4.4391,4.2765,3.9219,3.9137,0.0,0.0,0.0,4.255,4.51,4.5472,4.6666,4.8393,4.8568,4.9067,4.9894,4.9913,5.0183,5.0683,4.9683,4.6624,4.1662,0.0,0.0,4.0108,4.3092,4.5358,4.6935,4.9394,5.0683,5.0683,5.0683,5.0683,5.0683,5.0683,5.0683,5.0683,5.0683,4.999,4.8471,4.682,4.4327,0.0,0.0,0.0,0.0,0.0,0.0,0.0,0.0,0.0,0.0,0.0,3.3944,3.1504,0.0,0.0,0.0,3.6582,3.757,3.9137,4.0647,0.0,0.0,0.0,0.0,0.0,0.0,0.0,4.264,4.4887,4.6711,4.7674,4.757,4.7913,4.9188,4.9161,4.8918,4.8601,0.0,5.0585,5.0827,5.0925,5.1187,5.1726,5.1226,5.1099,5.2045,5.2809,5.3325,5.3396,5.3549,5.355,5.3188,5.2454,5.1981,5.2323,5.1764,5.1529,5.2258,5.2837,5.3472,5.4318,5.4792,5.5132,4.7875,4.7434,4.2546,4.2068,4.4475,4.4287,4.5464,4.7506,4.7525,4.6012,4.3756,4.5982,4.4341,3.9795,3.9583,0.0,4.3257,4.3284,4.461,4.7081,4.7319,4.7911,4.8754,4.9007,4.9663,5.0548,5.0587,5.0625,5.0567,4.8355,4.7144,4.7009,4.699,4.5693,4.3366,4.5404,4.6703,4.6935,4.9183,5.0491,5.0683,5.0683,5.0683,5.0683,5.0683,5.0683,5.0683,5.0663,5.0663,5.0586,4.8395,4.6609,4.5263,0.0,0.0,0.0,0.0,0.0,0.0,0.0,0.0,0.0,0.0,0.0,0.0,0.0,0.0,3.8519,4.0783,0.0,4.3408,4.1919,0.0,0.0,0.0,4.0574,4.3431,4.3834,4.4573,4.6221,0.0,0.0,4.8416,4.8078,4.8595,5.1046,5.1195,5.1027,5.0842,5.1408,5.172,5.1041,5.0967,5.1103,5.1482,5.1851,5.2441,5.332,5.3656,5.3678,5.3738,5.3683,5.3367,5.2772,5.2746,5.2705,5.2011,5.2126,5.2493,5.3203,5.3272,5.3505,5.437,5.4403,5.4492,4.6071,4.576,4.4303,4.4938,4.687,4.661,4.6373,4.6191,4.6191,4.5303,4.3919,4.4528,4.4058,4.2906,4.2865,4.3211,4.3811,4.4018,4.4457,4.5084,4.5363,4.5941,4.67,4.7032,4.796,4.935,4.9603,5.0048,5.0644,5.0087,4.9125,4.7875,4.7817,4.6236,4.3254,4.3695,4.4951,4.6892,4.749,4.8759,5.0606,5.0683,5.0683,5.0683,5.0683,5.0683,5.0683,5.0462,5.0317,5.0294,4.9558,4.8099,4.5897,4.194,0.0,0.0,0.0,0.0,0.0,0.0,0.0,0.0,0.0,3.5098,3.1594,0.0,3.6877,0.0,4.26,4.5208,4.4461,4.4215,0.0,0.0,4.2088,4.223,4.3961,4.5094,4.5787,4.58,4.6864,4.7901,4.866,4.8624,4.9342,5.1498,5.0777,5.0186,5.0692,5.1499,5.194,5.1793,5.2261,5.2706,5.2684,5.2872,5.3079,5.3341,5.3558,5.3714,5.3734,5.3255,5.281,5.2587,5.214,5.2095,5.2653,5.2841,5.3277,5.4107,5.3886,5.3777,5.4861,5.4833,5.4733,4.5342,4.5161,4.4776,4.5256,4.6215,4.6063,4.5685,4.5143,4.5143,4.468,4.4005,4.4005,4.4005,4.4042,4.4413,4.4581,4.4631,4.5084,4.5342,4.5354,4.5613,4.6164,4.6938,4.7226,4.8057,4.9243,4.9589,4.9987,5.0433,5.0606,5.0163,4.9221,4.8818,4.7337,4.4833,4.3989,4.4333,4.5714,4.6508,4.8144,5.0567,5.0683,5.0164,4.9067,4.8933,4.8336,4.7242,4.6904,4.6774,4.6774,4.6616,4.5911,4.4464,4.1076,3.8334,0.0,0.0,0.0,0.0,0.0,0.0,0.0,0.0,0.0,0.0,0.0,3.8358,3.8722,4.3365,4.5608,4.3807,4.4143,4.442,4.4345,4.4235,4.4758,4.636,4.7205,4.7598,4.7301,4.7947,4.8665,4.9243,4.8881,4.9288,5.1191,5.0692,5.0545,5.1646,5.227,5.2546,5.2564,5.2936,5.3254,5.3206,5.3254,5.33,5.33,5.34,5.3558,5.3598,5.3325,5.3087,5.3049,5.2753,5.2661,5.3306,5.3417,5.369,5.4237,5.4105,5.4069,5.4857,5.4787,5.4654,4.5352,4.5268,4.4662,4.443,4.4496,4.4402,4.4346,4.4346,4.4346,4.4221,4.4005,4.4005,4.4005,4.4061,4.4915,4.5287,4.5342,4.6141,4.6513,4.6527,4.6725,4.726,4.804,4.8315,4.881,4.9549,4.9978,5.0144,5.0105,5.049,5.047,5.0083,4.9355,4.8126,4.6474,4.4916,4.4141,4.4171,4.5969,4.8029,5.0279,5.0029,4.8817,4.6665,4.6358,4.5167,4.289,4.2574,4.2484,4.2576,4.2458,4.2568,4.2886,3.9637,3.7765,0.0,3.4773,0.0,0.0,0.0,0.0,0.0,0.0,0.0,0.0,4.0276,4.0368,4.0506,4.3791,4.5131,4.324,4.3699,4.4794,4.6413,4.6724,4.7489,4.9126,4.9439,4.9495,4.9495,4.9216,4.9358,4.9953,4.9195,4.9242,5.0747,5.1022,5.1463,5.2839,5.3133,5.3151,5.3206,5.3206,5.3182,5.3078,5.317,5.3217,5.3133,5.3217,5.3258,5.3198,5.3481,5.3637,5.3579,5.3584,5.3719,5.3774,5.3775,5.387,5.4177,5.398,5.3997,5.4541,5.4463,5.4364,4.6104,4.5754,4.4802,4.4691,4.5065,4.4358,4.4079,4.4079,4.4079,4.4048,4.4005,4.4005,4.4005,4.4079,4.4915,4.5287,4.5324,4.6141,4.6513,4.6513,4.6541,4.6969,4.7698,4.7966,4.8478,4.9206,4.983,5.0077,5.0023,5.041,4.9527,4.7491,4.7261,4.6359,4.4729,0.0,0.0,0.0,4.5682,4.7451,4.8471,4.6567,4.5206,4.4576,4.4518,0.0,4.265,4.2267,4.2398,4.2994,4.2256,0.0,0.0,0.0,0.0,0.0,0.0,0.0,0.0,0.0,0.0,0.0,4.0615,4.0204,4.0031,4.1158,4.2448,4.3699,4.513,4.6323,4.7095,4.7315,4.7536,4.7923,4.8567,4.9139,4.9546,5.0118,5.0523,5.0523,5.0464,5.0462,5.0591,5.0457,5.0674,5.1536,5.1775,5.216,5.3041,5.3188,5.3206,5.3206,5.3206,5.301,5.2635,5.2941,5.2937,5.2297,5.2751,5.2907,5.2345,5.295,5.3341,5.3054,5.3341,5.3734,5.3734,5.3736,5.3851,5.3907,5.3832,5.3944,5.4296,5.4106,5.4018,4.6372,4.576,4.5123,4.4773,0.0,4.4191,4.4005,4.4005,4.4005,4.4005,4.4005,4.4005,4.4005,4.4079,4.5324,4.59,4.5937,4.7125,4.7649,4.7615,4.7633,4.7821,4.8122,4.8408,4.8632,4.8824,4.9684,4.9758,4.9177,5.0071,4.9447,4.7334,4.7296,4.7066,4.6624,4.6626,4.6071,4.4899,4.6588,4.8279,4.9817,4.8948,4.7601,4.5891,4.5574,0.0,0.0,0.0,0.0,0.0,0.0,0.0,0.0,4.25,0.0,4.2693,4.1635,4.1427,4.2514,4.258,4.325,4.4752,4.4779,4.3996,4.2391,4.4195,4.5698,4.6416,4.7279,4.8069,4.8838,4.9297,4.9536,4.9572,4.9921,5.0196,5.0233,5.0545,5.0802,5.082,5.082,5.093,5.1353,5.1022,5.1132,5.1848,5.1995,5.216,5.2546,5.2968,5.3206,5.3206,5.3206,5.301,5.2589,5.2852,5.2824,5.1994,5.2527,5.2725,5.1813,5.2644,5.3258,5.2802,5.3198,5.3714,5.3714,5.3754,5.3813,5.3813,5.3813,5.3832,5.4017,5.4,5.4018,4.6711,4.6006,4.5488,4.4971,4.4432,4.4135,4.3974,4.3974,0.0,0.0,0.0,4.4005,4.4098,4.4326,4.5825,4.6587,4.6776,4.8206,4.8839,4.8787,4.8768,4.8697,4.8605,4.8853,4.8832,4.8581,4.9361,4.9264,4.8327,4.9484,4.9231,4.779,4.7656,4.8077,4.8879,4.9939,4.9444,4.747,4.7818,4.9144,5.1275,5.1499,5.0255,4.7484,4.6917,4.5312,4.2408,4.1957,4.1887,4.1999,4.1739,4.182,4.2377,4.2314,4.2445,4.2823,4.2878,4.3701,4.5601,4.5685,4.6448,4.8384,4.8529,4.7642,4.5492,4.7386,4.864,4.8526,4.9297,4.9774,4.9793,5.0398,5.082,5.082,5.093,5.1004,5.1022,5.1169,5.1316,5.1242,5.1316,5.1463,5.2087,5.1683,5.1463,5.205,5.227,5.2155,5.2187,5.2718,5.317,5.3017,5.2969,5.2816,5.2466,5.2672,5.2581,5.15,5.2315,5.2743,5.1994,5.2463,5.2987,5.2626,5.3157,5.3576,5.3714,5.3754,5.3813,5.3813,5.3813,5.3813,5.3794,5.3944,5.4163,4.7826,4.7609,4.6004,4.5639,4.6048,4.4541,4.3883,4.3837,4.3942,4.4005,4.4005,4.4005,4.4419,4.5171,4.609,4.6851,4.7506,4.8396,4.8732,4.8642,4.8642,4.8587,4.8494,4.8569,4.8664,4.8735,4.8578,4.8507,4.8514,4.834,4.7712,4.6827,4.6691,4.7171,4.8051,4.9586,5.0199,4.979,4.8602,4.8529,4.9584,4.8092,4.7014,4.6372,4.6045,4.5148,4.3769,4.3015,4.2903,4.3596,4.2236,4.2693,4.543,4.5087,4.5681,4.758,4.7784,4.7916,4.8213,4.8179,4.8218,4.8495,4.9121,4.9007,4.7974,4.8802,4.9446,4.9426,5.016,5.0618,5.0637,5.0765,5.0912,5.0912,5.1426,5.183,5.1848,5.2399,5.2766,5.2747,5.2858,5.2821,5.2894,5.2839,5.2766,5.2968,5.2852,5.2797,5.2435,5.2839,5.2981,5.2621,5.2506,5.2293,5.1937,5.2192,5.1884,5.0471,5.1915,5.2654,5.1158,5.2203,5.2962,5.2563,5.3054,5.3518,5.3674,5.3754,5.3813,5.3813,5.3813,5.3813,5.3813,5.3944,5.4163,4.8428,4.782,4.695,4.6238,4.5667,4.4387,4.3822,4.3859,4.4336,4.4286,4.3955,4.4369,4.4772,4.5226,4.6509,4.7265,4.7531,4.8327,4.866,4.855,4.8532,4.8587,4.866,4.8859,4.8967,4.9047,4.8829,4.8435,4.7933,4.7831,4.7171,4.6003,4.6748,4.7417,4.7895,4.9484,5.0554,5.099,5.0801,5.0801,5.0961,5.0867,5.0468,4.9751,4.9454,4.8885,4.7949,4.7509,4.7543,4.7999,4.7175,4.7161,4.8213,4.7953,4.8029,4.8641,4.8678,4.8678,4.8678,4.8587,4.8716,4.9067,4.8972,4.9169,4.9633,5.0046,5.0233,5.027,5.0967,5.1444,5.1463,5.1848,5.2123,5.2105,5.2454,5.2637,5.2674,5.2949,5.3206,5.3206,5.3206,5.3206,5.3206,5.3206,5.3206,5.3164,5.2974,5.2563,5.206,5.2408,5.2707,5.2462,5.2391,5.2191,5.1747,5.2071,5.1669,5.0246,5.1799,5.2203,5.0964,5.1866,5.268,5.2317,5.2846,5.3481,5.3674,5.3754,5.3813,5.3813,5.3813,5.3813,5.3832,5.4018,5.4337,4.8837,4.8096,4.7791,4.6799,4.5327,4.462,4.4309,4.4346,4.4923,4.4878,4.442,4.5031,4.5411,4.5659,4.696,4.7587,4.772,4.8292,4.8532,4.8457,4.8531,4.8624,4.8816,4.9146,4.9259,4.9114,4.8853,4.8134,4.7232,4.7232,4.6577,4.5602,4.6978,4.7799,4.7818,4.9461,5.0741,5.1601,5.2499,5.2843,5.2721,5.3872,5.4021,5.3174,5.2791,5.236,5.1806,5.1546,5.1453,5.1566,5.1082,5.0526,4.9954,4.9695,4.9252,4.8643,4.8569,4.8569,4.8532,4.8642,4.8898,4.9285,4.9207,4.9603,5.0634,5.1161,5.1242,5.1206,5.1793,5.227,5.2325,5.2784,5.3206,5.3206,5.3206,5.317,5.3206,5.3206,5.3206,5.3206,5.3206,5.3206,5.3206,5.3206,5.3206,5.3121,5.2717,5.2221,5.175,5.206,5.2361,5.225,5.2203,5.206,5.1719,5.1915,5.1551,5.0263,5.1669,5.1915,5.1052,5.1817,5.268,5.2224,5.2802,5.3481,5.3676,5.3754,5.3813,5.3813,5.3813,5.3813,5.3888,5.4146,5.4453,4.909,4.9064,4.8151,4.7098,4.6112,4.5897,4.5752,4.5681,4.5828,4.5791,4.5717,4.5987,4.6504,4.715,4.7332,4.7794,4.831,4.8458,4.8438,4.8381,4.862,4.879,4.8832,4.9133,4.907,4.8651,4.7934,4.7286,4.6625,4.5925,4.5488,4.5507,4.6978,4.7799,4.799,4.948,5.0741,5.162,5.2384,5.3035,5.3499,5.4156,5.4303,5.3885,5.3569,5.345,5.3323,5.2518,5.2093,5.2175,5.0746,4.984,4.9674,4.9104,4.8661,4.8494,4.8513,4.8438,4.8399,4.8985,4.9077,4.8636,5.0266,5.1183,5.0904,5.2064,5.2637,5.2155,5.2559,5.3023,5.3096,5.317,5.3206,5.3206,5.3206,5.3206,5.3206,5.3206,5.3206,5.3206,5.3206,5.3206,5.3206,5.3206,5.3206,5.3206,5.2654,5.2173,5.1848,5.2012,5.2203,5.1848,5.1701,5.1719,5.1619,5.1619,5.1262,5.0415,5.1398,5.175,5.1416,5.1651,5.2417,5.2607,5.3054,5.3539,5.3736,5.3813,5.3813,5.3813,5.3813,5.3851,5.4018,5.4233,5.4468,4.942,4.9327,4.8658,4.7789,4.6854,4.6231,4.5938,4.592,4.6416,4.6618,4.6673,4.7206,4.739,4.7278,4.7795,4.8181,4.8401,4.8363,4.8363,4.8324,4.8434,4.8697,4.9075,4.9229,4.915,4.8838,4.8019,4.719,4.6478,4.5679,4.5277,4.5468,4.6978,4.7799,4.7971,4.9977,5.1486,5.2308,5.2958,5.3622,5.4229,5.4352,5.4104,5.3563,5.3422,5.34,5.3422,5.3027,5.2681,5.2338,5.1535,5.0625,4.9746,4.9397,4.8935,4.8436,4.8151,4.8034,4.8132,4.8042,4.8236,4.8754,4.8877,4.9378,5.0461,5.0759,5.1022,5.1772,5.2641,5.3206,5.3164,5.3206,5.3206,5.3206,5.3206,5.3164,5.3206,5.3206,5.3206,5.3206,5.3206,5.3206,5.3206,5.3206,5.3206,5.306,5.2518,5.2012,5.2012,5.2012,5.1964,5.206,5.206,5.1915,5.1719,5.1619,5.1262,5.0964,5.1799,5.2454,5.1701,5.2232,5.2882,5.274,5.324,5.3619,5.3774,5.3813,5.3813,5.3813,5.3813,5.3888,5.4073,5.4315,5.4585,4.9684,4.9389,4.8925,4.831,4.7574,4.6856,4.6562,4.6636,4.7186,4.7426,4.7481,4.8069,4.7992,4.7587,4.8161,4.8419,4.8306,4.8324,4.8324,4.8343,4.8471,4.8842,4.9276,4.9252,4.9056,4.8659,4.7857,4.6997,4.6194,4.5621,4.5392,4.5812,4.7092,4.7933,4.8372,5.0493,5.2002,5.2761,5.3337,5.3932,5.4491,5.4311,5.3889,5.34,5.3277,5.3277,5.33,5.3074,5.2747,5.2259,5.1676,5.0842,4.9781,4.9294,4.8824,4.8334,4.8091,4.8129,4.8289,4.7854,4.7913,4.869,4.8137,4.8467,4.9702,4.9895,5.0378,5.1401,5.2315,5.2717,5.2761,5.2761,5.2761,5.2761,5.2743,5.2761,5.2698,5.2868,5.2955,5.2974,5.3103,5.3206,5.3206,5.3206,5.3206,5.3103,5.2563,5.206,5.2315,5.2221,5.2203,5.2361,5.2408,5.2173,5.1719,5.1817,5.15,5.1314,5.2012,5.2563,5.1848,5.2554,5.3072,5.274,5.33,5.3676,5.3774,5.3813,5.3813,5.3813,5.3813,5.3888,5.4163,5.4392,5.476,4.9711,4.9485,4.88,4.8458,4.8421,4.8197,4.8159,4.8031,4.8177,4.8233,4.8177,4.8269,4.8288,4.8194,4.8288,4.8324,4.8324,4.8324,4.8324,4.8361,4.8859,4.923,4.9276,4.9169,4.8643,4.7837,4.7073,4.6233,4.543,4.5335,4.5698,4.6443,4.7341,4.822,4.9098,5.076,5.2002,5.2761,5.3375,5.3879,5.4236,5.3961,5.372,5.3623,5.3378,5.323,5.3203,5.2537,5.2114,5.2143,5.0735,4.9756,4.9536,4.848,4.7951,4.8054,4.8693,4.9091,4.9078,4.8918,4.8675,4.836,4.9098,4.9786,4.9288,5.0276,5.1104,5.1518,5.1551,5.1651,5.1562,5.1764,5.1799,5.1817,5.1719,5.1768,5.175,5.2268,5.2408,5.2563,5.2912,5.3164,5.3206,5.3206,5.3206,5.3206,5.3121,5.2912,5.2563,5.2824,5.2761,5.2545,5.2408,5.2221,5.1817,5.1964,5.175,5.1551,5.1799,5.2408,5.2137,5.2072,5.2472,5.2846,5.3359,5.3676,5.3774,5.3813,5.3813,5.3813,5.3813,5.3907,5.4303,5.4458,5.4819,4.9683,4.9196,4.8714,4.8457,4.8344,4.8306,4.8324,4.8324,4.8324,4.8324,4.8324,4.8324,4.8324,4.8324,4.8324,4.8324,4.8324,4.8324,4.8324,4.8306,4.8251,4.8344,4.8476,4.8131,4.7608,4.7016,4.6653,4.608,4.5373,4.5277,4.5717,4.6519,4.7379,4.8239,4.9308,5.1276,5.2518,5.2856,5.3812,5.4462,5.4522,5.4033,5.372,5.3682,5.3359,5.3206,5.3212,5.2913,5.255,5.204,5.143,5.0916,5.0343,4.9586,4.882,4.8346,4.8529,4.8782,4.8819,4.8033,4.7648,4.784,4.7836,4.8224,4.8359,4.9184,5.0021,5.0442,5.0602,5.0372,5.0151,5.0839,5.1619,5.1619,5.1619,5.1569,5.1719,5.206,5.2408,5.2472,5.285,5.3164,5.3206,5.3206,5.3206,5.3164,5.2912,5.2806,5.2868,5.2868,5.2761,5.2893,5.2912,5.2717,5.2203,5.2268,5.2203,5.1994,5.2137,5.268,5.2769,5.2857,5.3217,5.3198,5.3579,5.3716,5.3813,5.3813,5.3813,5.3813,5.3813,5.4072,5.442,5.4647,5.5034,4.9711,4.9118,4.8748,4.855,4.8476,4.8344,4.8364,4.8439,4.8326,4.8324,4.8269,4.8049,4.7901,4.7864,4.7664,4.7592,4.7758,4.8106,4.8364,4.8402,4.7957,4.7935,4.8087,4.7438,4.6863,4.65,4.6233,4.5812,4.5354,4.5277,4.5851,4.694,4.7551,4.8544,5.0,5.1873,5.29,5.3347,5.4268,5.4746,5.4591,5.4015,5.3662,5.3524,5.3295,5.3206,5.3206,5.2949,5.2582,5.2073,5.1738,5.1234,5.0356,5.0208,4.9638,4.8732,4.8765,4.8968,4.8964,4.7803,4.7286,4.7924,4.7452,4.7274,4.7997,4.8776,4.9424,4.9838,4.9735,4.9373,4.9175,4.994,5.0664,5.0752,5.0894,5.1052,5.1123,5.1551,5.1994,5.2353,5.2558,5.2871,5.3151,5.3206,5.3206,5.3206,5.285,5.2868,5.306,5.2912,5.2761,5.3121,5.3164,5.2912,5.2563,5.2563,5.2518,5.2297,5.2435,5.2962,5.3295,5.3518,5.3656,5.3598,5.3658,5.3774,5.3813,5.3813,5.3813,5.3813,5.3963,5.4196,5.4528,5.4838,5.5224,4.9746,4.9375,4.8949,4.8816,4.8746,4.8458,4.8495,4.8583,4.8365,4.8122,4.7921,4.7407,4.7112,4.6964,4.6471,4.619,4.6709,4.7628,4.8255,4.8486,4.8108,4.8032,4.8234,4.7018,4.6426,4.6347,4.5679,4.5335,4.5297,4.543,4.6194,4.7494,4.7837,4.9022,5.1457,5.2198,5.311,5.3709,5.4296,5.4515,5.4277,5.3832,5.351,5.3254,5.3206,5.3206,5.3206,5.2527,5.2179,5.2055,5.1389,5.0387,4.9798,5.0079,4.9973,4.9188,4.9493,4.9907,4.9786,4.8562,4.801,4.8446,4.806,4.7989,4.8633,4.9326,4.9769,4.9735,4.9252,4.8752,4.8683,4.8847,4.9007,4.8924,4.9738,5.0189,5.0119,5.0439,5.1174,5.2004,5.2149,5.2357,5.2949,5.3206,5.3206,5.3164,5.3164,5.3103,5.3164,5.3103,5.3164,5.3164,5.3164,5.3017,5.2868,5.2761,5.2698,5.2608,5.2893,5.323,5.3295,5.3459,5.3616,5.3637,5.3697,5.3813,5.3813,5.3813,5.3813,5.3832,5.4108,5.4315,5.4604,5.4933,5.5415,4.9838,4.9627,4.9283,4.9126,4.9113,4.8781,4.8414,4.7964,4.7592,4.7149,4.669,4.636,4.625,4.6231,4.5993,4.6075,4.6424,4.6854,4.7163,4.7298,4.6964,4.6812,4.6758,4.6066,4.57,4.564,4.543,4.5297,4.5411,4.5851,4.6729,4.7685,4.8391,4.9347,5.0746,5.1525,5.2174,5.2398,5.3073,5.3405,5.3391,5.3278,5.3237,5.3217,5.3206,5.3206,5.3188,5.2968,5.2821,5.2803,5.2601,5.197,5.1119,5.1101,5.0734,4.9803,4.9855,5.0011,4.989,4.9097,4.851,4.8705,4.856,4.8571,4.8753,4.9028,4.921,4.9097,4.851,4.7889,4.7493,4.7786,4.8217,4.8752,4.951,4.97,4.9274,4.9236,5.0001,5.1246,5.1474,5.1949,5.2865,5.3206,5.3206,5.3206,5.3206,5.3206,5.3206,5.3206,5.3206,5.3206,5.3164,5.3164,5.306,5.2999,5.2955,5.2893,5.3066,5.3254,5.3359,5.3459,5.3598,5.3676,5.3793,5.3813,5.3813,5.3813,5.3813,5.3889,5.4089,5.4364,5.4666,5.5151,5.5725,4.9676,4.9784,4.957,4.9483,4.9435,4.9145,4.8516,4.7793,4.7437,4.6764,4.603,4.559,4.5478,4.5401,4.527,4.5366,4.5637,4.5739,4.596,4.6232,4.6221,4.6149,4.613,4.5573,4.5277,4.5373,4.5602,4.5736,4.5793,4.6577,4.7436,4.8277,4.8831,4.9691,5.0707,5.1314,5.1716,5.2064,5.2575,5.2862,5.2981,5.3005,5.3068,5.3166,5.3206,5.3206,5.3206,5.3206,5.3206,5.3206,5.3206,5.2654,5.1719,5.1551,5.1105,5.0246,4.9993,5.0011,4.9924,4.9252,4.8959,4.9119,4.8743,4.8549,4.8638,4.8635,4.8377,4.8286,4.7734,4.7113,4.682,4.6993,4.751,4.7941,4.8631,4.889,4.8484,4.8347,4.9114,5.044,5.1012,5.1773,5.2755,5.3206,5.3206,5.3206,5.3206,5.3206,5.3206,5.3206,5.3206,5.3206,5.3206,5.3164,5.3206,5.3164,5.3164,5.3188,5.3212,5.3336,5.34,5.3558,5.3714,5.3716,5.3793,5.3813,5.3813,5.3813,5.3794,5.3981,5.4142,5.4495,5.4893,5.5682,5.6303,4.9387,4.9792,4.983,4.983,4.9803,4.9483,4.8788,4.8044,4.7751,4.6953,4.5863,4.5312,4.5,4.4796,4.4705,4.471,4.4674,4.5115,4.5526,4.587,4.6119,4.6422,4.6355,4.5791,4.5602,4.5755,4.6271,4.6557,4.6615,4.7455,4.8277,4.8926,4.9194,4.9905,5.1032,5.1467,5.1797,5.2394,5.2638,5.2729,5.2977,5.3005,5.3049,5.3175,5.3206,5.3206,5.3206,5.3206,5.3206,5.3206,5.3121,5.2627,5.1799,5.1569,5.0999,5.0051,5.0011,5.0011,4.9855,4.9269,4.9062,4.951,4.854,4.7993,4.8437,4.801,4.7634,4.7596,4.6975,4.6527,4.6475,4.651,4.6613,4.6717,4.7424,4.7717,4.7738,4.7854,4.8635,4.9984,5.0677,5.1403,5.2901,5.3206,5.3206,5.3206,5.3206,5.3206,5.3206,5.3206,5.3206,5.3206,5.3206,5.3206,5.3206,5.3206,5.3206,5.3248,5.3295,5.3359,5.3481,5.3598,5.3734,5.3793,5.3813,5.3813,5.3813,5.3813,5.387,5.4,5.4281,5.4654,5.5379,5.6256,5.7117,4.9522,5.0169,5.0169,5.0169,5.012,4.9784,4.8861,4.7718,4.7886,4.7005,4.5727,4.5805,4.5897,4.5934,4.5561,4.5842,4.6315,4.6372,4.6651,4.7102,4.7247,4.6972,4.6587,4.6326,4.6519,4.7035,4.7283,4.7455,4.7532,4.8334,4.8869,4.9098,4.9691,5.013,5.0631,5.0684,5.1104,5.1792,5.1926,5.233,5.293,5.3005,5.3068,5.318,5.3206,5.3206,5.3206,5.3206,5.3206,5.3164,5.2781,5.2311,5.1619,5.1244,5.0749,5.0149,4.9976,4.9976,4.9821,4.9217,4.8959,4.8988,4.8198,4.7797,4.7903,4.7326,4.6946,4.6771,4.6199,4.5768,4.5768,4.5803,4.6027,4.651,4.6924,4.7217,4.7531,4.7296,4.7839,4.9915,5.0444,5.1457,5.2651,5.3206,5.3206,5.3206,5.3206,5.3206,5.3206,5.3206,5.3206,5.3206,5.3206,5.3206,5.3206,5.3206,5.3206,5.3248,5.3314,5.3459,5.3539,5.3658,5.3754,5.3813,5.3813,5.3813,5.3813,5.3813,5.3926,5.4183,5.491,5.553,5.6232,5.7052,5.802,4.9564,5.0302,5.0302,5.0302,5.0278,5.0095,4.9195,4.8117,4.8153,4.7339,4.6089,4.6141,4.6397,4.6382,4.6349,4.67,4.7307,4.7333,4.7466,4.7694,4.7761,4.7491,4.7147,4.7051,4.7322,4.7799,4.8181,4.8334,4.8487,4.9194,4.9557,4.9691,5.0054,5.0283,5.034,5.0321,5.0718,5.1481,5.1629,5.2064,5.2902,5.3005,5.307,5.3171,5.3206,5.3206,5.3206,5.3206,5.3121,5.2886,5.2544,5.2054,5.1331,5.1017,5.0547,5.0034,4.9717,4.951,4.9373,4.8786,4.839,4.8213,4.766,4.7283,4.711,4.6583,4.608,4.601,4.5648,4.5492,4.5492,4.5699,4.6268,4.6958,4.7079,4.7251,4.77,4.777,4.85,4.988,5.0872,5.1547,5.3036,5.3146,5.3206,5.3206,5.3206,5.3206,5.3206,5.3206,5.3206,5.3206,5.3206,5.3206,5.3206,5.3206,5.3295,5.3295,5.3414,5.3558,5.3756,5.3794,5.3794,5.3832,5.3813,5.3869,5.3982,5.4131,5.437,5.4837,5.5674,5.6445,5.711,5.7963,5.8908,4.9586,5.0321,5.0302,5.0302,5.0302,5.0283,4.9649,4.8789,4.8802,4.8032,4.6968,4.6768,4.7074,4.6768,4.7273,4.7419,4.7796,4.8066,4.8128,4.8254,4.8277,4.8216,4.8197,4.7987,4.8105,4.8372,4.8926,4.9156,4.9347,4.9958,5.0225,5.0206,5.0264,5.0302,5.0302,5.0302,5.0813,5.1653,5.1863,5.2341,5.308,5.3305,5.3274,5.3166,5.3206,5.3206,5.3206,5.3164,5.2974,5.2408,5.2289,5.162,5.0823,5.0681,5.0195,4.9642,4.9028,4.87,4.8596,4.8045,4.7596,4.7455,4.688,4.6502,4.6352,4.5872,4.5544,4.5579,4.5441,4.551,4.5768,4.6268,4.701,4.7631,4.782,4.7838,4.8147,4.8763,4.9572,5.0419,5.1429,5.2304,5.2913,5.3206,5.3206,5.3206,5.3206,5.3206,5.3206,5.3206,5.3206,5.3206,5.3206,5.3206,5.3206,5.3206,5.3318,5.3422,5.3576,5.3734,5.4,5.4054,5.3926,5.3926,5.4089,5.4292,5.4462,5.4643,5.4931,5.5794,5.6787,5.7347,5.7896,5.8889,5.9858,4.965,5.039,5.0325,5.0302,5.0302,5.0283,4.982,4.9086,4.9678,4.915,4.8455,4.8758,4.8966,4.8985,4.8746,4.9089,4.9428,4.9365,4.9493,4.9767,4.9767,4.9767,4.9576,4.9137,4.9156,4.9576,4.9882,5.0015,5.0111,5.0149,5.0302,5.0302,5.0302,5.0302,5.0302,5.0436,5.1085,5.2251,5.2537,5.3005,5.3734,5.3924,5.3683,5.3272,5.3206,5.3206,5.3206,5.3206,5.2912,5.2309,5.1502,5.0909,5.0356,4.9204,4.854,4.8377,4.8148,4.7941,4.782,4.7303,4.6837,4.6769,4.6197,4.5663,4.5646,4.5579,4.5441,4.5441,4.5441,4.5768,4.6424,4.7044,4.7769,4.8355,4.8596,4.8955,4.9761,4.9785,5.0165,5.1097,5.1896,5.2561,5.3085,5.3164,5.3206,5.3206,5.3206,5.3206,5.3206,5.3206,5.3206,5.3206,5.3206,5.3206,5.323,5.3295,5.3484,5.3682,5.3813,5.3963,5.4231,5.4382,5.4315,5.4364,5.4463,5.4632,5.4754,5.5422,5.575,5.6825,5.7824,5.8386,5.9018,5.9946,6.0339,5.0102,5.0371,5.0325,5.0302,5.0302,5.0302,5.0073,4.9786,5.0073,4.9891,4.9375,4.9662,4.9814,4.9776,4.9655,4.9814,5.0188,5.0144,5.0125,5.0221,5.0264,5.0283,5.0264,4.9939,4.992,5.0283,5.0283,5.0302,5.0302,5.0302,5.0302,5.0302,5.0302,5.0302,5.0417,5.0703,5.1582,5.2614,5.3244,5.3717,5.419,5.4262,5.3962,5.3355,5.3206,5.3206,5.3206,5.3206,5.306,5.2516,5.1491,5.0515,4.9865,4.8608,4.779,4.7683,4.732,4.7217,4.7027,4.6527,4.6044,4.6061,4.563,4.551,4.5441,4.5441,4.5665,4.5872,4.6096,4.6406,4.7493,4.7907,4.8579,4.9166,4.9373,4.9829,5.0537,5.0629,5.0883,5.1808,5.2463,5.2831,5.3103,5.3164,5.3206,5.3206,5.3206,5.3206,5.3206,5.3206,5.3206,5.3206,5.3206,5.3206,5.3272,5.3422,5.3738,5.3961,5.4193,5.4349,5.4591,5.4685,5.4746,5.4776,5.4727,5.4791,5.4988,5.573,5.6606,5.7423,5.831,5.9229,5.9922,6.0373,6.0589,5.0606,5.0418,5.0348,5.0302,5.0302,5.0302,5.0283,5.0283,5.0302,5.0106,4.9929,4.9871,4.9933,4.9895,4.9879,5.0057,5.0231,5.0302,5.0278,5.0302,5.0302,5.0302,5.0264,5.0245,5.0206,5.0302,5.0302,5.0302,5.0302,5.0302,5.0302,5.0302,5.0302,5.0302,5.0493,5.1162,5.1921,5.278,5.3563,5.4211,5.4468,5.4412,5.3926,5.3336,5.3206,5.3206,5.3206,5.3206,5.3164,5.3109,5.1916,5.0771,4.9634,4.8415,4.7479,4.7355,4.67,4.6458,4.6337,4.5872,4.551,4.5441,4.5579,4.5613,4.5648,4.5906,4.6268,4.6631,4.6975,4.7458,4.8631,4.8941,4.9286,4.9769,5.0017,5.0341,5.0857,5.1398,5.1879,5.2232,5.2717,5.306,5.3164,5.3206,5.3206,5.3206,5.3206,5.3206,5.3206,5.3243,5.3243,5.3225,5.3206,5.3728,5.3846,5.3697,5.4,5.4461,5.4692,5.4727,5.4924,5.4981,5.5009,5.4981,5.4971,5.5152,5.5673,5.6618,5.7411,5.8011,5.8872,5.9903,6.0411,6.0742,6.08,5.0698,5.0643,5.0418,5.0302,5.0302,5.0302,5.0302,5.0302,5.0302,5.0259,5.0212,5.0188,5.0207,5.0188,5.0212,5.0255,5.0278,5.0302,5.0302,5.0302,5.0302,5.0302,5.0302,5.0302,5.0321,5.0302,5.0359,5.0417,5.0378,5.0302,5.0455,5.0359,5.0302,5.0302,5.0608,5.1181,5.2131,5.2984,5.3805,5.4553,5.49,5.4683,5.4149,5.3511,5.3427,5.3316,5.3261,5.3243,5.3206,5.3091,5.1916,5.0904,4.9934,4.8502,4.7264,4.6255,4.5889,4.5786,4.582,4.5596,4.5441,4.5544,4.596,4.6358,4.6529,4.6852,4.7162,4.7562,4.8045,4.8579,4.8786,4.9355,4.9752,5.0109,5.0415,5.0857,5.1416,5.1866,5.2268,5.2518,5.2912,5.3206,5.3206,5.3206,5.3206,5.3206,5.3206,5.3206,5.3206,5.328,5.3353,5.328,5.3206,5.392,5.4568,5.4336,5.4396,5.5032,5.5284,5.5091,5.5224,5.5269,5.5269,5.5453,5.5702,5.5993,5.6678,5.7393,5.8223,5.8875,5.973,6.0569,6.0685,6.08,6.08,5.0793,5.0678,5.0442,5.0325,5.0302,5.0302,5.0302,5.0302,5.0302,5.0302,5.0302,5.0302,5.0302,5.0302,5.0302,5.0302,5.0302,5.0302,5.0302,5.0302,5.0302,5.0302,5.0321,5.0302,5.0627,5.0856,5.099,5.099,5.099,5.1009,5.0971,5.0875,5.0588,5.0493,5.1071,5.183,5.2627,5.3436,5.4275,5.4971,5.546,5.5081,5.4741,5.4454,5.4014,5.383,5.3757,5.3335,5.3225,5.3091,5.2571,5.1697,5.0633,4.9496,4.7985,4.6288,4.5632,4.5665,4.5837,4.5768,4.5751,4.6527,4.6705,4.6809,4.7113,4.7447,4.7911,4.8351,4.8976,4.9441,4.9476,4.9804,5.0057,5.0415,5.0657,5.1158,5.1817,5.2221,5.2518,5.2717,5.3017,5.3206,5.3206,5.3206,5.3206,5.3206,5.3243,5.3316,5.339,5.3592,5.3812,5.397,5.4013,5.451,5.5119,5.4956,5.4867,5.5445,5.5713,5.5523,5.5523,5.5562,5.5911,5.6237,5.6525,5.678,5.6912,5.7405,5.8546,5.9608,6.0146,6.0589,6.0723,6.08,6.0781,5.0926,5.0728,5.0527,5.0374,5.0325,5.0302,5.0302,5.0302,5.0302,5.0302,5.0302,5.0302,5.0302,5.0302,5.0302,5.0302,5.0302,5.0302,5.0302,5.0302,5.0302,5.0302,5.0321,5.0588,5.0932,5.1429,5.2136,5.2002,5.1849,5.183,5.1849,5.1716,5.1104,5.1109,5.1873,5.2676,5.3448,5.4091,5.4931,5.5398,5.5498,5.5566,5.5592,5.5574,5.495,5.4638,5.4583,5.3922,5.3592,5.3482,5.3182,5.2596,5.1492,5.0724,4.9279,4.7178,4.6239,4.6305,4.6458,4.6406,4.6562,4.7355,4.7259,4.743,4.7803,4.8203,4.8483,4.904,4.9528,4.9924,4.9873,4.9993,5.0263,5.0675,5.091,5.1314,5.206,5.2518,5.2761,5.2955,5.3164,5.3261,5.3316,5.3647,5.372,5.3922,5.3977,5.4234,5.4326,5.4473,5.4699,5.492,5.5087,5.5356,5.56,5.5548,5.5548,5.5843,5.5905,5.5727,5.5794,5.5855,5.6239,5.6601,5.722,5.7434,5.7415,5.7646,5.8742,5.9685,6.0262,6.0608,6.0742,6.0804,6.0808,5.1053,5.0945,5.0677,5.0488,5.0393,5.0325,5.0302,5.0302,5.0302,5.0302,5.0302,5.0302,5.0302,5.0302,5.0302,5.0302,5.0302,5.0302,5.0302,5.0302,5.0302,5.0359,5.0474,5.1142,5.1505,5.2059,5.311,5.3244,5.2938,5.2747,5.2652,5.2594,5.2461,5.258,5.2714,5.3383,5.3964,5.4263,5.4995,5.5465,5.5516,5.5581,5.565,5.5611,5.5464,5.5409,5.528,5.4638,5.4161,5.4087,5.3537,5.2797,5.1913,5.0929,5.002,4.8923,4.8067,4.7476,4.7545,4.7303,4.7407,4.7941,4.8142,4.8484,4.8752,4.9177,4.9516,4.978,4.9976,4.9993,5.0011,5.0011,5.032,5.082,5.1314,5.1719,5.2379,5.3089,5.331,5.3426,5.3702,5.3573,5.3518,5.394,5.4308,5.4528,5.4748,5.4987,5.5159,5.522,5.5556,5.5834,5.5782,5.5995,5.5961,5.5936,5.5873,5.6148,5.6007,5.5876,5.5895,5.5972,5.6261,5.6722,5.7338,5.8127,5.8492,5.8838,5.93,5.9762,6.0339,6.0608,6.0762,6.0808,6.0856,5.1183,5.1023,5.0774,5.0643,5.0547,5.0418,5.0367,5.0348,5.0367,5.0325,5.0302,5.0302,5.0302,5.0302,5.0302,5.0302,5.0302,5.0302,5.0302,5.0321,5.0359,5.0569,5.1028,5.1486,5.1888,5.2996,5.3702,5.4237,5.3989,5.3741,5.355,5.3473,5.311,5.3053,5.3498,5.3894,5.439,5.4848,5.5407,5.5636,5.5613,5.5747,5.6,5.6198,5.5831,5.5886,5.5886,5.5023,5.4473,5.4271,5.3647,5.3096,5.2639,5.1991,5.1227,5.0592,4.989,4.9142,4.8428,4.7993,4.8234,4.8648,4.8951,4.8955,4.9395,4.9752,5.0011,4.9993,4.9993,5.0011,5.0109,5.032,5.0712,5.1228,5.1897,5.2401,5.2963,5.3514,5.3952,5.4087,5.4216,5.4216,5.4197,5.4454,5.4895,5.5188,5.5335,5.5508,5.5638,5.5673,5.6153,5.673,5.6604,5.6478,5.633,5.6216,5.5912,5.6017,5.5915,5.5857,5.5915,5.6049,5.6376,5.6395,5.6588,5.7627,5.9031,5.9646,5.9762,6.0089,6.0454,6.0676,6.0856,6.0923,6.1002,5.1308,5.1156,5.0874,5.0764,5.0715,5.0506,5.0412,5.0371,5.0371,5.0348,5.0302,5.0302,5.0302,5.0302,5.0302,5.0302,5.0302,5.0302,5.0302,5.034,5.0588,5.1009,5.1563,5.1964,5.2938,5.4104,5.4352,5.4734,5.4925,5.4811,5.4428,5.4409,5.3989,5.3913,5.4256,5.4524,5.4811,5.5262,5.5446,5.5542,5.5538,5.564,5.615,5.6367,5.6345,5.618,5.6473,5.5537,5.4785,5.4252,5.3647,5.317,5.3011,5.2526,5.1982,5.1369,5.077,5.009,4.9301,4.8855,4.9028,4.9338,4.9602,4.9435,4.9769,5.0011,5.0011,5.0011,5.0011,5.0051,5.0315,5.0759,5.1494,5.2118,5.2786,5.3236,5.3664,5.4081,5.4473,5.4693,5.4876,5.5244,5.5225,5.5188,5.5445,5.5812,5.6004,5.604,5.611,5.6154,5.6477,5.7019,5.6613,5.6456,5.6502,5.6332,5.6069,5.5953,5.5868,5.5992,5.6165,5.6299,5.6511,5.6415,5.6203,5.6934,5.8204,5.9223,6.0165,6.0439,6.0657,6.0804,6.0944,6.102,6.1145,5.139,5.1342,5.1083,5.0903,5.0786,5.0586,5.0478,5.0393,5.0393,5.0348,5.0302,5.0302,5.0302,5.0302,5.0302,5.0302,5.0302,5.0302,5.0378,5.0646,5.1085,5.1544,5.2155,5.3053,5.3874,5.4295,5.4753,5.5174,5.5365,5.5269,5.5193,5.525,5.4849,5.5116,5.5212,5.5097,5.5135,5.5358,5.5275,5.5264,5.5266,5.5343,5.5566,5.6441,5.6657,5.6748,5.6767,5.5757,5.4987,5.4381,5.3628,5.3225,5.3103,5.2761,5.2315,5.175,5.121,5.0589,4.9972,4.9671,4.9821,4.9924,4.989,4.9827,4.9976,5.0028,5.0028,5.0207,5.0478,5.0654,5.1022,5.1473,5.2515,5.3131,5.3813,5.431,5.4525,5.4429,5.4821,5.5188,5.5519,5.5831,5.6287,5.6294,5.6353,5.672,5.6628,5.6665,5.6668,5.671,5.6779,5.6893,5.6365,5.6234,5.6473,5.6256,5.5834,5.5996,5.6159,5.6354,5.6626,5.6722,5.6722,5.6492,5.6357,5.6838,5.7283,5.8212,5.9218,6.0314,6.0858,6.0964,6.1126,6.1264,6.1344,5.1394,5.1367,5.1195,5.105,5.0893,5.075,5.0625,5.0521,5.0478,5.0412,5.0302,5.0302,5.0302,5.0302,5.0302,5.0302,5.0302,5.0302,5.0627,5.1047,5.1505,5.2193,5.2996,5.3722,5.4352,5.483,5.5269,5.5403,5.5384,5.5403,5.5403,5.5403,5.5403,5.5384,5.5384,5.5403,5.5409,5.5352,5.5236,5.5237,5.4969,5.4818,5.4969,5.5625,5.5404,5.5673,5.5937,5.5287,5.4766,5.4289,5.3592,5.3335,5.3206,5.2955,5.2608,5.206,5.15,5.1035,5.0544,5.0241,4.9993,5.0011,4.9993,5.0062,5.0183,5.0424,5.0887,5.1158,5.1612,5.1924,5.2715,5.333,5.3999,5.4381,5.4883,5.5423,5.5467,5.5299,5.5207,5.5592,5.5996,5.6363,5.6901,5.7445,5.7497,5.761,5.74,5.7258,5.713,5.6817,5.6703,5.6587,5.6057,5.5817,5.6012,5.5772,5.5508,5.598,5.6451,5.6566,5.6761,5.6876,5.6819,5.6588,5.634,5.6556,5.6886,5.7332,5.8356,5.9823,6.0654,6.1074,6.1264,6.1461,6.1529,5.1394,5.1371,5.1297,5.1167,5.1042,5.0908,5.0752,5.0664,5.0563,5.0457,5.0321,5.0321,5.0302,5.0302,5.0302,5.055,5.0684,5.0837,5.1276,5.1811,5.2422,5.3053,5.3817,5.4428,5.4868,5.5326,5.5403,5.5403,5.5403,5.5403,5.5403,5.5403,5.5403,5.5403,5.5403,5.5403,5.539,5.5383,5.5364,5.5453,5.5256,5.5057,5.535,5.5733,5.5498,5.5319,5.5521,5.5037,5.4369,5.394,5.3518,5.3261,5.3206,5.3121,5.2912,5.2472,5.1933,5.1454,5.1103,5.0446,5.0172,5.0345,5.039,5.0511,5.0735,5.1308,5.1922,5.2257,5.2901,5.3619,5.4251,5.4625,5.5118,5.5549,5.6191,5.6667,5.63,5.6051,5.5959,5.6033,5.6195,5.6037,5.6668,5.719,5.781,5.7877,5.7825,5.75,5.7136,5.671,5.605,5.5906,5.5673,5.5536,5.5456,5.5523,5.5727,5.6329,5.6684,5.6607,5.6742,5.6879,5.6686,5.6184,5.6034,5.6174,5.6503,5.7003,5.8196,5.9583,6.0379,6.1161,6.1401,6.1595,6.1627,5.1394,5.1394,5.139,5.1302,5.1167,5.0978,5.0851,5.0771,5.0625,5.0517,5.0402,5.0321,5.0302,5.0321,5.0397,5.0837,5.1314,5.1525,5.2021,5.2747,5.3301,5.3913,5.4371,5.4849,5.5193,5.5345,5.5403,5.5403,5.5403,5.5403,5.5403,5.5403,5.5403,5.5403,5.5403,5.5403,5.539,5.5383,5.5389,5.567,5.5987,5.5792,5.6195,5.6704,5.6327,5.5958,5.5702,5.5064,5.4372,5.3781,5.3573,5.3427,5.3408,5.3518,5.3284,5.279,5.2179,5.1896,5.1823,5.0702,5.0818,5.1292,5.1535,5.1622,5.2153,5.2648,5.3145,5.3565,5.3993,5.4412,5.4977,5.5547,5.6197,5.6629,5.7272,5.7409,5.7042,5.6253,5.6033,5.5969,5.5503,5.5261,5.5955,5.6724,5.7715,5.8071,5.809,5.7783,5.7144,5.6444,5.561,5.5598,5.5472,5.5498,5.548,5.5646,5.5964,5.6585,5.6934,5.6896,5.6823,5.6864,5.6517,5.5859,5.5847,5.6091,5.6341,5.6648,5.8028,5.9374,6.0553,6.1285,6.153,6.1676,6.1709,5.1394,5.1394,5.1394,5.1386,5.1302,5.1161,5.1011,5.0835,5.0644,5.0476,5.0402,5.0321,5.0302,5.0436,5.0951,5.1372,5.1677,5.2308,5.2843,5.367,5.4071,5.4467,5.4893,5.5205,5.5428,5.5403,5.5403,5.5384,5.5403,5.5403,5.5403,5.5403,5.5517,5.5403,5.5403,5.5403,5.5415,5.5456,5.5538,5.582,5.6556,5.6472,5.6717,5.7718,5.7068,5.6594,5.6309,5.5466,5.4729,5.4202,5.4038,5.3995,5.4106,5.4271,5.4569,5.4364,5.3976,5.358,5.3405,5.282,5.2813,5.3001,5.2983,5.3039,5.3465,5.404,5.4528,5.5023,5.5482,5.6115,5.6926,5.7123,5.7464,5.7482,5.7831,5.7831,5.7446,5.6308,5.5717,5.5775,5.5482,5.5807,5.6375,5.6368,5.7121,5.7286,5.7192,5.7008,5.6494,5.5818,5.5112,5.5366,5.544,5.5476,5.5585,5.5961,5.6118,5.6547,5.7011,5.7261,5.717,5.6886,5.6483,5.5943,5.5971,5.6024,5.6329,5.6815,5.7926,5.9143,6.0106,6.1107,6.1607,6.1696,6.1701,5.1394,5.1394,5.1394,5.1394,5.1367,5.1252,5.1093,5.0923,5.0718,5.0582,5.0546,5.0692,5.0803,5.1028,5.1582,5.2327,5.248,5.2977,5.3766,5.4508,5.465,5.5035,5.5393,5.5562,5.5542,5.5495,5.547,5.547,5.5403,5.5403,5.5594,5.5804,5.5823,5.6148,5.6148,5.6167,5.5913,5.6083,5.6343,5.7004,5.7512,5.7698,5.7785,5.8225,5.7984,5.7393,5.6853,5.6164,5.5412,5.5124,5.4908,5.4803,5.5005,5.5244,5.5611,5.544,5.5356,5.4972,5.4727,5.5002,5.5079,5.5453,5.4846,5.4577,5.481,5.5414,5.5857,5.64,5.7048,5.7419,5.7831,5.7978,5.7978,5.7978,5.8024,5.8024,5.7936,5.6793,5.6154,5.6118,5.5845,5.6248,5.6405,5.6413,5.6521,5.6358,5.6177,5.6091,5.6023,5.5474,5.5104,5.5377,5.5605,5.5753,5.6053,5.6483,5.6604,5.6607,5.6915,5.73,5.6979,5.6598,5.6309,5.6087,5.6083,5.6136,5.6369,5.6971,5.7681,5.846,5.9304,6.0344,6.1447,6.1705,6.1709,5.1394,5.1394,5.1414,5.1472,5.1445,5.1499,5.1356,5.1093,5.0937,5.0893,5.0886,5.1571,5.1691,5.1806,5.2455,5.3187,5.3804,5.4033,5.4656,5.5228,5.5355,5.5667,5.575,5.5846,5.573,5.5649,5.5698,5.5853,5.5524,5.5925,5.625,5.6537,5.6671,5.6996,5.7149,5.7168,5.6856,5.6983,5.7301,5.8002,5.8601,5.8866,5.9152,5.9396,5.9168,5.8559,5.7925,5.719,5.6478,5.6043,5.576,5.5673,5.5647,5.5666,5.5684,5.5752,5.5975,5.6031,5.6164,5.6586,5.6952,5.6988,5.61,5.5926,5.6146,5.6666,5.6903,5.7128,5.754,5.7737,5.7978,5.7978,5.7978,5.8024,5.8051,5.8157,5.8331,5.7754,5.7115,5.6703,5.6158,5.6072,5.5788,5.5744,5.6194,5.5965,5.5949,5.6281,5.612,5.569,5.5446,5.5683,5.5902,5.6107,5.6483,5.6931,5.672,5.6607,5.6799,5.7052,5.6692,5.6405,5.6236,5.6112,5.611,5.6239,5.6449,5.6692,5.7046,5.7836,5.8675,5.9729,6.0861,6.1561,6.1704,5.1394,5.1453,5.2058,5.2312,5.2429,5.2943,5.276,5.2095,5.1877,5.2008,5.2511,5.2606,5.2634,5.2558,5.3334,5.3842,5.4298,5.4771,5.5193,5.5585,5.5883,5.5885,5.5968,5.6054,5.5912,5.6075,5.6269,5.6549,5.6629,5.686,5.7181,5.7583,5.7583,5.7832,5.808,5.8291,5.8068,5.7941,5.8182,5.8774,5.9302,5.9446,5.9945,6.0163,6.0233,5.9674,5.9228,5.8344,5.7621,5.7204,5.6768,5.6588,5.6455,5.695,5.7317,5.7317,5.7399,5.7426,5.7463,5.7598,5.7821,5.7932,5.7302,5.7386,5.7528,5.7536,5.766,5.7755,5.7821,5.7932,5.7978,5.7978,5.8024,5.8097,5.8213,5.8442,5.8583,5.8446,5.7807,5.731,5.6747,5.6207,5.5816,5.5778,5.6133,5.5816,5.5861,5.6301,5.6454,5.6071,5.5836,5.6089,5.6256,5.6456,5.6909,5.7357,5.6934,5.6646,5.6862,5.6828,5.6367,5.6159,5.6135,5.6178,5.6281,5.6383,5.6503,5.6719,5.6879,5.7387,5.8187,5.9241,6.0198,6.0936,6.1606,5.1902,5.2038,5.2839,5.321,5.3307,5.3776,5.3777,5.352,5.3079,5.3086,5.341,5.3669,5.3687,5.372,5.4413,5.4876,5.4914,5.5344,5.575,5.5937,5.6302,5.6575,5.666,5.69,5.7184,5.7207,5.7308,5.7621,5.7697,5.7831,5.8141,5.847,5.8496,5.8751,5.9096,5.9479,5.946,5.9256,5.9243,5.9446,5.9687,5.995,6.0396,6.0646,6.0781,6.0616,6.0283,5.9254,5.8694,5.8201,5.7709,5.7416,5.7299,5.774,5.7941,5.7886,5.7886,5.784,5.7859,5.7877,5.7978,5.7978,5.7978,5.7941,5.7877,5.7877,5.7932,5.7932,5.7978,5.7978,5.7978,5.8024,5.8097,5.8213,5.8479,5.875,5.8783,5.8855,5.8453,5.7981,5.7416,5.6821,5.6473,5.6358,5.6434,5.6683,5.6836,5.7046,5.7225,5.706,5.6671,5.6554,5.6659,5.6825,5.7236,5.7415,5.7033,5.6767,5.6946,5.6792,5.6201,5.6063,5.6211,5.6363,5.6497,5.6558,5.6582,5.6602,5.6782,5.725,5.7719,5.8621,5.9577,6.0401,6.1046,5.2683,5.2722,5.3561,5.3971,5.4205,5.4225,5.4615,5.5255,5.4443,5.4014,5.4144,5.463,5.4842,5.4843,5.5371,5.5664,5.5664,5.5869,5.6164,5.633,5.698,5.7385,5.7915,5.8481,5.8295,5.8557,5.877,5.8745,5.872,5.8915,5.9191,5.9332,5.9407,5.9681,6.0144,6.0297,6.024,6.0188,6.0238,6.0402,6.0498,6.0695,6.08,6.0781,6.0777,6.0685,6.0321,5.9874,5.9392,5.897,5.8503,5.8176,5.7969,5.7941,5.7978,5.7978,5.7978,5.7978,5.7978,5.7978,5.7978,5.7978,5.7978,5.7978,5.7978,5.7978,5.7978,5.7978,5.7978,5.7978,5.7978,5.8142,5.8301,5.8521,5.8791,5.9084,5.9319,5.9238,5.8931,5.8435,5.7919,5.7371,5.7256,5.716,5.7084,5.7562,5.7905,5.7963,5.7932,5.7882,5.7462,5.7057,5.6894,5.6921,5.7027,5.7148,5.6997,5.6905,5.6946,5.6778,5.6204,5.62,5.6379,5.6478,5.6577,5.6602,5.6606,5.6645,5.6665,5.6801,5.7328,5.8059,5.8918,5.989,6.0729,5.2702,5.2722,5.2936,5.4108,5.5767,5.5259,5.5454,5.6255,5.607,5.5753,5.5709,5.5792,5.5819,5.5726,5.5849,5.6015,5.6015,5.6291,5.6596,5.7053,5.7655,5.8282,5.8637,5.9085,5.9124,5.9132,5.9374,5.9886,6.0067,6.0247,6.0364,6.0451,6.0412,6.0561,6.0671,6.0685,6.068,6.068,6.0729,6.0753,6.0729,6.0777,6.08,6.08,6.0777,6.0777,6.052,6.0246,5.979,5.9318,5.8894,5.8479,5.8042,5.7978,5.7978,5.7978,5.7978,5.7978,5.7978,5.7978,5.7978,5.7978,5.7978,5.7978,5.7978,5.7978,5.8024,5.8006,5.8024,5.8024,5.8097,5.8326,5.8563,5.887,5.9122,5.9467,5.9791,5.9581,5.9321,5.8901,5.8383,5.8192,5.8096,5.8001,5.7905,5.8154,5.8612,5.8765,5.8723,5.8597,5.7979,5.7536,5.7032,5.6963,5.6934,5.6827,5.6656,5.6483,5.6397,5.6282,5.6197,5.6347,5.6497,5.6553,5.6606,5.684,5.6918,5.6704,5.6723,5.6977,5.7289,5.8152,5.8777,5.9655,6.049,5.268,5.2745,5.3132,5.4088,5.5201,5.4908,5.522,5.5923,5.602,5.6177,5.6406,5.64,5.6324,5.6238,5.6212,5.6258,5.6347,5.6748,5.7138,5.7634,5.8491,5.9124,5.9503,5.9873,6.0234,6.0312,6.0495,6.0916,6.1136,6.1151,6.1077,6.102,6.0964,6.0905,6.0817,6.0789,6.0753,6.0772,6.0777,6.0777,6.0753,6.0777,6.08,6.08,6.08,6.08,6.0666,6.0422,6.0036,5.9555,5.9081,5.8505,5.8098,5.7978,5.7978,5.7978,5.7978,5.7978,5.7978,5.7978,5.7978,5.7978,5.7997,5.8015,5.8295,5.8338,5.8307,5.8325,5.8351,5.8326,5.8605,5.8831,5.9065,5.9325,5.9502,5.9758,6.0,6.0027,5.9903,5.9769,5.9453,5.9396,5.9319,5.9319,5.9243,5.9243,5.9625,5.9224,5.9194,5.8764,5.8278,5.7815,5.7178,5.665,5.6406,5.6348,5.6307,5.6123,5.602,5.6247,5.6414,5.6511,5.6606,5.6977,5.7289,5.7504,5.7484,5.7387,5.7641,5.8089,5.8187,5.8343,5.8968,5.9612,6.0451,5.2712,5.296,5.3405,5.3815,5.399,5.401,5.4537,5.5259,5.5474,5.5923,5.6508,5.6514,5.6519,5.6519,5.6655,5.667,5.6932,5.7597,5.7941,5.8601,5.957,6.0058,6.0555,6.1081,6.1179,6.1257,6.1374,6.134,6.1344,6.1362,6.1311,6.1151,6.1087,6.1018,6.0964,6.0904,6.085,6.08,6.08,6.08,6.08,6.08,6.08,6.08,6.08,6.08,6.0666,6.0494,6.0208,5.9696,5.9117,5.8591,5.8207,5.8051,5.7978,5.7978,5.7978,5.7978,5.7978,5.7978,5.7978,5.7997,5.8015,5.8205,5.8526,5.8644,5.8667,5.8742,5.8735,5.8791,5.9065,5.9325,5.9502,5.9692,5.9842,5.9988,6.0188,6.0351,6.0351,6.0332,6.0313,6.0255,6.0274,6.0313,6.0332,6.037,6.013,5.9701,5.9202,5.8374,5.77,5.7335,5.6864,5.6406,5.6035,5.614,5.6246,5.6207,5.6189,5.6441,5.6762,5.7221,5.7601,5.7816,5.8109,5.8265,5.848,5.8538,5.8851,5.9026,5.8812,5.8773,5.9534,6.0178,6.0686,5.3054,5.3659,5.2468,5.2683,5.3854,5.399,5.4498,5.5337,5.602,5.6469,5.6567,5.6586,5.6586,5.6626,5.7309,5.7558,5.769,5.8446,5.9306,6.0047,6.0258,6.074,6.1159,6.1412,6.1549,6.1588,6.1588,6.1549,6.1479,6.151,6.149,6.1331,6.1379,6.1255,6.0997,6.0933,6.0901,6.0831,6.08,6.08,6.08,6.08,6.08,6.08,6.08,6.08,6.0734,6.0685,6.0374,5.9851,5.9197,5.8768,5.8474,5.8238,5.8097,5.8051,5.8051,5.7978,5.7978,5.8051,5.8097,5.8106,5.8252,5.8515,5.8803,5.9025,5.9116,5.9408,5.9378,5.9196,5.9397,5.9624,5.9809,5.9906,6.0019,6.0159,6.0342,6.037,6.037,6.037,6.0351,6.0332,6.0351,6.0351,6.0351,6.0245,5.9794,5.9374,5.9025,5.8111,5.7277,5.6981,5.6715,5.625,5.5935,5.6262,5.6388,5.6338,5.6522,5.7063,5.7646,5.8319,5.8656,5.8792,5.8851,5.8968,5.9202,5.9651,5.9456,5.9495,5.9183,5.9261,6.0061,6.0627,6.1056]},{"header":{"parameterUnit":"m.s-1","parameterCategory":1,"la1":31.0,"la2":29.5877,"lo1":-88.7671,"lo2":-86.6584,"dy":0.0162,"dx":0.0185,"nx":115,"ny":88,"refTime":"2024-03-23T06:00:00:Z","depth":0,"parameterNumber":3,"parameterNumberName":"V-component_of_WINDS"},"data":[0.0,0.0,0.0,0.0,0.0,0.0,0.0,0.0,0.0,0.0,0.0,0.0,0.0,0.0,0.0,0.0,0.0,0.0,0.0,0.0,0.0,0.0,0.0,0.0,0.0,0.0,0.0,0.0,0.0,0.0,0.0,0.0,0.0,0.0,0.0,0.0,0.0,0.0,0.0,0.0,0.0,0.0,0.0,0.0,0.0,0.0,0.0,0.0,0.0,0.0,0.0,0.0,0.0,0.0,0.0,0.0,0.0,0.0,0.0,0.0,0.0,0.0,0.0,0.0,0.0,0.0,0.0,0.0,0.0,0.0,0.0,0.0,0.0,0.0,0.0,0.0,0.0,0.0,0.0,0.0,0.0,0.0,0.0,0.0,0.0,0.0,0.0,0.0,0.0,0.0,0.0,0.0,0.0,0.0,0.0,0.0,0.0,0.0,0.0,0.0,0.0,0.0,0.0,0.0,0.0,0.0,0.0,0.0,0.0,0.0,0.0,0.0,0.0,0.0,0.0,0.0,0.0,0.0,0.0,0.0,0.0,0.0,0.0,0.0,0.0,0.0,0.0,0.0,0.0,0.0,0.0,0.0,0.0,0.0,0.0,0.0,0.0,0.0,0.0,0.0,0.0,0.0,0.0,0.0,0.0,0.0,0.0,0.0,0.0,0.0,0.0,0.0,0.0,0.0,0.0,0.0,0.0,0.0,0.0,0.0,0.0,0.0,0.0,0.0,0.0,0.0,0.0,0.0,0.0,0.0,0.0,0.0,0.0,0.0,0.0,0.0,0.0,0.0,0.0,0.0,0.0,0.0,0.0,0.0,0.0,0.0,0.0,0.0,0.0,0.0,0.0,0.0,0.0,0.0,0.0,0.0,0.0,0.0,0.0,0.0,0.0,0.0,0.0,0.0,0.0,0.0,0.0,0.0,0.0,0.0,0.0,0.0,0.0,0.0,0.0,0.0,0.0,0.0,0.0,0.0,0.0,0.0,0.0,0.0,0.0,0.0,0.0,0.0,0.0,0.0,0.0,0.0,0.0,0.0,0.0,0.0,0.0,0.0,0.0,0.0,0.0,0.0,0.0,0.0,0.0,0.0,0.0,0.0,0.0,0.0,0.0,0.0,0.0,0.0,0.0,0.0,0.0,0.0,0.0,0.0,0.0,0.0,0.0,0.0,0.0,0.0,0.0,0.0,0.0,0.0,0.0,0.0,0.0,0.0,0.0,0.0,0.0,0.0,0.0,0.0,0.0,0.0,0.0,0.0,0.0,0.0,0.0,0.0,0.0,0.0,0.0,0.0,0.0,0.0,0.0,0.0,0.0,0.0,0.0,0.0,0.0,0.0,0.0,0.0,0.0,0.0,0.0,0.0,0.0,0.0,0.0,0.0,0.0,0.0,0.0,0.0,0.0,0.0,0.0,0.0,0.0,0.0,0.0,0.0,0.0,0.0,0.0,0.0,0.0,0.0,0.0,0.0,0.0,0.0,0.0,0.0,0.0,0.0,0.0,0.0,0.0,0.0,0.0,0.0,0.0,0.0,0.0,0.0,0.0,0.0,0.0,0.0,0.0,0.0,0.0,0.0,0.0,0.0,0.0,0.0,0.0,0.0,0.0,0.0,0.0,0.0,0.0,0.0,0.0,0.0,0.0,0.0,0.0,0.0,0.0,0.0,0.0,0.0,0.0,0.0,0.0,0.0,0.0,0.0,0.0,0.0,0.0,0.0,0.0,0.0,0.0,0.0,0.0,0.0,0.0,0.0,0.0,0.0,0.0,0.0,0.0,0.0,0.0,0.0,0.0,0.0,0.0,0.0,0.0,0.0,0.0,0.0,0.0,0.0,0.0,0.0,0.0,0.0,0.0,0.0,0.0,0.0,0.0,0.0,0.0,0.0,0.0,0.0,0.0,0.0,0.0,0.0,0.0,0.0,0.0,0.0,0.0,0.0,0.0,0.0,0.0,0.0,0.0,0.0,0.0,0.0,0.0,0.0,0.0,0.0,0.0,0.0,0.0,0.0,0.0,0.0,0.0,0.0,0.0,0.0,0.0,0.0,0.0,0.0,0.0,0.0,0.0,0.0,0.0,0.0,0.0,0.0,0.0,0.0,0.0,0.0,0.0,0.0,0.0,0.0,0.0,0.0,0.0,0.0,0.0,0.0,0.0,0.0,0.0,0.0,0.0,0.0,0.0,0.0,0.0,0.0,0.0,0.0,0.0,0.0,0.0,0.0,0.0,0.0,0.0,0.0,0.0,0.0,0.0,0.0,0.0,0.0,0.0,0.0,0.0,0.0,0.0,0.0,0.0,0.0,0.0,0.0,0.0,0.0,0.0,0.0,0.0,0.0,0.0,0.0,0.0,0.0,0.0,0.0,0.0,0.0,0.0,0.0,0.0,0.0,0.0,0.0,0.0,0.0,0.0,0.0,0.0,0.0,0.0,0.0,0.0,0.0,0.0,0.0,0.0,0.0,0.0,0.0,0.0,0.0,0.0,0.0,0.0,0.0,0.0,0.0,0.0,0.0,0.0,0.0,0.0,0.0,0.0,0.0,0.0,0.0,0.0,0.0,0.0,0.0,0.0,0.0,0.0,0.0,0.0,0.0,0.0,0.0,0.0,0.0,0.0,0.0,0.0,0.0,0.0,0.0,0.0,0.0,0.0,0.0,0.0,0.0,0.0,0.0,0.0,0.0,0.0,0.0,0.0,0.0,0.0,0.0,0.0,0.0,0.0,0.0,0.0,0.0,0.0,0.0,0.0,0.0,0.0,0.0,0.0,0.0,0.0,0.0,0.0,0.0,0.0,0.0,0.0,0.0,0.0,0.0,0.0,0.0,0.0,0.0,0.0,0.0,0.0,0.0,0.0,0.0,0.0,0.0,0.0,0.0,0.0,0.0,0.0,0.0,0.0,0.0,0.0,0.0,0.0,0.0,0.0,0.0,0.0,0.0,0.0,0.0,0.0,0.0,0.0,0.0,0.0,0.0,0.0,0.0,0.0,0.0,0.0,0.0,0.0,0.0,0.0,0.0,0.0,0.0,0.0,0.0,0.0,0.0,0.0,0.0,0.0,0.0,0.0,0.0,0.0,0.0,0.0,0.0,0.0,0.0,0.0,0.0,0.0,0.0,0.0,0.0,0.0,0.0,0.0,0.0,0.0,0.0,0.0,0.0,0.0,0.0,0.0,0.0,0.0,0.0,0.0,0.0,0.0,0.0,0.0,0.0,0.0,0.0,0.0,0.0,0.0,0.0,0.0,0.0,0.0,0.0,0.0,0.0,0.0,0.0,0.0,0.0,0.0,0.0,0.0,0.0,0.0,0.0,0.0,0.0,0.0,0.0,0.0,0.0,0.0,0.0,0.0,0.0,0.0,0.0,0.0,0.0,0.0,0.0,0.0,0.0,0.0,0.0,0.0,0.0,0.0,0.0,0.0,0.0,0.0,0.0,0.0,0.0,0.0,0.0,0.0,0.0,0.0,0.0,0.0,0.0,0.0,0.0,0.0,0.0,0.0,0.0,0.0,0.0,0.0,0.0,0.0,0.0,0.0,0.0,0.0,0.0,0.0,0.0,0.0,0.0,0.0,0.0,0.0,0.0,0.0,0.0,0.0,0.0,0.0,0.0,0.0,0.0,0.0,0.0,0.0,0.0,0.0,0.0,0.0,0.0,0.0,0.0,0.0,0.0,0.0,0.0,0.0,0.0,0.0,0.0,0.0,0.0,0.0,0.0,0.0,0.0,0.0,0.0,0.0,0.0,0.0,0.0,0.0,0.0,0.0,0.0,0.0,0.0,0.0,0.0,0.0,0.0,0.0,0.0,0.0,0.0,0.0,0.0,0.0,0.0,0.0,0.0,0.0,0.0,0.0,0.0,0.0,0.0,0.0,0.0,0.0,0.0,0.0,0.0,0.0,0.0,0.0,0.0,0.0,0.0,0.0,0.0,0.0,0.0,0.0,0.0,0.0,0.0,0.0,0.0,0.0,0.0,0.0,0.0,0.0,0.0,0.0,0.0,0.0,0.0,0.0,0.0,0.0,0.0,0.0,0.0,0.0,0.0,0.0,0.0,0.0,0.0,0.0,0.0,0.0,0.0,0.0,0.0,0.0,0.0,0.0,0.0,0.0,0.0,0.0,0.0,0.0,0.0,0.0,0.0,0.0,0.0,0.0,0.0,0.0,0.0,0.0,0.0,0.0,0.0,0.0,0.0,0.0,0.0,0.0,0.0,0.0,0.0,0.0,0.0,0.0,0.0,0.0,0.0,0.0,0.0,0.0,0.0,0.0,0.0,-0.7139,0.0,0.0,0.0,0.0,0.0,0.0,0.0,0.0,0.0,0.0,0.0,0.0,0.0,0.0,0.0,0.0,0.0,0.0,0.0,0.0,0.0,0.0,0.0,0.0,0.0,0.0,0.0,0.0,0.0,0.0,0.0,0.0,0.0,0.0,0.0,0.0,0.0,0.0,0.0,0.0,0.0,0.0,0.0,0.0,0.0,0.0,0.0,0.0,0.0,0.0,0.0,0.0,0.0,0.0,0.0,0.0,0.0,0.0,0.0,0.0,0.0,0.0,0.0,0.0,0.0,0.0,0.0,0.0,0.0,0.0,0.0,0.0,0.0,0.0,0.0,0.0,0.0,0.0,0.0,0.0,0.0,0.0,0.0,0.0,0.0,0.0,0.0,0.0,0.0,0.0,0.0,0.0,0.0,0.0,0.0,0.0,0.0,0.0,0.0,0.0,0.0,0.0,0.0,0.0,0.0,0.0,0.0,0.0,0.0,0.0,-0.7139,-0.7139,-0.7139,-0.7139,-0.7139,0.0,0.0,0.0,0.0,0.0,0.0,0.0,0.0,0.0,0.0,0.0,0.0,0.0,0.0,0.0,0.0,0.0,0.0,0.0,0.0,0.0,0.0,0.0,0.0,0.0,0.0,0.0,0.0,0.0,0.0,0.0,0.0,0.0,0.0,0.0,0.0,0.0,0.0,0.0,0.0,0.0,0.0,0.0,0.0,0.0,0.0,0.0,0.0,0.0,0.0,0.0,0.0,0.0,0.0,0.0,0.0,0.0,0.0,0.0,0.0,0.0,0.0,0.0,0.0,0.0,0.0,0.0,0.0,0.0,0.0,0.0,0.0,0.0,0.0,0.0,0.0,0.0,0.0,0.0,0.0,0.0,0.0,0.0,0.0,0.0,0.0,0.0,0.0,0.0,0.0,0.0,0.0,0.0,0.0,0.0,0.0,0.0,0.0,0.0,0.0,0.0,0.0,0.0,0.0,0.0,0.0,0.0,0.0,0.0,0.0,0.0,0.0,-0.716,-0.7139,-0.7139,0.0,0.0,0.0,0.0,0.0,0.0,0.0,0.0,0.0,0.0,0.0,0.0,0.0,0.0,0.0,0.0,0.0,0.0,0.0,0.0,0.0,0.0,0.0,0.0,0.0,0.0,0.0,0.0,0.0,0.0,0.0,0.0,0.0,0.0,0.0,0.0,0.0,0.0,0.0,0.0,0.0,0.0,0.0,0.0,0.0,0.0,0.0,0.0,0.0,0.0,0.0,0.0,0.0,0.0,0.0,0.0,0.0,0.0,0.0,0.0,0.0,0.0,0.0,0.0,0.0,0.0,0.0,0.0,0.0,0.0,0.0,0.0,0.0,0.0,0.0,0.0,0.0,0.0,0.0,0.0,0.0,0.0,0.0,0.0,0.0,0.0,0.0,0.0,0.0,0.0,0.0,0.0,0.0,0.0,0.0,0.0,0.0,0.0,0.0,0.0,0.0,0.0,0.0,0.0,0.0,0.0,0.0,0.0,0.0,0.0,-0.7207,-0.7343,-0.721,0.0,-0.7139,0.0,0.0,0.0,0.0,0.0,0.0,0.0,0.0,0.0,0.0,0.0,0.0,0.0,0.0,0.0,0.0,0.0,0.0,0.0,0.0,0.0,0.0,0.0,0.0,0.0,0.0,0.0,0.0,0.0,0.0,0.0,0.0,0.0,0.0,0.0,0.0,0.0,0.0,0.0,0.0,0.0,0.0,0.0,0.0,0.0,0.0,0.0,0.0,0.0,0.0,0.0,0.0,0.0,0.0,0.0,0.0,0.0,0.0,0.0,0.0,0.0,0.0,0.0,0.0,0.0,0.0,0.0,0.0,0.0,0.0,0.0,0.0,0.0,0.0,0.0,0.0,0.0,0.0,0.0,0.0,0.0,0.0,0.0,0.0,0.0,0.0,0.0,0.0,0.0,0.0,0.0,0.0,0.0,0.0,0.0,0.0,0.0,0.0,0.0,0.0,0.0,0.0,0.0,0.0,0.0,0.0,0.0,0.0,0.0,0.0,-0.717,-0.7231,-0.7173,-0.7139,0.0,0.0,0.0,0.0,0.0,0.0,0.0,0.0,0.0,0.0,0.0,0.0,0.0,0.0,0.0,0.0,0.0,0.0,0.0,0.0,0.0,0.0,0.0,0.0,0.0,0.0,0.0,0.0,0.0,0.0,0.0,0.0,0.0,0.0,0.0,0.0,0.0,0.0,0.0,0.0,0.0,0.0,0.0,0.0,0.0,0.0,0.0,0.0,0.0,0.0,0.0,0.0,0.0,0.0,0.0,0.0,0.0,0.0,0.0,0.0,0.0,0.0,0.0,0.0,0.0,0.0,0.0,0.0,0.0,0.0,0.0,0.0,0.0,0.0,0.0,0.0,0.0,0.0,0.0,0.0,0.0,0.0,0.0,0.0,0.0,0.0,0.0,0.0,0.0,0.0,0.0,0.0,0.0,0.0,0.0,0.0,0.0,0.0,0.0,0.0,0.0,0.0,0.0,0.0,0.0,0.0,0.0,0.0,0.0,0.0,-0.7163,-0.7139,-0.7139,-0.7139,-0.7139,-0.7139,0.0,0.0,0.0,0.0,0.0,0.0,0.0,0.0,0.0,0.0,0.0,0.0,0.0,0.0,0.0,0.0,0.0,0.0,0.0,0.0,0.0,0.0,0.0,0.0,0.0,0.0,0.0,0.0,0.0,0.0,0.0,0.0,0.0,0.0,0.0,0.0,0.0,0.0,0.0,0.0,0.0,0.0,0.0,0.0,0.0,0.0,0.0,0.0,0.0,0.0,0.0,0.0,0.0,0.0,0.0,0.0,0.0,0.0,0.0,0.0,0.0,0.0,0.0,0.0,0.0,0.0,0.0,0.0,0.0,0.0,0.0,0.0,0.0,0.0,0.0,0.0,0.0,0.0,0.0,0.0,0.0,0.0,0.0,0.0,0.0,0.0,0.0,0.0,0.0,0.0,0.0,0.0,0.0,0.0,0.0,0.0,0.0,0.0,0.0,0.0,0.0,0.0,0.0,0.0,0.0,0.0,0.0,0.0,-0.7346,-0.7214,-0.7139,-0.7139,-0.7139,-0.7139,0.0,0.0,0.0,0.0,0.0,0.0,0.0,0.0,0.0,0.0,0.0,0.0,0.0,0.0,0.0,0.0,0.0,0.0,0.0,0.0,0.0,0.0,0.0,0.0,0.0,0.0,0.0,0.0,0.0,0.0,0.0,0.0,0.0,0.0,0.0,0.0,0.0,0.0,0.0,0.0,0.0,0.0,0.0,0.0,0.0,0.0,0.0,0.0,0.0,0.0,0.0,0.0,0.0,0.0,0.0,0.0,0.0,0.0,0.0,0.0,0.0,0.0,0.0,0.0,0.0,0.0,0.0,0.0,0.0,0.0,0.0,0.0,0.0,0.0,0.0,0.0,0.0,0.0,0.0,0.0,0.0,0.0,0.0,0.0,0.0,0.0,0.0,0.0,0.0,0.0,0.0,0.0,0.0,0.0,0.0,0.0,0.0,0.0,0.0,0.0,0.0,0.0,0.0,0.0,0.0,0.0,0.0,0.0,0.0,-0.7217,-0.7166,-0.7139,-0.7139,-0.7139,-0.7099,0.0,0.0,0.0,0.0,0.0,0.0,0.0,0.0,0.0,0.0,0.0,0.0,0.0,0.0,0.0,0.0,0.0,0.0,0.0,0.0,0.0,0.0,0.0,0.0,0.0,0.0,0.0,0.0,0.0,0.0,0.0,0.0,0.0,0.0,0.0,0.0,0.0,0.0,0.0,0.0,0.0,0.0,0.0,0.0,0.0,0.0,0.0,0.0,0.0,0.0,0.0,0.0,0.0,0.0,0.0,0.0,0.0,0.0,0.0,0.0,0.0,0.0,0.0,0.0,0.0,0.0,0.0,0.0,0.0,0.0,0.0,0.0,0.0,0.0,0.0,0.0,0.0,0.0,0.0,0.0,0.0,0.0,0.0,0.0,0.0,0.0,0.0,0.0,0.0,0.0,0.0,0.0,0.0,0.0,0.0,0.0,0.0,0.0,0.0,0.0,0.0,0.0,0.0,0.0,0.0,0.0,0.0,0.0,0.0,-0.7139,0.0,-0.7139,-0.7139,-0.7139,-0.7075,0.0,0.0,0.0,0.0,0.0,0.0,0.0,0.0,0.0,0.0,0.0,0.0,0.0,0.0,0.0,0.0,0.0,0.0,0.0,0.0,0.0,0.0,0.0,0.0,0.0,0.0,0.0,0.0,0.0,0.0,0.0,0.0,0.0,0.0,0.0,0.0,0.0,0.0,0.0,0.0,0.0,0.0,0.0,0.0,0.0,0.0,0.0,0.0,0.0,0.0,0.0,0.0,0.0,0.0,0.0,0.0,0.0,0.0,0.0,0.0,0.0,0.0,0.0,0.0,0.0,0.0,0.0,0.0,0.0,0.0,0.0,0.0,0.0,0.0,0.0,0.0,0.0,0.0,0.0,0.0,0.0,0.0,0.0,0.0,0.0,0.0,0.0,0.0,0.0,0.0,0.0,0.0,0.0,0.0,0.0,0.0,0.0,0.0,0.0,0.0,0.0,0.0,0.0,0.0,0.0,0.0,0.0,0.0,-0.7139,-0.7139,-0.7139,-0.7143,-0.7143,-0.7143,-0.7075,0.0,0.0,0.0,0.0,0.0,0.0,0.0,0.0,0.0,0.0,0.0,0.0,0.0,0.0,0.0,0.0,0.0,0.0,0.0,0.0,0.0,0.0,0.0,0.0,0.0,0.0,0.0,0.0,0.0,0.0,0.0,0.0,0.0,0.0,0.0,0.0,0.0,0.0,0.0,0.0,0.0,0.0,0.0,0.0,0.0,0.0,0.0,0.0,0.0,0.0,0.0,0.0,0.0,0.0,0.0,0.0,0.0,0.0,0.0,0.0,0.0,0.0,0.0,0.0,0.0,0.0,0.0,0.0,0.0,0.0,0.0,0.0,0.0,0.0,0.0,0.0,0.0,0.0,0.0,0.0,0.0,0.0,0.0,0.0,0.0,0.0,0.0,0.0,0.0,0.0,0.0,0.0,0.0,0.0,0.0,0.0,0.0,0.0,0.0,0.0,0.0,0.0,0.0,0.0,0.0,0.0,0.0,0.0,0.0,-0.7139,-0.7139,-0.7193,-0.7288,-0.7197,-0.7122,0.0,0.0,0.0,0.0,0.0,0.0,0.0,0.0,0.0,0.0,0.0,0.0,0.0,0.0,0.0,0.0,0.0,0.0,0.0,0.0,0.0,0.0,0.0,0.0,0.0,0.0,0.0,0.0,0.0,0.0,0.0,0.0,0.0,0.0,0.0,0.0,0.0,0.0,0.0,0.0,0.0,0.0,0.0,0.0,0.0,0.0,0.0,0.0,0.0,0.0,0.0,0.0,0.0,0.0,0.0,0.0,0.0,0.0,0.0,0.0,0.0,0.0,0.0,0.0,0.0,0.0,0.0,0.0,0.0,0.0,0.0,0.0,0.0,0.0,0.0,0.0,0.0,0.0,0.0,0.0,0.0,0.0,0.0,0.0,0.0,0.0,0.0,0.0,0.0,0.0,0.0,0.0,0.0,0.0,0.0,0.0,0.0,0.0,0.0,0.0,0.0,0.0,0.0,0.0,0.0,0.0,0.0,0.0,0.0,-0.7387,-0.739,-0.7438,-0.7533,-0.7438,-0.7285,-0.7065,0.0,0.0,0.0,0.0,0.0,0.0,0.0,0.0,0.0,0.0,0.0,0.0,0.0,0.0,0.0,0.0,0.0,0.0,0.0,0.0,0.0,0.0,0.0,0.0,0.0,0.0,0.0,0.0,0.0,0.0,0.0,0.0,0.0,0.0,0.0,0.0,0.0,0.0,0.0,0.0,0.0,0.0,0.0,0.0,0.0,0.0,0.0,0.0,0.0,0.0,0.0,0.0,0.0,0.0,0.0,0.0,0.0,0.0,0.0,0.0,0.0,0.0,0.0,0.0,0.0,0.0,0.0,0.0,0.0,0.0,0.0,0.0,0.0,0.0,0.0,0.0,0.0,0.0,0.0,0.0,0.0,0.0,0.0,0.0,0.0,0.0,0.0,0.0,0.0,0.0,0.0,0.0,0.0,0.0,0.0,0.0,0.0,0.0,0.0,0.0,0.0,0.0,0.0,0.0,0.0,0.0,0.0,0.0,-0.7848,-0.7872,-0.7882,-0.7865,-0.7824,-0.7553,0.0,0.0,0.0,0.0,0.0,0.0,0.0,0.0,0.0,0.0,0.0,0.0,0.0,0.0,0.0,0.0,0.0,0.0,0.0,0.0,0.0,0.0,0.0,0.0,0.0,0.0,0.0,0.0,0.0,0.0,0.0,0.0,0.0,0.0,0.0,0.0,0.0,0.0,0.0,0.0,0.0,0.0,0.0,0.0,0.0,0.0,0.0,0.0,0.0,0.0,0.0,0.0,0.0,0.0,0.0,0.0,0.0,0.0,0.0,0.0,0.0,0.0,0.0,0.0,0.0,0.0,0.0,0.0,0.0,0.0,0.0,0.0,0.0,0.0,0.0,0.0,0.0,0.0,0.0,0.0,0.0,0.0,0.0,0.0,0.0,0.0,0.0,0.0,0.0,0.0,0.0,0.0,0.0,0.0,0.0,0.0,0.0,0.0,0.0,0.0,0.0,0.0,0.0,0.0,0.0,0.0,0.0,0.0,0.0,-0.8299,-0.8628,-0.8696,-0.8472,-0.8041,-0.779,0.0,0.0,0.0,0.0,0.0,0.0,0.0,0.0,0.0,0.0,0.0,0.0,0.0,0.0,0.0,0.0,0.0,0.0,0.0,0.0,0.0,0.0,0.0,0.0,0.0,0.0,0.0,0.0,0.0,0.0,0.0,0.0,0.0,0.0,0.0,0.0,0.0,0.0,0.0,0.0,0.0,0.0,0.0,0.0,0.0,0.0,0.0,0.0,0.0,0.0,0.0,0.0,0.0,0.0,0.0,0.0,0.0,0.0,0.0,0.0,0.0,0.0,0.0,0.0,0.0,0.0,0.0,0.0,0.0,0.0,0.0,0.0,0.0,0.0,0.0,0.0,0.0,0.0,0.0,0.0,0.0,0.0,0.0,0.0,0.0,0.0,0.0,0.0,0.0,0.0,0.0,0.0,0.0,0.0,0.0,0.0,0.0,0.0,0.0,0.0,0.0,0.0,0.0,0.0,0.0,0.0,0.0,0.0,-0.8096,-0.8479,-0.8984,-0.9225,-0.9178,-0.8537,-0.8109,0.0,0.0,0.0,0.0,0.0,0.0,0.0,0.0,0.0,0.0,0.0,0.0,0.0,0.0,0.0,0.0,0.0,0.0,0.0,0.0,0.0,0.0,0.0,0.0,0.0,0.0,0.0,0.0,0.0,0.0,0.0,0.0,0.0,0.0,0.0,0.0,0.0,0.0,0.0,0.0,0.0,0.0,0.0,0.0,0.0,0.0,0.0,0.0,0.0,0.0,0.0,0.0,0.0,0.0,0.0,0.0,0.0,0.0,0.0,0.0,0.0,0.0,0.0,0.0,0.0,0.0,0.0,0.0,0.0,0.0,0.0,0.0,0.0,0.0,0.0,0.0,0.0,0.0,0.0,0.0,0.0,0.0,0.0,0.0,0.0,0.0,0.0,0.0,0.0,0.0,0.0,0.0,0.0,0.0,0.0,0.0,0.0,0.0,0.0,0.0,0.0,0.0,0.0,0.0,0.0,0.0,0.0,0.0,-0.8214,-0.853,-0.9103,-0.953,-0.9761,-0.9079,-0.8435,0.0,0.0,0.0,0.0,0.0,0.0,0.0,0.0,0.0,0.0,0.0,0.0,0.0,0.0,0.0,0.0,0.0,0.0,0.0,0.0,0.0,0.0,0.0,0.0,0.0,0.0,0.0,0.0,0.0,0.0,0.0,0.0,0.0,0.0,0.0,0.0,0.0,0.0,0.0,0.0,0.0,0.0,0.0,0.0,0.0,0.0,0.0,0.0,0.0,0.0,0.0,0.0,0.0,0.0,0.0,0.0,0.0,0.0,0.0,0.0,0.0,0.0,0.0,0.0,0.0,0.0,0.0,0.0,0.0,0.0,0.0,0.0,0.0,0.0,0.0,0.0,0.0,0.0,0.0,0.0,0.0,0.0,0.0,0.0,0.0,0.0,0.0,0.0,0.0,0.0,0.0,0.0,0.0,0.0,0.0,0.0,0.0,0.0,0.0,0.0,0.0,0.0,0.0,0.0,0.0,0.0,0.0,0.0,-0.8425,-0.8835,-0.9313,-0.9591,-0.9649,-0.8927,-0.8469,0.0,0.0,0.0,0.0,0.0,0.0,0.0,0.0,0.0,0.0,0.0,0.0,0.0,0.0,0.0,0.0,0.0,0.0,0.0,0.0,0.0,0.0,0.0,0.0,0.0,0.0,0.0,0.0,0.0,0.0,0.0,0.0,0.0,0.0,0.0,0.0,0.0,0.0,0.0,0.0,0.0,0.0,0.0,0.0,0.0,0.0,0.0,0.0,-0.7561,0.0,0.0,0.0,0.0,0.0,0.0,0.0,0.0,0.0,0.0,0.0,0.0,0.0,0.0,0.0,0.0,0.0,0.0,0.0,0.0,0.0,0.0,0.0,0.0,0.0,0.0,0.0,0.0,0.0,0.0,0.0,0.0,0.0,0.0,0.0,0.0,0.0,0.0,0.0,0.0,0.0,0.0,0.0,0.0,0.0,0.0,0.0,0.0,0.0,0.0,0.0,0.0,0.0,0.0,0.0,0.0,0.0,0.0,0.0,-0.8414,-0.8927,-0.9306,-0.9568,-0.968,-0.9117,-0.8696,0.0,0.0,0.0,0.0,0.0,0.0,0.0,0.0,0.0,0.0,0.0,0.0,0.0,0.0,0.0,0.0,0.0,0.0,0.0,0.0,0.0,0.0,0.0,0.0,0.0,0.0,0.0,0.0,0.0,0.0,0.0,0.0,0.0,0.0,0.0,0.0,0.0,0.0,0.0,0.0,0.0,0.0,0.0,0.0,0.0,0.0,0.0,0.0,0.0,0.0,0.0,0.0,0.0,0.0,0.0,0.0,0.0,0.0,0.0,0.0,0.0,0.0,0.0,0.0,0.0,0.0,0.0,0.0,0.0,0.0,0.0,0.0,0.0,0.0,0.0,0.0,0.0,0.0,0.0,0.0,0.0,0.0,0.0,0.0,0.0,0.0,0.0,0.0,0.0,0.0,0.0,0.0,0.0,0.0,0.0,0.0,0.0,0.0,0.0,0.0,0.0,0.0,0.0,0.0,0.0,0.0,0.0,-0.7756,-0.8319,-0.895,-0.9215,-0.9466,-0.9703,-0.933,-0.8899,-0.8431,0.0,0.0,0.0,0.0,0.0,0.0,0.0,0.0,0.0,0.0,0.0,0.0,0.0,0.0,0.0,0.0,0.0,0.0,0.0,0.0,0.0,0.0,0.0,0.0,0.0,0.0,0.0,0.0,0.0,0.0,0.0,0.0,0.0,0.0,0.0,0.0,0.0,0.0,-0.8054,-0.8255,0.0,0.0,0.0,0.0,0.0,0.0,0.0,0.0,-0.7826,0.0,0.0,0.0,0.0,0.0,0.0,0.0,0.0,0.0,0.0,0.0,0.0,0.0,0.0,0.0,0.0,0.0,0.0,0.0,0.0,0.0,0.0,0.0,0.0,0.0,0.0,0.0,0.0,0.0,0.0,0.0,0.0,0.0,0.0,0.0,0.0,0.0,0.0,0.0,0.0,0.0,0.0,0.0,0.0,0.0,0.0,0.0,0.0,0.0,0.0,0.0,0.0,0.0,0.0,0.0,0.0,-0.7875,-0.7865,-0.8262,-0.9093,-0.9164,-0.9215,-0.9256,-0.9076,-0.8703,-0.814,0.0,0.0,0.0,0.0,0.0,0.0,0.0,0.0,0.0,0.0,0.0,0.0,0.0,0.0,0.0,0.0,0.0,0.0,0.0,0.0,0.0,0.0,0.0,0.0,0.0,0.0,0.0,0.0,0.0,0.0,0.0,0.0,0.0,0.0,0.0,0.0,0.0,0.0,0.0,-0.8611,-0.8748,0.0,0.0,0.0,0.0,0.0,0.0,0.0,0.0,-0.7794,0.0,0.0,0.0,0.0,0.0,0.0,0.0,0.0,0.0,0.0,0.0,0.0,0.0,0.0,0.0,0.0,0.0,0.0,0.0,0.0,0.0,0.0,0.0,0.0,0.0,0.0,0.0,0.0,0.0,0.0,0.0,0.0,0.0,0.0,0.0,0.0,0.0,0.0,0.0,0.0,0.0,0.0,0.0,0.0,0.0,0.0,0.0,0.0,0.0,0.0,0.0,0.0,0.0,0.0,0.0,-0.7784,-0.8038,-0.8482,-0.9127,-0.9154,-0.9191,-0.9259,-0.8981,-0.8574,0.0,0.0,0.0,0.0,0.0,0.0,0.0,0.0,0.0,0.0,0.0,0.0,0.0,0.0,0.0,0.0,0.0,0.0,0.0,0.0,0.0,0.0,0.0,0.0,0.0,0.0,0.0,0.0,0.0,0.0,0.0,0.0,0.0,0.0,0.0,0.0,0.0,0.0,0.0,0.0,-0.8698,-0.8747,-0.8841,0.0,0.0,0.0,0.0,0.0,0.0,-0.8049,-0.7952,0.0,0.0,0.0,0.0,0.0,0.0,0.0,0.0,0.0,0.0,0.0,0.0,0.0,0.0,0.0,0.0,0.0,0.0,0.0,0.0,0.0,0.0,0.0,0.0,0.0,0.0,0.0,0.0,0.0,0.0,0.0,0.0,0.0,0.0,0.0,0.0,0.0,0.0,0.0,0.0,0.0,0.0,0.0,0.0,0.0,0.0,0.0,0.0,0.0,0.0,0.0,0.0,0.0,0.0,0.0,-0.7607,-0.8153,-0.8655,-0.9086,-0.911,-0.9167,-0.9279,-0.8825,-0.8377,0.0,0.0,0.0,0.0,0.0,0.0,0.0,0.0,0.0,0.0,0.0,0.0,0.0,0.0,0.0,0.0,0.0,0.0,0.0,0.0,0.0,0.0,0.0,0.0,0.0,0.0,0.0,0.0,0.0,0.0,0.0,0.0,0.0,0.0,0.0,0.0,0.0,0.0,0.0,0.0,0.0,-0.8842,-0.8916,-0.866,0.0,0.0,0.0,0.0,-0.7928,-0.8146,0.0,0.0,0.0,0.0,0.0,0.0,0.0,0.0,0.0,0.0,0.0,0.0,0.0,0.0,0.0,0.0,0.0,0.0,0.0,0.0,0.0,0.0,0.0,0.0,0.0,0.0,0.0,0.0,0.0,0.0,0.0,0.0,0.0,0.0,0.0,0.0,0.0,0.0,0.0,0.0,0.0,0.0,0.0,0.0,0.0,0.0,0.0,0.0,0.0,0.0,0.0,0.0,0.0,0.0,0.0,0.0,-0.7597,-0.8058,-0.8513,-0.8937,-0.8964,-0.8971,-0.8981,-0.8425,-0.797,0.0,0.0,0.0,0.0,0.0,0.0,0.0,0.0,0.0,0.0,0.0,0.0,0.0,0.0,0.0,0.0,0.0,0.0,0.0,0.0,0.0,0.0,0.0,0.0,0.0,0.0,0.0,0.0,0.0,0.0,0.0,0.0,0.0,0.0,0.0,0.0,0.0,0.0,0.0,0.0,0.0,-0.9234,-0.9419,-0.9039,-0.8674,0.0,0.0,-0.8911,-0.8959,-0.8814,0.0,0.0,0.0,0.0,0.0,0.0,0.0,0.0,0.0,0.0,0.0,0.0,0.0,0.0,0.0,0.0,0.0,0.0,0.0,0.0,0.0,0.0,0.0,0.0,0.0,0.0,0.0,0.0,0.0,0.0,0.0,0.0,0.0,0.0,0.0,0.0,0.0,0.0,0.0,0.0,0.0,0.0,0.0,0.0,0.0,0.0,0.0,0.0,0.0,0.0,0.0,0.0,0.0,0.0,0.0,-0.7413,-0.7806,-0.8398,-0.8747,-0.893,-0.8937,-0.8937,-0.8937,-0.8194,-0.7729,0.0,0.0,0.0,0.0,0.0,0.0,0.0,0.0,0.0,0.0,0.0,0.0,0.0,0.0,0.0,0.0,0.0,0.0,0.0,0.0,0.0,0.0,0.0,0.0,0.0,0.0,0.0,0.0,0.0,0.0,0.0,0.0,0.0,0.0,0.0,0.0,0.0,0.0,0.0,0.0,0.0,0.0,-0.9226,-0.9071,0.0,0.0,0.0,-0.8923,-0.8675,0.0,0.0,0.0,0.0,0.0,0.0,0.0,0.0,0.0,0.0,0.0,0.0,0.0,0.0,0.0,0.0,0.0,0.0,0.0,0.0,0.0,0.0,0.0,0.0,0.0,0.0,0.0,0.0,0.0,0.0,0.0,0.0,0.0,0.0,0.0,0.0,0.0,0.0,0.0,0.0,0.0,0.0,0.0,0.0,0.0,0.0,0.0,0.0,0.0,0.0,0.0,0.0,0.0,0.0,0.0,0.0,0.0,-0.8001,-0.8594,-0.8937,-0.8937,-0.8937,-0.8937,-0.8923,-0.8211,0.0,0.0,0.0,0.0,0.0,0.0,0.0,0.0,0.0,0.0,0.0,0.0,0.0,0.0,0.0,0.0,0.0,0.0,0.0,0.0,0.0,0.0,0.0,0.0,0.0,0.0,0.0,-0.7717,0.0,0.0,0.0,0.0,0.0,0.0,0.0,0.0,0.0,0.0,0.0,0.0,0.0,0.0,-0.9221,-0.9119,-0.9169,-0.9117,0.0,0.0,-0.9036,-0.8676,-0.8893,-0.8889,0.0,0.0,0.0,0.0,0.0,0.0,0.0,0.0,0.0,0.0,0.0,0.0,0.0,0.0,0.0,0.0,0.0,0.0,0.0,0.0,0.0,0.0,0.0,0.0,0.0,0.0,0.0,0.0,0.0,0.0,0.0,0.0,0.0,0.0,0.0,0.0,0.0,0.0,0.0,0.0,0.0,0.0,0.0,0.0,0.0,0.0,0.0,0.0,0.0,0.0,0.0,0.0,0.0,0.0,-0.7636,-0.8012,-0.8591,-0.8937,-0.8937,-0.8937,-0.8937,-0.8933,-0.8604,-0.816,0.0,0.0,0.0,0.0,0.0,0.0,0.0,0.0,0.0,0.0,0.0,0.0,0.0,0.0,0.0,0.0,0.0,0.0,0.0,0.0,0.0,0.0,0.0,0.0,0.0,0.0,0.0,0.0,0.0,0.0,0.0,0.0,0.0,0.0,0.0,0.0,0.0,0.0,0.0,0.0,0.0,-0.9348,-0.9133,-0.9156,-0.9353,0.0,-0.9325,-0.9339,-0.938,-0.9554,-0.9462,-0.8577,0.0,0.0,0.0,0.0,0.0,0.0,0.0,0.0,0.0,0.0,0.0,0.0,0.0,0.0,0.0,0.0,0.0,0.0,0.0,0.0,0.0,0.0,0.0,0.0,0.0,0.0,0.0,0.0,0.0,0.0,0.0,0.0,0.0,0.0,0.0,0.0,0.0,0.0,0.0,0.0,0.0,0.0,0.0,0.0,0.0,0.0,0.0,0.0,0.0,0.0,0.0,0.0,0.0,-0.7633,-0.8581,-0.8808,-0.8937,-0.8937,-0.8937,-0.8937,-0.8937,-0.8557,-0.8113,0.0,0.0,0.0,0.0,0.0,0.0,0.0,0.0,0.0,0.0,0.0,0.0,0.0,0.0,0.0,0.0,0.0,0.0,0.0,0.0,0.0,0.0,0.0,0.0,0.0,0.0,0.0,0.0,-0.902,-0.8685,-0.8341,0.0,0.0,0.0,0.0,0.0,0.0,0.0,0.0,0.0,0.0,-0.914,-0.9514,-1.0179,0.0,0.0,-1.1297,-1.1483,-1.0712,-1.0482,-1.0162,-0.9357,-0.8567,0.0,0.0,0.0,0.0,0.0,0.0,0.0,0.0,0.0,0.0,0.0,0.0,0.0,0.0,0.0,0.0,0.0,0.0,0.0,0.0,0.0,0.0,0.0,0.0,0.0,0.0,0.0,0.0,0.0,0.0,0.0,0.0,0.0,0.0,0.0,0.0,0.0,0.0,0.0,0.0,0.0,0.0,0.0,0.0,0.0,0.0,0.0,0.0,0.0,0.0,0.0,0.0,-0.7663,-0.8867,-0.8916,-0.8937,-0.8937,-0.8937,-0.8937,-0.893,-0.8632,-0.8262,0.0,0.0,0.0,0.0,0.0,0.0,0.0,0.0,0.0,0.0,0.0,0.0,0.0,0.0,0.0,0.0,0.0,0.0,0.0,0.0,0.0,0.0,0.0,0.0,0.0,0.0,0.0,0.0,-0.9349,-0.8739,-0.8191,0.0,0.0,0.0,0.0,0.0,0.0,0.0,0.0,0.0,0.0,-0.9977,-1.0376,-1.1515,-1.2281,-1.2186,-1.2833,-1.299,-1.2008,-1.174,-1.1349,-1.054,0.0,0.0,0.0,0.0,0.0,0.0,0.0,0.0,0.0,0.0,0.0,0.0,0.0,0.0,0.0,0.0,0.0,0.0,0.0,0.0,0.0,0.0,0.0,0.0,0.0,0.0,0.0,-0.5658,0.0,0.0,-0.6482,0.0,0.0,0.0,0.0,0.0,0.0,0.0,0.0,0.0,0.0,0.0,0.0,0.0,0.0,0.0,0.0,0.0,0.0,0.0,0.0,0.0,0.0,-0.767,-0.8875,-0.892,-0.8937,-0.8937,-0.8937,-0.8937,-0.8937,-0.8927,-0.871,-0.8252,0.0,0.0,0.0,0.0,0.0,0.0,0.0,0.0,0.0,0.0,0.0,0.0,0.0,0.0,0.0,0.0,0.0,0.0,0.0,0.0,0.0,0.0,0.0,0.0,0.0,0.0,-0.9653,-0.8631,-0.7988,0.0,0.0,0.0,0.0,0.0,0.0,0.0,0.0,0.0,-0.9032,-1.0729,-1.1937,-1.1823,-1.3012,-1.3823,-1.371,-1.3633,-1.3492,-1.328,-1.3199,-1.2952,0.0,0.0,0.0,0.0,0.0,0.0,0.0,0.0,0.0,0.0,0.0,0.0,0.0,0.0,0.0,0.0,0.0,0.0,0.0,0.0,0.0,0.0,0.0,0.0,0.0,0.0,0.0,-0.6524,-0.7007,0.0,0.0,0.0,0.0,0.0,0.0,0.0,0.0,0.0,0.0,0.0,-0.767,-0.7444,0.0,0.0,0.0,0.0,0.0,0.0,0.0,0.0,0.0,0.0,0.0,0.0,-0.7865,-0.8804,-0.8916,-0.8937,-0.8937,-0.8937,-0.8937,-0.8937,-0.8937,-0.8682,-0.813,0.0,0.0,0.0,0.0,0.0,0.0,0.0,0.0,0.0,0.0,0.0,0.0,0.0,0.0,0.0,0.0,0.0,0.0,0.0,0.0,0.0,0.0,0.0,0.0,0.0,-0.9802,0.0,0.0,0.0,0.0,0.0,0.0,0.0,0.0,0.0,0.0,0.0,-0.9119,-1.0309,-1.0962,-1.175,-1.2644,-1.4132,-1.5015,0.0,0.0,0.0,0.0,0.0,0.0,0.0,0.0,0.0,0.0,0.0,0.0,0.0,0.0,-0.8414,-0.7726,-0.7516,-0.7448,-0.7448,0.0,0.0,0.0,0.0,0.0,0.0,0.0,0.0,0.0,0.0,0.0,0.0,0.0,0.0,-0.7076,0.0,-0.7781,0.0,0.0,0.0,0.0,0.0,0.0,0.0,0.0,-0.7618,-0.7801,-0.8132,-0.7931,-0.7831,0.0,-0.7621,-0.7146,0.0,0.0,0.0,0.0,0.0,0.0,0.0,0.0,-0.7919,-0.8898,-0.8916,-0.8937,-0.8937,-0.8937,-0.8937,-0.8937,-0.8937,-0.8757,-0.8364,-0.7923,-0.7526,0.0,0.0,0.0,0.0,0.0,0.0,0.0,0.0,0.0,0.0,0.0,0.0,0.0,0.0,0.0,0.0,0.0,0.0,0.0,0.0,0.0,0.0,0.0,-0.9922,0.0,0.0,0.0,0.0,0.0,0.0,0.0,0.0,0.0,-0.8816,-0.8949,-0.9772,-1.1309,-1.203,-1.2797,-1.4088,0.0,0.0,0.0,0.0,0.0,0.0,0.0,-1.4956,-1.4516,-1.3653,-1.2786,-1.1995,-1.1082,-1.0366,-1.0186,0.0,0.0,-0.8367,-0.8014,-0.7906,-0.7909,-0.8021,-0.8133,-0.8184,-0.8387,-0.8577,0.0,0.0,0.0,0.0,0.0,0.0,0.0,0.0,-0.7695,-0.7458,0.0,-0.8151,0.0,0.0,0.0,0.0,0.0,-0.9483,0.0,0.0,-0.8455,-0.8676,-0.8286,-0.8272,-0.8275,-0.8265,-0.7987,-0.7773,-0.7624,-0.7343,0.0,0.0,0.0,0.0,0.0,0.0,-0.7933,-0.8827,-0.893,-0.8937,-0.8937,-0.8937,-0.8937,-0.8937,-0.8937,-0.8933,-0.8916,-0.8513,-0.8214,-0.8038,-0.7214,0.0,0.0,0.0,0.0,0.0,0.0,0.0,0.0,0.0,0.0,0.0,0.0,0.0,0.0,0.0,0.0,0.0,0.0,0.0,0.0,-1.0376,0.0,0.0,0.0,0.0,0.0,0.0,0.0,0.0,0.0,0.0,-0.9013,-0.9563,-1.0531,-1.2063,0.0,0.0,0.0,0.0,-1.827,-1.7722,-1.7609,-1.743,-1.6873,-1.6932,-1.685,-1.6392,0.0,0.0,-1.3173,-1.299,-1.296,-1.2486,-1.1731,-1.0727,-0.9479,-0.8872,-0.8496,-0.8492,-0.8414,-0.837,-0.8496,-0.8693,-0.8716,-0.7499,0.0,0.0,0.0,0.0,-0.7411,-0.8063,-0.9073,-0.9069,-0.9647,-1.0697,-1.0969,0.0,0.0,0.0,0.0,0.0,0.0,-0.9745,-0.9647,-0.8605,-0.8235,-0.8418,-0.8421,-0.8476,-0.8577,-0.8496,-0.8489,-0.855,-0.8465,-0.7818,-0.6651,0.0,0.0,0.0,0.0,-0.8006,-0.8814,-0.8869,-0.8937,-0.8937,-0.8937,-0.8937,-0.8937,-0.8937,-0.8937,-0.8937,-0.8815,-0.8577,-0.8218,-0.8333,0.0,0.0,0.0,0.0,0.0,0.0,0.0,0.0,0.0,0.0,0.0,0.0,0.0,0.0,0.0,0.0,0.0,0.0,0.0,-1.1502,-1.115,-1.0564,0.0,0.0,0.0,0.0,0.0,0.0,0.0,0.0,0.0,-1.1061,-1.1263,-1.1813,0.0,0.0,-1.5698,-1.6761,-1.7609,-1.8054,-1.7882,-1.767,0.0,-1.7616,-1.7328,-1.7104,-1.6998,-1.5942,-1.4954,-1.4598,-1.3879,-1.3206,-1.3131,-1.2514,-1.1768,-1.0748,-0.9597,-0.8855,-0.8933,-0.9011,-0.911,-0.9256,-0.9401,-0.9389,-0.8024,-0.8017,-0.8027,-0.7887,-0.7678,-0.8153,-0.8848,-0.9819,-0.9819,-1.052,-1.1731,-1.1895,-1.2061,-1.2272,-1.2528,0.0,0.0,0.0,-1.0905,-1.0932,-0.9458,-0.886,-0.9188,-0.8782,-0.8652,-0.8798,-0.8801,-0.8849,-0.8937,-0.876,-0.8221,-0.7346,0.0,0.0,-0.6084,-0.7211,-0.8202,-0.8911,-0.8932,-0.8937,-0.8937,-0.8937,-0.8937,-0.8937,-0.8937,-0.8937,-0.8937,-0.8937,-0.8815,-0.8547,-0.8678,-0.8616,0.0,0.0,0.0,0.0,0.0,0.0,0.0,0.0,0.0,0.0,0.0,-0.9733,-1.0236,0.0,0.0,0.0,-1.2418,-1.2298,-1.1872,-1.1655,0.0,0.0,0.0,0.0,0.0,0.0,0.0,-0.9161,-0.9951,-1.0999,-1.1997,-1.2858,-1.3739,-1.4804,-1.5618,-1.6486,-1.7569,0.0,-1.8287,-1.8249,-1.8033,-1.7875,-1.7811,-1.7764,-1.7595,-1.7541,-1.6904,-1.6303,-1.607,-1.5481,-1.4977,-1.475,-1.4178,-1.3443,-1.2803,-1.1594,-1.025,-0.945,-0.9317,-0.9429,-0.9578,-1.0032,-1.0343,-0.8549,-0.8577,-0.885,-0.8559,-0.8143,-0.9111,-0.9871,-1.0315,-1.0319,-1.0728,-1.1316,-1.1678,-1.1778,-1.1788,-1.248,0.0,-1.2404,-1.2309,-1.2058,-1.163,-1.0707,-1.0293,-1.0363,-0.9304,-0.8869,-0.9027,-0.892,-0.8927,-0.8916,-0.8526,-0.8313,-0.8289,-0.8286,-0.7646,-0.6481,-0.7598,-0.8445,-0.8805,-0.8894,-0.8903,-0.8937,-0.8937,-0.8937,-0.8937,-0.8937,-0.8937,-0.8937,-0.9047,-0.9047,-0.9034,-0.8751,-0.8849,-0.9312,0.0,0.0,0.0,0.0,0.0,0.0,0.0,0.0,0.0,0.0,0.0,0.0,0.0,0.0,-1.3452,-1.3153,0.0,-1.1936,-1.2318,0.0,0.0,0.0,-1.2115,-1.0929,-1.0929,-1.0701,-1.0247,0.0,0.0,-1.2408,-1.4356,-1.5907,-1.6833,-1.7005,-1.7321,-1.838,-1.8711,-1.8824,-1.8577,-1.8551,-1.8348,-1.7978,-1.8107,-1.8313,-1.81,-1.8083,-1.783,-1.7461,-1.7313,-1.734,-1.702,-1.6126,-1.5237,-1.5037,-1.3967,-1.2602,-1.0342,-0.9873,-0.9796,-0.9954,-1.0821,-1.1458,-0.8643,-0.9414,-1.0228,-1.0168,-0.9642,-1.0654,-1.1562,-1.2269,-1.2269,-1.2777,-1.3532,-1.3614,-1.368,-1.3631,-1.3824,-1.3832,-1.3814,-1.2934,-1.2538,-1.2397,-1.1415,-1.1029,-1.1212,-1.0104,-0.9867,-1.0377,-0.9305,-0.8825,-0.893,-0.8832,-0.8662,-0.8442,-0.8431,-0.7945,-0.6948,-0.7508,-0.7926,-0.8163,-0.8374,-0.8598,-0.8923,-0.8937,-0.8937,-0.8937,-0.8937,-0.8937,-0.8937,-0.9809,-1.0237,-1.0347,-1.0987,-1.1326,-1.1125,-1.0847,0.0,0.0,0.0,0.0,0.0,0.0,0.0,0.0,0.0,-0.9816,-1.0648,0.0,-1.3059,0.0,-1.3432,-1.4254,-1.5093,-1.4473,0.0,0.0,-1.4185,-1.413,-1.271,-1.3358,-1.3563,-1.2594,-1.2997,-1.3849,-1.4993,-1.5565,-1.651,-1.811,-1.7981,-1.7895,-1.845,-1.8744,-1.8905,-1.8851,-1.8764,-1.8794,-1.8915,-1.8853,-1.8796,-1.8758,-1.8311,-1.7972,-1.7849,-1.7432,-1.7159,-1.7086,-1.669,-1.6051,-1.5347,-1.4903,-1.4275,-1.299,-1.2565,-1.2169,-1.1411,-1.2282,-1.2888,-0.9019,-0.9702,-1.1268,-1.1599,-1.1309,-1.1913,-1.2348,-1.2838,-1.2838,-1.3447,-1.4298,-1.4298,-1.4298,-1.431,-1.4431,-1.4485,-1.4394,-1.3999,-1.3754,-1.365,-1.2757,-1.237,-1.2577,-1.1447,-1.0985,-1.1143,-1.0089,-0.9377,-0.8893,-0.8923,-0.8958,-0.8901,-0.8828,-0.8453,-0.7805,-0.7756,-0.7717,-0.7753,-0.8096,-0.8489,-0.8916,-0.8937,-0.8845,-0.8652,-0.8959,-0.9068,-0.8862,-0.9863,-1.037,-1.037,-1.0977,-1.1234,-1.0983,-1.091,-1.0721,0.0,0.0,0.0,0.0,0.0,0.0,0.0,0.0,0.0,0.0,0.0,-1.4246,-1.3522,-1.4615,-1.5482,-1.5836,-1.5416,-1.4971,-1.4516,-1.4908,-1.4759,-1.3623,-1.4207,-1.4325,-1.3675,-1.4316,-1.5111,-1.6,-1.6474,-1.7212,-1.8506,-1.845,-1.8397,-1.8798,-1.9025,-1.9125,-1.9132,-1.9137,-1.912,-1.9366,-1.912,-1.8874,-1.8874,-1.8648,-1.8311,-1.8194,-1.7842,-1.7505,-1.7493,-1.7268,-1.6857,-1.6297,-1.6204,-1.5904,-1.4914,-1.4878,-1.4488,-1.3044,-1.366,-1.4262,-0.9743,-1.0036,-1.1863,-1.2845,-1.2969,-1.2942,-1.2926,-1.2926,-1.2926,-1.3414,-1.4298,-1.4298,-1.4298,-1.4316,-1.4594,-1.4714,-1.4733,-1.4992,-1.5113,-1.5005,-1.4174,-1.3887,-1.4002,-1.2946,-1.2283,-1.1896,-1.108,-1.0202,-0.9061,-0.9016,-0.9127,-0.9395,-0.9147,-0.892,-0.8718,-0.8122,-0.7684,-0.7392,-0.8002,-0.8469,-0.8866,-0.8821,-0.8608,-0.8438,-0.9116,-0.9292,-0.9019,-0.9731,-1.02,-1.032,-1.0389,-1.0515,-1.0693,-1.0621,-1.0651,0.0,-1.0714,0.0,0.0,0.0,0.0,0.0,0.0,0.0,0.0,-1.446,-1.4892,-1.4743,-1.5939,-1.6426,-1.5738,-1.5905,-1.5862,-1.5417,-1.5407,-1.5201,-1.4669,-1.4645,-1.4661,-1.4661,-1.5636,-1.6276,-1.6593,-1.73,-1.7923,-1.847,-1.8571,-1.8731,-1.9232,-1.9339,-1.9345,-1.9366,-1.9366,-1.9488,-1.9713,-1.9352,-1.9107,-1.9339,-1.9107,-1.8991,-1.91,-1.8415,-1.8077,-1.8188,-1.7929,-1.7584,-1.7602,-1.7473,-1.7114,-1.6048,-1.6632,-1.6509,-1.4614,-1.4976,-1.5332,-1.0327,-1.1302,-1.2319,-1.3344,-1.4317,-1.4093,-1.4004,-1.4004,-1.4004,-1.41,-1.4298,-1.4298,-1.4298,-1.4322,-1.4594,-1.4714,-1.4727,-1.4992,-1.5113,-1.5113,-1.4898,-1.5035,-1.5383,-1.4322,-1.4245,-1.4809,-1.2309,-1.053,-0.961,-0.9457,-0.9291,-0.9124,-0.908,-0.9011,-0.8694,0.0,0.0,0.0,-0.8055,-0.8367,-0.8547,-0.8211,-0.8276,-0.8867,-0.8956,0.0,-0.9749,-1.0833,-1.1559,-1.1822,-1.2417,0.0,0.0,0.0,0.0,0.0,0.0,0.0,0.0,0.0,0.0,0.0,-1.4084,-1.4138,-1.4274,-1.4777,-1.5345,-1.5905,-1.6315,-1.6632,-1.7141,-1.7221,-1.7184,-1.7088,-1.7318,-1.7401,-1.7302,-1.7502,-1.7644,-1.7644,-1.787,-1.7994,-1.8039,-1.824,-1.8444,-1.8758,-1.8844,-1.8985,-1.9305,-1.9359,-1.9366,-1.9366,-1.9366,-1.9952,-2.1132,-2.019,-1.9924,-2.1395,-2.0249,-1.9781,-2.1016,-1.9666,-1.8758,-1.9441,-1.8758,-1.7849,-1.7849,-1.7719,-1.7367,-1.7126,-1.7361,-1.7009,-1.5569,-1.6284,-1.6773,-1.1885,-1.2368,-1.3259,-1.401,0.0,-1.4358,-1.4298,-1.4298,-1.4298,-1.4298,-1.4298,-1.4298,-1.4298,-1.4322,-1.4727,-1.4914,-1.4926,-1.5312,-1.5597,-1.5701,-1.5707,-1.5885,-1.6218,-1.5147,-1.5217,-1.6336,-1.2965,-1.1259,-1.0902,-1.0073,-0.95,-0.9415,-0.9408,-0.9362,-0.938,-0.9169,-0.8851,-0.8322,-0.8424,-0.8622,-0.9008,-0.9404,-0.9576,-0.965,-1.0626,0.0,0.0,0.0,0.0,0.0,0.0,0.0,0.0,-1.3809,0.0,-1.3975,-1.3628,-1.3761,-1.4328,-1.4558,-1.4892,-1.5628,-1.6077,-1.6231,-1.6061,-1.6086,-1.6407,-1.6894,-1.7091,-1.7377,-1.7776,-1.7943,-1.8029,-1.8043,-1.817,-1.827,-1.8283,-1.8397,-1.849,-1.8497,-1.8497,-1.8537,-1.8691,-1.8571,-1.8611,-1.8871,-1.8925,-1.8985,-1.9125,-1.9279,-1.9366,-1.9366,-1.9366,-1.9952,-2.1247,-2.042,-2.0277,-2.207,-2.0823,-2.0371,-2.2394,-2.0472,-1.8991,-2.0005,-1.91,-1.7972,-1.7972,-1.7726,-1.7485,-1.7485,-1.7485,-1.7361,-1.6644,-1.6767,-1.6773,-1.3394,-1.3301,-1.4342,-1.4612,-1.4437,-1.434,-1.4394,-1.4394,0.0,0.0,0.0,-1.4298,-1.4328,-1.4509,-1.489,-1.5137,-1.5311,-1.5779,-1.6105,-1.6324,-1.6318,-1.653,-1.6736,-1.5873,-1.5749,-1.6137,-1.3342,-1.1827,-1.1714,-1.0405,-0.9793,-0.9723,-0.9696,-0.9781,-1.0056,-0.9934,-0.9723,-0.9335,-0.8863,-0.8887,-0.9503,-1.0595,-1.0911,-1.0418,-1.2352,-1.31,-1.2662,-1.333,-1.361,-1.3646,-1.3562,-1.3689,-1.3871,-1.3749,-1.3791,-1.4017,-1.4036,-1.441,-1.5258,-1.5619,-1.622,-1.7015,-1.7424,-1.7576,-1.7577,-1.7482,-1.7463,-1.7662,-1.7943,-1.8116,-1.8123,-1.8343,-1.8497,-1.8497,-1.8537,-1.8564,-1.8571,-1.8624,-1.8677,-1.8651,-1.8677,-1.8731,-1.8958,-1.8811,-1.8731,-1.8945,-1.9025,-1.9112,-1.9253,-1.9449,-1.9352,-1.9428,-1.9673,-2.0406,-2.1598,-2.0881,-2.0845,-2.3199,-2.1402,-2.0378,-2.207,-2.0931,-1.9679,-2.0465,-1.9216,-1.8317,-1.7972,-1.7726,-1.7485,-1.7485,-1.7485,-1.7485,-1.7479,-1.7009,-1.6301,-1.3827,-1.3877,-1.4395,-1.4829,-1.4962,-1.4795,-1.479,-1.4987,-1.449,-1.4298,-1.4298,-1.4298,-1.454,-1.5004,-1.5087,-1.5336,-1.578,-1.6076,-1.6424,-1.663,-1.663,-1.6849,-1.7173,-1.6961,-1.5695,-1.363,-1.3244,-1.2207,-1.0644,-1.0055,-0.9815,-0.9847,-0.9925,-0.9919,-1.0104,-1.0201,-1.0327,-1.047,-0.9447,-0.8994,-0.9302,-1.0003,-1.0638,-1.124,-1.2661,-1.3588,-1.4011,-1.4184,-1.4147,-1.4165,-1.3927,-1.4285,-1.5091,-1.4759,-1.4953,-1.5805,-1.5873,-1.6033,-1.6132,-1.6354,-1.6603,-1.6817,-1.7274,-1.7595,-1.758,-1.7762,-1.7875,-1.7989,-1.8257,-1.8424,-1.843,-1.8477,-1.8531,-1.8531,-1.8718,-1.8865,-1.8871,-1.9072,-1.9205,-1.9199,-1.9239,-1.9225,-1.9252,-1.9232,-1.9205,-1.9279,-1.9367,-1.974,-2.0523,-2.0019,-1.9414,-1.9543,-2.0287,-2.166,-2.2988,-2.2154,-2.2425,-2.5578,-2.2305,-2.0608,-2.3991,-2.1623,-1.9802,-2.0573,-1.9441,-1.8428,-1.8089,-1.7726,-1.7485,-1.7485,-1.7485,-1.7485,-1.7485,-1.7009,-1.6301,-1.4345,-1.4734,-1.5029,-1.5135,-1.5059,-1.5067,-1.5089,-1.5102,-1.5158,-1.4818,-1.4388,-1.4631,-1.5089,-1.5573,-1.5562,-1.57,-1.6135,-1.6405,-1.6636,-1.6955,-1.6948,-1.673,-1.6518,-1.623,-1.5322,-1.3602,-1.2288,-1.1516,-1.1176,-1.0385,-0.9919,-0.9778,-0.9937,-1.0079,-1.018,-1.0405,-1.063,-1.0838,-1.0105,-1.0105,-1.1065,-1.2095,-1.3052,-1.3914,-1.5002,-1.5648,-1.5811,-1.5896,-1.5792,-1.5596,-1.5785,-1.6009,-1.6132,-1.6045,-1.6187,-1.6511,-1.6524,-1.6524,-1.6524,-1.6849,-1.7013,-1.7135,-1.7462,-1.7896,-1.8557,-1.8339,-1.8283,-1.8297,-1.8551,-1.8724,-1.8731,-1.8871,-1.8971,-1.8965,-1.9092,-1.9158,-1.9172,-1.9272,-1.9366,-1.9366,-1.9366,-1.9366,-1.9366,-1.9366,-1.9366,-1.9482,-1.9938,-2.0838,-2.1964,-2.1174,-2.0364,-2.0401,-2.0902,-2.1752,-2.3175,-2.2237,-2.2869,-2.6017,-2.2523,-2.1623,-2.4445,-2.2418,-2.0486,-2.1137,-1.989,-1.8415,-1.8089,-1.7726,-1.7485,-1.7485,-1.7485,-1.7485,-1.7361,-1.6773,-1.5709,-1.4815,-1.5164,-1.5413,-1.5432,-1.5276,-1.5473,-1.5474,-1.5486,-1.5908,-1.5562,-1.4971,-1.5176,-1.5636,-1.6169,-1.6055,-1.6154,-1.6548,-1.6746,-1.6948,-1.7279,-1.7186,-1.6743,-1.5861,-1.5143,-1.4358,-1.3505,-1.1616,-1.1002,-1.1339,-1.0471,-0.99,-0.9693,-0.9985,-1.016,-1.0164,-1.0513,-1.0785,-1.0968,-1.0681,-1.1232,-1.2657,-1.3932,-1.5108,-1.613,-1.7153,-1.7647,-1.7334,-1.7372,-1.7341,-1.7004,-1.734,-1.7398,-1.6957,-1.699,-1.6959,-1.6868,-1.6842,-1.6842,-1.6948,-1.7225,-1.7436,-1.7574,-1.7789,-1.83,-1.9057,-1.8874,-1.8651,-1.8637,-1.8851,-1.9025,-1.9045,-1.9212,-1.9366,-1.9366,-1.9366,-1.9352,-1.9366,-1.9366,-1.9366,-1.9366,-1.9366,-1.9366,-1.9366,-1.9366,-1.9366,-1.9597,-2.05,-2.1631,-2.2636,-2.1964,-2.1288,-2.1509,-2.1623,-2.1964,-2.2757,-2.2305,-2.3087,-2.6026,-2.2869,-2.2305,-2.4214,-2.2531,-2.0486,-2.1365,-2.0005,-1.8415,-1.796,-1.7726,-1.7485,-1.7485,-1.7485,-1.7485,-1.725,-1.6425,-1.5229,-1.5125,-1.4534,-1.5182,-1.5645,-1.5878,-1.614,-1.6314,-1.6514,-1.6567,-1.6554,-1.6414,-1.606,-1.624,-1.6581,-1.6413,-1.6573,-1.7108,-1.716,-1.7272,-1.749,-1.7576,-1.6919,-1.5749,-1.4089,-1.2919,-1.2356,-1.184,-1.1026,-1.023,-0.9866,-0.9669,-0.9673,-0.9985,-1.016,-1.0201,-1.0517,-1.0785,-1.0972,-1.1135,-1.1636,-1.2844,-1.4006,-1.5187,-1.6474,-1.7664,-1.8144,-1.7971,-1.8212,-1.8064,-1.7584,-1.7597,-1.7527,-1.7469,-1.7028,-1.6874,-1.7173,-1.7179,-1.7272,-1.7496,-1.7829,-1.7862,-1.7702,-1.842,-1.8756,-1.878,-1.9078,-1.9158,-1.9112,-1.926,-1.9299,-1.9325,-1.9352,-1.9366,-1.9366,-1.9366,-1.9366,-1.9366,-1.9366,-1.9366,-1.9366,-1.9366,-1.9366,-1.9366,-1.9366,-1.9366,-1.9366,-2.0608,-2.1744,-2.241,-2.2078,-2.1623,-2.241,-2.2749,-2.2757,-2.2982,-2.2982,-2.3768,-2.5688,-2.3424,-2.2636,-2.3432,-2.2862,-2.1045,-2.0458,-1.9441,-1.8305,-1.7719,-1.7485,-1.7485,-1.7485,-1.7485,-1.7367,-1.6773,-1.6065,-1.5105,-1.3938,-1.4261,-1.5459,-1.6106,-1.6362,-1.6485,-1.6607,-1.6714,-1.6894,-1.6852,-1.6757,-1.6832,-1.7015,-1.7208,-1.6925,-1.7062,-1.7378,-1.7483,-1.7483,-1.7589,-1.7629,-1.6649,-1.477,-1.2617,-1.146,-1.1163,-1.0976,-1.057,-0.9985,-0.9709,-0.9624,-0.9665,-0.9985,-1.016,-1.0197,-1.0623,-1.0944,-1.1118,-1.1983,-1.275,-1.3395,-1.4564,-1.6155,-1.8052,-1.8525,-1.8648,-1.8525,-1.8648,-1.8397,-1.7894,-1.8123,-1.8176,-1.7616,-1.7492,-1.7449,-1.751,-1.8003,-1.88,-1.9814,-1.9777,-1.9244,-1.8229,-1.9377,-2.0327,-2.1031,-2.1025,-2.1004,-2.1181,-2.0207,-1.9366,-1.9482,-1.9366,-1.9366,-1.9366,-1.9366,-1.9482,-1.9366,-1.9366,-1.9366,-1.9366,-1.9366,-1.9366,-1.9366,-1.9366,-1.9366,-1.9707,-2.0952,-2.2078,-2.2078,-2.2078,-2.2191,-2.1964,-2.1964,-2.2305,-2.2757,-2.2982,-2.3768,-2.4445,-2.2523,-2.106,-2.2749,-2.1502,-1.9903,-2.0113,-1.8984,-1.8071,-1.7602,-1.7485,-1.7485,-1.7485,-1.7485,-1.725,-1.6661,-1.5575,-1.4371,-1.2965,-1.4046,-1.5779,-1.6634,-1.6847,-1.6939,-1.6947,-1.6974,-1.7174,-1.7145,-1.7048,-1.7377,-1.7586,-1.7556,-1.741,-1.7384,-1.7582,-1.7589,-1.7589,-1.7595,-1.7642,-1.6342,-1.4014,-1.1711,-1.0539,-1.0343,-1.0172,-0.9989,-0.9819,-0.9697,-0.9648,-0.9738,-1.001,-1.0188,-1.0282,-1.0733,-1.1053,-1.1335,-1.2682,-1.3697,-1.4346,-1.5445,-1.6991,-1.8648,-1.8997,-1.8997,-1.8874,-1.8925,-1.8679,-1.8122,-1.8426,-1.838,-1.7751,-1.8064,-1.8376,-1.8675,-1.9552,-2.0429,-2.1626,-2.1306,-2.0585,-1.9425,-2.0309,-2.1706,-2.3045,-2.3002,-2.2694,-2.2751,-2.1402,-2.05,-2.0385,-2.0385,-2.0385,-2.0385,-2.0378,-2.0385,-2.0493,-2.0162,-1.9931,-1.9938,-1.9591,-1.9366,-1.9366,-1.9366,-1.9366,-1.9591,-2.0838,-2.1964,-2.1402,-2.1631,-2.1623,-2.1288,-2.1174,-2.1744,-2.2757,-2.2531,-2.3199,-2.3656,-2.2078,-2.0838,-2.241,-2.0702,-1.9448,-2.0113,-1.8874,-1.796,-1.7602,-1.7485,-1.7485,-1.7485,-1.7485,-1.725,-1.6301,-1.5084,-1.3526,-1.2625,-1.3259,-1.5974,-1.716,-1.7147,-1.7423,-1.7528,-1.7482,-1.7535,-1.7555,-1.7535,-1.7569,-1.7575,-1.766,-1.7575,-1.7589,-1.7589,-1.7589,-1.7589,-1.7602,-1.7662,-1.6353,-1.4014,-1.1465,-1.0229,-1.0168,-1.0006,-0.9827,-0.9657,-0.9636,-0.9713,-0.9872,-1.0063,-1.0249,-1.0436,-1.0789,-1.1053,-1.1335,-1.2691,-1.406,-1.5424,-1.6626,-1.7455,-1.7812,-1.8771,-1.9243,-1.8971,-1.8863,-1.8711,-1.8337,-1.8216,-1.811,-1.8029,-1.8731,-1.974,-2.1144,-2.1679,-2.1985,-2.2108,-2.2036,-2.1671,-2.1028,-2.1094,-2.2296,-2.4843,-2.4521,-2.383,-2.3207,-2.3087,-2.2862,-2.2822,-2.2507,-2.2523,-2.2531,-2.2757,-2.2644,-2.2636,-2.1517,-2.1174,-2.0838,-2.0046,-1.9482,-1.9366,-1.9366,-1.9366,-1.9366,-1.9597,-2.0046,-2.0838,-2.0277,-2.0385,-2.0831,-2.1174,-2.1631,-2.2531,-2.2191,-2.2636,-2.3087,-2.2523,-2.1174,-2.1729,-2.1836,-2.0802,-1.989,-1.8765,-1.796,-1.7602,-1.7485,-1.7485,-1.7485,-1.7485,-1.7126,-1.5828,-1.4847,-1.3287,-1.2733,-1.4572,-1.6418,-1.7279,-1.7477,-1.7582,-1.7589,-1.7589,-1.7589,-1.7589,-1.7589,-1.7589,-1.7589,-1.7589,-1.7589,-1.7589,-1.7589,-1.7589,-1.7589,-1.7582,-1.7562,-1.6293,-1.39,-1.1444,-1.0119,-0.9994,-0.9916,-0.9795,-0.9644,-0.9624,-0.9717,-0.9888,-1.0071,-1.0253,-1.0481,-1.0899,-1.1163,-1.1356,-1.2795,-1.3832,-1.4609,-1.6391,-1.7455,-1.7572,-1.8765,-1.9366,-1.9236,-1.9259,-1.8997,-1.8684,-1.8592,-1.8406,-1.8323,-1.9283,-2.0849,-2.2673,-2.3017,-2.353,-2.434,-2.4079,-2.3756,-2.3722,-2.3331,-2.3782,-2.5578,-2.5604,-2.5212,-2.5287,-2.5229,-2.5252,-2.4732,-2.3842,-2.2982,-2.2982,-2.2982,-2.3095,-2.2757,-2.1964,-2.1174,-2.1067,-2.0155,-1.9482,-1.9366,-1.9366,-1.9366,-1.9482,-2.0046,-2.027,-2.0162,-2.0162,-2.0385,-2.004,-2.0046,-2.05,-2.1623,-2.1517,-2.1623,-2.207,-2.1729,-2.0486,-2.0256,-2.0026,-1.9107,-1.91,-1.8188,-1.7843,-1.7485,-1.7485,-1.7485,-1.7485,-1.7485,-1.6532,-1.5348,-1.4133,-1.2453,-1.2625,-1.49,-1.6193,-1.6836,-1.7047,-1.7477,-1.7364,-1.7153,-1.747,-1.7589,-1.7569,-1.7488,-1.7553,-1.7539,-1.7348,-1.7087,-1.6795,-1.7272,-1.7364,-1.714,-1.7455,-1.6039,-1.3336,-1.1061,-0.9961,-0.9884,-0.9827,-0.9738,-0.964,-0.9624,-0.9746,-0.9977,-1.0107,-1.0318,-1.0514,-1.0908,-1.1244,-1.1583,-1.2903,-1.3904,-1.45,-1.6385,-1.7695,-1.8169,-1.9004,-1.9366,-1.9366,-1.9272,-1.9138,-1.8824,-1.8831,-1.8901,-1.9456,-2.0413,-2.21,-2.4032,-2.458,-2.5085,-2.5898,-2.5417,-2.5142,-2.5482,-2.4702,-2.4872,-2.6332,-2.6208,-2.6279,-2.6499,-2.6444,-2.6252,-2.5872,-2.4763,-2.403,-2.3936,-2.4139,-2.4214,-2.4111,-2.3087,-2.207,-2.1152,-2.0044,-1.9374,-1.9345,-1.9366,-1.9366,-1.9366,-2.0155,-2.0162,-1.9707,-2.0046,-2.0385,-1.9597,-1.9482,-2.0046,-2.0838,-2.0838,-2.0952,-2.1395,-2.1052,-1.9802,-1.9004,-1.8428,-1.8083,-1.8194,-1.7954,-1.7602,-1.7485,-1.7485,-1.7485,-1.7485,-1.6885,-1.6053,-1.4738,-1.3292,-1.1864,-1.2403,-1.3809,-1.5316,-1.5861,-1.6074,-1.7041,-1.6935,-1.6256,-1.7127,-1.7515,-1.7442,-1.7255,-1.7264,-1.7326,-1.6914,-1.613,-1.5515,-1.6633,-1.6733,-1.5988,-1.68,-1.5491,-1.225,-1.0531,-0.9762,-0.9851,-0.9709,-0.9636,-0.9628,-0.9657,-0.9819,-1.0095,-1.0168,-1.042,-1.0703,-1.0976,-1.1289,-1.1661,-1.2785,-1.4099,-1.5564,-1.6715,-1.7904,-1.912,-1.9366,-1.9366,-1.9366,-1.9118,-1.8991,-1.8818,-1.8704,-1.9594,-2.1395,-2.2166,-2.3436,-2.5469,-2.6316,-2.6536,-2.6472,-2.5821,-2.5527,-2.5624,-2.4885,-2.4981,-2.6268,-2.6504,-2.6463,-2.6444,-2.6188,-2.5922,-2.5885,-2.57,-2.5647,-2.6013,-2.5892,-2.6127,-2.6091,-2.5423,-2.3863,-2.1541,-2.0018,-1.9186,-1.9272,-1.9366,-1.9366,-1.9482,-1.9482,-1.9591,-1.9482,-1.9591,-1.9482,-1.9482,-1.9482,-1.9822,-2.0162,-2.0385,-2.0493,-2.0723,-2.004,-1.9243,-1.9004,-1.8538,-1.82,-1.8077,-1.7837,-1.7485,-1.7485,-1.7485,-1.7485,-1.7361,-1.6414,-1.5575,-1.4376,-1.3062,-1.1526,-1.2195,-1.295,-1.4132,-1.4669,-1.4781,-1.5968,-1.6082,-1.57,-1.6853,-1.7277,-1.7109,-1.6988,-1.672,-1.6485,-1.6513,-1.5865,-1.4749,-1.545,-1.5324,-1.4573,-1.492,-1.4089,-1.1875,-1.0318,-0.961,-0.9701,-0.9657,-0.9628,-0.9652,-0.9746,-0.9933,-1.0136,-1.0286,-1.0489,-1.0671,-1.0952,-1.109,-1.1257,-1.1645,-1.3068,-1.5184,-1.5782,-1.7041,-1.9107,-1.9366,-1.9366,-1.9359,-1.9279,-1.9225,-1.9219,-1.9145,-2.021,-2.2227,-2.2752,-2.3928,-2.6064,-2.6509,-2.6591,-2.6527,-2.6105,-2.5793,-2.5761,-2.5279,-2.5554,-2.6333,-2.6068,-2.5891,-2.6105,-2.5793,-2.5463,-2.5252,-2.5408,-2.5637,-2.5922,-2.6325,-2.6426,-2.6062,-2.4817,-2.3051,-2.1227,-2.0406,-1.9941,-1.9503,-1.9366,-1.9366,-1.9366,-1.9366,-1.9366,-1.9366,-1.9366,-1.9366,-1.9366,-1.9482,-1.9482,-1.9707,-1.9815,-1.9931,-2.004,-1.9577,-1.912,-1.8765,-1.8538,-1.8194,-1.796,-1.7608,-1.7485,-1.7485,-1.7485,-1.7485,-1.712,-1.6408,-1.5332,-1.4138,-1.2733,-1.1084,-1.1697,-1.2413,-1.3166,-1.3491,-1.3593,-1.4674,-1.5065,-1.4955,-1.5987,-1.6675,-1.6754,-1.6593,-1.6328,-1.6077,-1.592,-1.485,-1.3518,-1.3657,-1.3179,-1.2496,-1.3472,-1.2798,-1.1075,-1.0103,-0.9624,-0.9644,-0.9693,-0.9721,-0.9734,-0.99,-1.0083,-1.0262,-1.0379,-1.0562,-1.0663,-1.0907,-1.0992,-1.0948,-1.1175,-1.2569,-1.4693,-1.5324,-1.6605,-1.8958,-1.9366,-1.9366,-1.9366,-1.9366,-1.9366,-1.9366,-1.9366,-2.0608,-2.2757,-2.3087,-2.4103,-2.6017,-2.6582,-2.6591,-2.6545,-2.6188,-2.6032,-2.598,-2.5645,-2.5678,-2.6134,-2.5724,-2.5587,-2.5674,-2.5381,-2.5051,-2.4895,-2.4986,-2.5262,-2.5491,-2.5858,-2.5995,-2.5509,-2.3974,-2.2642,-2.1281,-2.0352,-1.9744,-1.9462,-1.9366,-1.9366,-1.9366,-1.9366,-1.9366,-1.9366,-1.9366,-1.9366,-1.9366,-1.9366,-1.9482,-1.9366,-1.9482,-1.9482,-1.9359,-1.9236,-1.8887,-1.8648,-1.8311,-1.7972,-1.7843,-1.7608,-1.7485,-1.7485,-1.7485,-1.7479,-1.6762,-1.6166,-1.4857,-1.3559,-1.1963,-1.0562,-1.0949,-1.2299,-1.2309,-1.2309,-1.2417,-1.3491,-1.3875,-1.3776,-1.4827,-1.571,-1.6354,-1.6269,-1.6157,-1.5973,-1.5284,-1.3883,-1.197,-1.1983,-1.1245,-1.0907,-1.1927,-1.2005,-1.0277,-0.9838,-0.9693,-0.9726,-0.9835,-0.9896,-0.9908,-1.0087,-1.0262,-1.04,-1.0456,-1.0494,-1.0731,-1.094,-1.0892,-1.0898,-1.1069,-1.2538,-1.5066,-1.5324,-1.6599,-1.9223,-1.9366,-1.9366,-1.9366,-1.9366,-1.9366,-1.9366,-1.9597,-2.073,-2.2523,-2.3095,-2.4326,-2.6473,-2.6591,-2.6591,-2.6509,-2.6197,-2.6087,-2.6325,-2.5945,-2.5518,-2.589,-2.5527,-2.5194,-2.5307,-2.4977,-2.4739,-2.4711,-2.473,-2.4785,-2.484,-2.5216,-2.5372,-2.5249,-2.334,-2.2421,-2.1994,-2.0346,-1.8836,-1.9516,-1.9366,-1.9366,-1.9366,-1.9366,-1.9366,-1.9366,-1.9366,-1.9366,-1.9366,-1.9366,-1.9366,-1.9366,-1.9366,-1.9366,-1.9249,-1.9004,-1.8765,-1.8415,-1.8194,-1.7849,-1.7608,-1.7485,-1.7485,-1.7485,-1.7485,-1.7244,-1.6767,-1.5693,-1.4262,-1.2785,-1.1318,-1.0457,-1.0413,-1.1122,-1.1122,-1.1122,-1.1341,-1.2413,-1.2636,-1.2452,-1.3618,-1.4595,-1.5189,-1.5326,-1.5357,-1.5369,-1.5799,-1.4454,-1.241,-1.2425,-1.174,-1.0335,-1.0583,-1.0736,-1.0222,-0.9953,-0.9888,-0.9998,-1.005,-1.0087,-1.0103,-1.0274,-1.0387,-1.0436,-1.0562,-1.0655,-1.0647,-1.0773,-1.0863,-1.1009,-1.1037,-1.2443,-1.4803,-1.5324,-1.6605,-1.9094,-1.9366,-1.9366,-1.9366,-1.9366,-1.9366,-1.9482,-2.0658,-2.1668,-2.2982,-2.376,-2.4889,-2.6245,-2.6573,-2.6573,-2.649,-2.6169,-2.6032,-2.6185,-2.6169,-2.6087,-2.5605,-2.4899,-2.4699,-2.4738,-2.4565,-2.4335,-2.4335,-2.4354,-2.4473,-2.473,-2.495,-2.5106,-2.514,-2.4621,-2.3592,-2.2485,-2.1672,-2.0659,-1.9685,-1.9366,-1.9366,-1.9366,-1.9366,-1.9366,-1.9366,-1.9366,-1.9366,-1.9366,-1.9366,-1.9366,-1.9366,-1.9366,-1.9366,-1.9249,-1.901,-1.8538,-1.8305,-1.7954,-1.7726,-1.7485,-1.7485,-1.7485,-1.7485,-1.7485,-1.7003,-1.6436,-1.497,-1.3588,-1.2466,-1.1219,-1.0622,-1.0309,-1.0692,-1.0692,-1.0692,-1.0802,-1.145,-1.1697,-1.1997,-1.2565,-1.3686,-1.4642,-1.4992,-1.4963,-1.5071,-1.5172,-1.4055,-1.2014,-1.1911,-1.1286,-1.0464,-1.0152,-1.0203,-1.0129,-1.0108,-1.0059,-1.016,-1.0241,-1.0274,-1.0306,-1.0456,-1.0534,-1.0562,-1.0639,-1.0688,-1.07,-1.0696,-1.0896,-1.106,-1.121,-1.2379,-1.5045,-1.5324,-1.686,-1.8829,-1.9366,-1.9366,-1.9366,-1.9366,-1.9597,-2.0169,-2.1096,-2.223,-2.3664,-2.4334,-2.534,-2.6464,-2.6435,-2.6325,-2.6252,-2.594,-2.5729,-2.577,-2.6012,-2.5806,-2.5181,-2.4508,-2.4373,-2.4464,-2.4271,-2.4189,-2.4189,-2.4299,-2.4601,-2.4968,-2.5032,-2.5124,-2.5362,-2.4209,-2.3394,-2.2469,-2.1463,-2.0696,-1.9435,-1.9475,-1.9366,-1.9366,-1.9366,-1.9366,-1.9366,-1.9366,-1.9366,-1.9366,-1.9366,-1.9366,-1.9366,-1.9366,-1.9004,-1.9004,-1.8784,-1.8311,-1.7596,-1.7479,-1.7479,-1.7361,-1.7485,-1.7373,-1.715,-1.6938,-1.6493,-1.5595,-1.4139,-1.3031,-1.2009,-1.1136,-1.0652,-1.0201,-1.0696,-1.0692,-1.0692,-1.0692,-1.0688,-1.1121,-1.1713,-1.1829,-1.287,-1.4248,-1.4634,-1.4504,-1.4634,-1.4115,-1.2817,-1.1585,-1.1207,-1.067,-1.0367,-1.0262,-1.0359,-1.0355,-1.0309,-1.0225,-1.0282,-1.04,-1.0448,-1.0489,-1.0619,-1.0676,-1.0672,-1.0684,-1.0692,-1.0692,-1.0692,-1.0917,-1.1097,-1.1142,-1.2566,-1.4845,-1.5411,-1.6797,-1.8958,-1.9366,-1.9366,-1.9366,-1.9482,-1.9938,-2.1174,-2.1259,-2.2445,-2.4241,-2.4582,-2.53,-2.6118,-2.6068,-2.5894,-2.5839,-2.5546,-2.5307,-2.5365,-2.5321,-2.5117,-2.4776,-2.439,-2.4216,-2.4235,-2.4161,-2.4198,-2.4335,-2.4601,-2.4996,-2.5326,-2.5427,-2.5436,-2.493,-2.3389,-2.2201,-2.2316,-2.0518,-1.9555,-1.9259,-1.9366,-1.9366,-1.9366,-1.9366,-1.9366,-1.9366,-1.9366,-1.9366,-1.9366,-1.9366,-1.9366,-1.9366,-1.9366,-1.8881,-1.8525,-1.8317,-1.7849,-1.6767,-1.6526,-1.7003,-1.7003,-1.6408,-1.6211,-1.6391,-1.6056,-1.5622,-1.4689,-1.3371,-1.2582,-1.1779,-1.118,-1.0555,-0.9989,-1.0366,-1.0582,-1.0692,-1.0692,-1.0688,-1.0703,-1.077,-1.09,-1.18,-1.2644,-1.2951,-1.3006,-1.3011,-1.3518,-1.2924,-1.1298,-1.1397,-1.154,-1.0578,-1.0578,-1.0578,-1.0538,-1.0444,-1.0448,-1.0538,-1.0603,-1.0631,-1.0651,-1.066,-1.0692,-1.0692,-1.0692,-1.0692,-1.0692,-1.072,-1.0858,-1.1106,-1.1167,-1.2725,-1.4902,-1.559,-1.6798,-1.9127,-1.9366,-1.9366,-1.9366,-1.9366,-2.0046,-2.1001,-2.1729,-2.2268,-2.3214,-2.4532,-2.5403,-2.5587,-2.5601,-2.5491,-2.5427,-2.5152,-2.4904,-2.4867,-2.4693,-2.4408,-2.4398,-2.4235,-2.4161,-2.4161,-2.4161,-2.4335,-2.4684,-2.5014,-2.5399,-2.5711,-2.5839,-2.562,-2.4946,-2.4147,-2.3393,-2.2617,-2.1496,-2.0308,-1.9584,-1.9482,-1.9366,-1.9366,-1.9366,-1.9366,-1.9366,-1.9366,-1.9366,-1.9366,-1.9366,-1.9366,-1.9243,-1.9004,-1.8286,-1.7572,-1.7355,-1.7015,-1.5935,-1.5337,-1.5575,-1.5332,-1.4976,-1.5023,-1.5313,-1.4721,-1.4159,-1.338,-1.2687,-1.2012,-1.1338,-1.084,-1.0639,-0.9399,-1.0363,-1.0582,-1.0692,-1.0692,-1.0692,-1.0643,-1.0582,-1.0643,-1.1289,-1.2196,-1.2497,-1.2536,-1.2526,-1.3073,-1.2536,-1.1126,-1.1232,-1.1227,-1.0789,-1.0684,-1.0688,-1.0684,-1.0615,-1.0611,-1.0688,-1.0688,-1.0692,-1.0692,-1.0692,-1.0692,-1.0692,-1.0692,-1.0692,-1.0716,-1.0777,-1.0964,-1.1183,-1.1317,-1.2772,-1.5156,-1.5688,-1.6756,-1.8894,-1.9366,-1.9366,-1.9366,-1.9366,-1.9707,-2.0422,-2.1197,-2.2096,-2.3252,-2.45,-2.5277,-2.5353,-2.5161,-2.5106,-2.5005,-2.4739,-2.4482,-2.4491,-2.4262,-2.4198,-2.4161,-2.4161,-2.428,-2.439,-2.451,-2.4675,-2.5252,-2.5472,-2.583,-2.6142,-2.6252,-2.5802,-2.4922,-2.4149,-2.3189,-2.2258,-2.0931,-2.0148,-1.9591,-1.9482,-1.9366,-1.9366,-1.9366,-1.9366,-1.9366,-1.9366,-1.9366,-1.9366,-1.9366,-1.9366,-1.9127,-1.8525,-1.7461,-1.6626,-1.5924,-1.5456,-1.45,-1.4143,-1.3904,-1.3784,-1.3899,-1.4043,-1.4221,-1.3508,-1.2939,-1.2599,-1.1996,-1.1379,-1.0971,-1.0781,-1.0683,-0.8809,-1.0029,-1.0472,-1.0692,-1.0692,-1.0692,-1.0688,-1.0688,-1.0692,-1.1223,-1.1987,-1.255,-1.2219,-1.2209,-1.2436,-1.1787,-1.1021,-1.0692,-1.0802,-1.0692,-1.0692,-1.0692,-1.0684,-1.068,-1.0672,-1.0692,-1.0692,-1.0692,-1.0692,-1.0692,-1.0692,-1.0692,-1.0692,-1.0692,-1.0733,-1.0875,-1.1155,-1.1339,-1.1507,-1.289,-1.5105,-1.5731,-1.6873,-1.8887,-1.9366,-1.9366,-1.9366,-1.9366,-1.9482,-1.9461,-2.0189,-2.1551,-2.3145,-2.4536,-2.5112,-2.5179,-2.4831,-2.4702,-2.4638,-2.439,-2.4198,-2.4161,-2.4235,-2.4253,-2.4271,-2.4409,-2.4601,-2.4794,-2.4977,-2.5234,-2.5858,-2.6023,-2.6206,-2.6463,-2.6455,-2.5789,-2.4667,-2.3424,-2.2289,-2.1502,-2.05,-1.9707,-1.9482,-1.9366,-1.9366,-1.9366,-1.9366,-1.9366,-1.9366,-1.9379,-1.9379,-1.9372,-1.9366,-1.8894,-1.8672,-1.7837,-1.6767,-1.5488,-1.4655,-1.3899,-1.3186,-1.2946,-1.2826,-1.2946,-1.3071,-1.2987,-1.2725,-1.2164,-1.1811,-1.1802,-1.1577,-1.0967,-1.0788,-1.0711,-1.0721,-0.8143,-0.8475,-1.0029,-1.0692,-1.0692,-1.0692,-1.0692,-1.0692,-1.0692,-1.0798,-1.1017,-1.1126,-1.1131,-1.1126,-1.1017,-1.0911,-1.0802,-1.0692,-1.0692,-1.0692,-1.0692,-1.0692,-1.0692,-1.0692,-1.0696,-1.0692,-1.0704,-1.0716,-1.0708,-1.0692,-1.0724,-1.0704,-1.0692,-1.0692,-1.0757,-1.0879,-1.12,-1.1504,-1.1682,-1.2971,-1.5225,-1.6198,-1.7073,-1.9212,-1.9446,-1.9406,-1.9386,-1.9379,-1.9366,-1.9455,-2.0189,-2.0567,-2.1324,-2.2617,-2.3694,-2.4207,-2.44,-2.4345,-2.4363,-2.4244,-2.4161,-2.4216,-2.4181,-2.439,-2.461,-2.5043,-2.5209,-2.5289,-2.5546,-2.583,-2.594,-2.6243,-2.6454,-2.6364,-2.5688,-2.4667,-2.3432,-2.2418,-2.1517,-2.0952,-2.0046,-1.9366,-1.9366,-1.9366,-1.9366,-1.9366,-1.9366,-1.9366,-1.9366,-1.9392,-1.9419,-1.9392,-1.9366,-1.8698,-1.8126,-1.7002,-1.5855,-1.436,-1.3273,-1.2466,-1.1864,-1.1748,-1.1748,-1.1913,-1.1586,-1.1138,-1.0889,-1.0896,-1.0922,-1.1045,-1.0936,-1.068,-1.07,-1.0721,-1.0721,-0.7252,-0.814,-0.9805,-1.0582,-1.0692,-1.0692,-1.0692,-1.0692,-1.0692,-1.0692,-1.0692,-1.0692,-1.0692,-1.0692,-1.0692,-1.0692,-1.0692,-1.0692,-1.0692,-1.0692,-1.0692,-1.0692,-1.0696,-1.0692,-1.0761,-1.081,-1.0838,-1.0838,-1.0838,-1.0842,-1.0834,-1.0814,-1.0753,-1.0733,-1.0739,-1.1017,-1.1306,-1.1724,-1.1908,-1.3071,-1.5903,-1.6972,-1.8715,-1.9417,-1.9659,-1.9593,-1.9566,-1.9412,-1.9372,-1.9455,-1.9786,-2.0104,-2.0715,-2.165,-2.2888,-2.3331,-2.3881,-2.428,-2.4372,-2.4335,-2.4326,-2.4739,-2.4443,-2.4497,-2.5051,-2.5628,-2.5878,-2.5844,-2.6041,-2.6289,-2.6307,-2.6481,-2.6336,-2.5688,-2.5119,-2.3991,-2.2531,-2.1631,-2.0952,-2.05,-1.9822,-1.9366,-1.9366,-1.9366,-1.9366,-1.9366,-1.9379,-1.9406,-1.9432,-1.9506,-1.9586,-1.9377,-1.926,-1.8239,-1.7247,-1.5888,-1.483,-1.3439,-1.2097,-1.1296,-1.0793,-1.08,-1.0741,-1.0804,-1.0221,-1.0012,-1.0163,-1.051,-1.0455,-1.051,-1.0605,-1.0683,-1.0707,-1.0721,-1.0717,-0.6253,-0.7695,-0.9251,-1.0249,-1.0582,-1.0692,-1.0692,-1.0692,-1.0692,-1.0692,-1.0692,-1.0692,-1.0692,-1.0692,-1.0692,-1.0692,-1.0692,-1.0692,-1.0692,-1.0692,-1.0692,-1.0692,-1.0696,-1.0753,-1.0826,-1.0932,-1.1082,-1.1053,-1.1021,-1.1017,-1.1021,-1.0992,-1.0863,-1.0747,-1.0908,-1.1077,-1.1483,-1.1744,-1.1927,-1.33,-1.5914,-1.8592,-2.0234,-2.0227,-2.0,-1.9887,-1.9867,-1.9626,-1.9506,-1.9466,-1.9488,-1.9665,-2.0413,-2.1662,-2.2328,-2.2629,-2.3687,-2.4491,-2.4702,-2.4675,-2.4757,-2.5179,-2.4733,-2.4954,-2.5417,-2.6036,-2.6461,-2.6212,-2.6334,-2.6545,-2.6518,-2.6582,-2.6026,-2.5128,-2.4556,-2.3656,-2.1964,-2.0952,-2.0385,-1.9931,-1.9482,-1.9386,-1.9406,-1.9526,-1.9553,-1.9626,-1.9646,-1.974,-1.9773,-1.9826,-1.9774,-1.9448,-1.8968,-1.7853,-1.647,-1.4625,-1.3593,-1.2508,-1.1374,-1.0454,-1.0089,-0.9974,-1.0043,-1.0235,-1.0218,-1.0127,-1.0124,-1.0164,-1.0358,-1.0524,-1.0626,-1.0687,-1.0711,-1.0585,-1.0449,-0.4916,-0.6255,-0.8026,-0.9357,-1.0253,-1.0582,-1.0692,-1.0692,-1.0692,-1.0692,-1.0692,-1.0692,-1.0692,-1.0692,-1.0692,-1.0692,-1.0692,-1.0692,-1.0692,-1.0692,-1.0692,-1.0704,-1.0729,-1.0871,-1.0948,-1.1066,-1.1289,-1.1317,-1.1252,-1.1212,-1.1191,-1.1179,-1.1151,-1.1056,-1.1085,-1.1225,-1.1593,-1.1782,-1.1815,-1.3188,-1.5919,-1.8732,-1.9843,-2.0241,-2.0187,-2.0167,-2.012,-1.9887,-1.9713,-1.9686,-1.9486,-1.9347,-1.9539,-2.1226,-2.2009,-2.2683,-2.3835,-2.5243,-2.528,-2.5152,-2.5207,-2.5491,-2.5195,-2.5509,-2.5922,-2.6286,-2.6606,-2.6608,-2.6573,-2.6582,-2.6591,-2.6591,-2.5916,-2.4787,-2.3656,-2.2757,-2.1296,-2.0512,-1.9932,-1.9843,-1.9546,-1.9499,-1.9479,-1.9633,-1.9766,-1.9846,-1.9927,-2.0013,-1.994,-1.9826,-2.0221,-1.9909,-1.8125,-1.6853,-1.5783,-1.3817,-1.2643,-1.1551,-1.076,-0.9852,-0.9856,-0.9869,-0.992,-1.0002,-1.011,-1.0249,-1.0314,-1.0375,-1.0456,-1.0538,-1.0639,-1.0687,-1.0714,-1.0449,-1.0047,-0.3579,-0.5025,-0.7249,-0.8475,-0.914,-1.0029,-1.0476,-1.0472,-1.0476,-1.0582,-1.0692,-1.0692,-1.0692,-1.0692,-1.0692,-1.0692,-1.0692,-1.0692,-1.0692,-1.0696,-1.0704,-1.0749,-1.0846,-1.0944,-1.1029,-1.1265,-1.1415,-1.1529,-1.1476,-1.1423,-1.1382,-1.1366,-1.1289,-1.1277,-1.1249,-1.1455,-1.1561,-1.2034,-1.2664,-1.413,-1.6078,-1.7979,-1.9556,-2.0454,-2.0321,-2.0341,-2.0341,-2.0027,-1.9826,-1.9753,-1.9526,-1.9325,-1.955,-2.0742,-2.1877,-2.279,-2.4064,-2.5174,-2.5614,-2.5518,-2.5647,-2.5867,-2.5754,-2.562,-2.6126,-2.6454,-2.6591,-2.6582,-2.6582,-2.6591,-2.6364,-2.5916,-2.5008,-2.3888,-2.2835,-2.1705,-2.0729,-2.0275,-1.9771,-1.9686,-1.9733,-1.9733,-1.9726,-1.982,-1.998,-2.0087,-2.014,-2.0066,-1.9702,-1.9306,-1.9885,-2.0648,-1.8119,-1.553,-1.4568,-1.3237,-1.2012,-1.1015,-1.0616,-0.9849,-0.9859,-0.9883,-0.9941,-0.9944,-0.9978,-1.0161,-1.0409,-1.0517,-1.0538,-1.0595,-1.066,-1.029,-1.0047,-0.9377,-0.8709,-0.2464,-0.3689,-0.6359,-0.7587,-0.8033,-0.9475,-1.0257,-1.0363,-1.0363,-1.0472,-1.0692,-1.0692,-1.0692,-1.0692,-1.0692,-1.0692,-1.0692,-1.0692,-1.0692,-1.07,-1.0753,-1.0842,-1.096,-1.1045,-1.1252,-1.15,-1.1553,-1.1634,-1.1675,-1.165,-1.1569,-1.1565,-1.1476,-1.1459,-1.1533,-1.1589,-1.165,-1.1872,-1.3184,-1.4494,-1.6056,-1.741,-1.906,-2.0099,-2.0508,-2.0448,-2.0555,-2.0214,-1.994,-1.9746,-1.9526,-1.9352,-1.9557,-2.0558,-2.1798,-2.2871,-2.4216,-2.5248,-2.5801,-2.5977,-2.6068,-2.6233,-2.6235,-2.6009,-2.6463,-2.6591,-2.6591,-2.6591,-2.6591,-2.6473,-2.6053,-2.5308,-2.4286,-2.3205,-2.2,-2.0836,-1.9931,-1.9818,-1.9826,-1.9907,-1.9973,-2.0107,-2.01,-2.0087,-2.018,-2.0314,-2.0245,-2.0259,-1.9595,-1.8925,-1.876,-1.9355,-1.7173,-1.4469,-1.3044,-1.2102,-1.1153,-1.0623,-1.0229,-0.9873,-0.9903,-0.9927,-0.9964,-0.9947,-0.991,-1.0039,-1.0263,-1.0443,-1.0609,-1.0521,-1.0287,-0.963,-0.9108,-0.844,-0.7643,-0.1907,-0.2129,-0.4806,-0.6589,-0.7703,-0.9147,-0.9926,-1.0253,-1.0253,-1.0472,-1.0692,-1.0692,-1.0692,-1.0692,-1.0692,-1.0692,-1.0692,-1.0692,-1.0708,-1.0765,-1.0858,-1.0956,-1.1086,-1.1277,-1.1451,-1.1541,-1.1638,-1.1727,-1.1768,-1.1748,-1.1732,-1.1744,-1.1658,-1.1715,-1.1736,-1.1711,-1.1719,-1.1893,-1.2888,-1.4164,-1.5587,-1.7052,-1.8592,-2.0125,-2.0621,-2.0655,-2.0661,-2.0294,-2.0013,-1.9793,-1.9519,-1.9372,-1.9591,-2.0385,-2.1402,-2.2636,-2.388,-2.4948,-2.5737,-2.6272,-2.649,-2.6545,-2.6527,-2.6354,-2.6573,-2.66,-2.66,-2.6555,-2.6417,-2.5949,-2.5438,-2.4828,-2.3656,-2.269,-2.1605,-2.0984,-2.0251,-1.9945,-1.9953,-2.0087,-2.0207,-2.0321,-2.0209,-2.0073,-2.0372,-2.0504,-2.0471,-2.0484,-1.9236,-1.8426,-1.763,-1.7123,-1.5499,-1.3501,-1.1618,-1.0808,-1.0727,-1.0505,-1.0155,-1.0064,-0.9985,-1.0002,-1.0002,-0.9961,-0.9937,-1.0022,-0.9972,-0.9872,-0.9777,-1.0093,-0.9911,-0.8975,-0.7641,-0.6439,-0.6042,-0.1795,-0.2018,-0.3692,-0.514,-0.6362,-0.7811,-0.8927,-0.9706,-0.9926,-1.0257,-1.0692,-1.0692,-1.0692,-1.0692,-1.0692,-1.0692,-1.0692,-1.0692,-1.0761,-1.085,-1.0948,-1.1094,-1.1265,-1.1419,-1.1553,-1.1654,-1.1748,-1.1776,-1.1772,-1.1776,-1.1776,-1.1776,-1.1776,-1.1772,-1.1772,-1.1776,-1.1651,-1.1639,-1.1993,-1.2879,-1.4216,-1.559,-1.6937,-1.8477,-1.9892,-2.0126,-2.0084,-1.9986,-1.9933,-1.976,-1.9506,-1.9412,-1.9366,-1.9931,-2.0723,-2.1964,-2.3199,-2.4342,-2.5476,-2.6154,-2.6582,-2.6591,-2.6582,-2.6619,-2.6683,-2.6811,-2.6349,-2.6207,-2.5874,-2.5465,-2.4441,-2.3605,-2.2644,-2.1972,-2.1343,-2.086,-2.0463,-2.0127,-2.0094,-2.0234,-2.0381,-2.0514,-2.0289,-1.992,-2.0361,-2.0684,-2.075,-2.0276,-1.8839,-1.7506,-1.6527,-1.5427,-1.3977,-1.2886,-1.1141,-1.0841,-1.0664,-1.0375,-1.0081,-1.0101,-1.0008,-1.0029,-1.0019,-0.9978,-0.9808,-0.9591,-0.9392,-0.9081,-0.8982,-0.9074,-0.8659,-0.8041,-0.6439,-0.4702,-0.4303,-0.1795,-0.1906,-0.2688,-0.3802,-0.5027,-0.6702,-0.7925,-0.8819,-0.9485,-1.0036,-1.0696,-1.0696,-1.0692,-1.0692,-1.0692,-1.0745,-1.0773,-1.0806,-1.0899,-1.1013,-1.1143,-1.1277,-1.1439,-1.1569,-1.1663,-1.176,-1.1776,-1.1776,-1.1776,-1.1776,-1.1776,-1.1776,-1.1776,-1.1776,-1.1776,-1.1776,-1.1647,-1.1394,-1.139,-1.1913,-1.3138,-1.4495,-1.6002,-1.7572,-1.8974,-1.9725,-1.9797,-1.976,-1.9654,-1.9633,-1.9479,-1.9386,-1.9366,-1.9597,-2.0046,-2.1067,-2.2312,-2.3585,-2.4787,-2.5842,-2.6537,-2.6628,-2.6793,-2.6857,-2.6976,-2.6852,-2.6171,-2.5629,-2.5374,-2.4719,-2.3448,-2.2766,-2.2129,-2.1462,-2.1149,-2.0765,-2.0631,-2.0401,-2.0368,-2.0394,-2.0176,-1.9569,-1.9236,-1.872,-1.8644,-1.8945,-1.8788,-1.8268,-1.706,-1.5861,-1.5019,-1.3939,-1.2725,-1.1805,-1.1031,-1.0793,-1.0454,-1.0313,-0.9995,-0.9981,-1.0005,-0.9901,-0.9868,-0.9907,-0.9628,-0.9148,-0.8823,-0.8392,-0.8049,-0.7844,-0.7146,-0.6293,-0.4967,-0.3228,-0.2556,-0.1795,-0.1795,-0.1907,-0.2576,-0.3802,-0.6146,-0.726,-0.7928,-0.904,-0.9934,-1.0598,-1.0696,-1.0692,-1.0696,-1.0712,-1.0806,-1.0907,-1.0952,-1.1057,-1.1212,-1.133,-1.1459,-1.1557,-1.1658,-1.1732,-1.1764,-1.1776,-1.1776,-1.1776,-1.1776,-1.1776,-1.1776,-1.1776,-1.1776,-1.1776,-1.1776,-1.1647,-1.1394,-1.1269,-1.1833,-1.2669,-1.391,-1.5452,-1.6662,-1.7895,-1.8588,-1.9044,-1.9095,-1.9121,-1.9442,-1.9499,-1.9446,-1.9439,-1.9479,-2.0055,-2.1061,-2.2283,-2.365,-2.5136,-2.6113,-2.6313,-2.6417,-2.6542,-2.6587,-2.7005,-2.6681,-2.5634,-2.4836,-2.4464,-2.3518,-2.2632,-2.2161,-2.1572,-2.1314,-2.0987,-2.0895,-2.0762,-2.0474,-2.0394,-1.982,-1.8841,-1.7956,-1.7777,-1.7342,-1.6822,-1.6789,-1.6794,-1.616,-1.5312,-1.4597,-1.3994,-1.2964,-1.1918,-1.1417,-1.091,-1.0565,-1.0246,-1.0105,-1.0039,-1.0032,-0.9764,-0.9643,-0.9585,-0.9724,-0.897,-0.8008,-0.7918,-0.7835,-0.674,-0.5717,-0.5032,-0.4151,-0.2956,-0.2289,-0.1885,-0.1795,-0.1795,-0.1795,-0.2019,-0.2576,-0.4139,-0.5699,-0.7371,-0.893,-1.004,-1.0598,-1.0696,-1.0692,-1.072,-1.083,-1.0919,-1.0984,-1.1118,-1.1232,-1.1286,-1.137,-1.1577,-1.1543,-1.1483,-1.1655,-1.1776,-1.1776,-1.1772,-1.1776,-1.1776,-1.1776,-1.1776,-1.1801,-1.1776,-1.1776,-1.1776,-1.1526,-1.1031,-1.0921,-1.1103,-1.1506,-1.2649,-1.3747,-1.4659,-1.596,-1.7033,-1.7889,-1.8022,-1.8445,-1.9194,-1.9535,-1.9653,-1.9693,-1.9753,-2.0132,-2.0733,-2.1671,-2.2882,-2.3917,-2.4771,-2.5332,-2.5707,-2.5699,-2.5583,-2.5645,-2.5343,-2.4563,-2.3925,-2.3551,-2.253,-2.1852,-2.15,-2.12,-2.1206,-2.1049,-2.1049,-2.0909,-2.0494,-2.0004,-1.9069,-1.8161,-1.6663,-1.5899,-1.5632,-1.5172,-1.5082,-1.5057,-1.5142,-1.4479,-1.4046,-1.3486,-1.2401,-1.1405,-1.1035,-1.0679,-1.0372,-1.0274,-1.0098,-1.0053,-1.0097,-0.9824,-0.9392,-0.8946,-0.8735,-0.7742,-0.6879,-0.6293,-0.5596,-0.4305,-0.3358,-0.3282,-0.3203,-0.2555,-0.2289,-0.2155,-0.1795,-0.1795,-0.1795,-0.1795,-0.2018,-0.3135,-0.4695,-0.6591,-0.826,-0.9489,-1.0284,-1.0544,-1.0683,-1.0846,-1.0964,-1.1122,-1.1155,-1.1261,-1.0817,-1.109,-1.1367,-1.0947,-1.0642,-1.08,-1.0796,-1.1039,-1.116,-1.116,-1.1776,-1.1776,-1.1817,-1.1861,-1.1866,-1.1935,-1.1935,-1.1939,-1.163,-1.1283,-1.108,-1.0952,-1.1309,-1.187,-1.2679,-1.3309,-1.4323,-1.5513,-1.6571,-1.7305,-1.7871,-1.8981,-1.9714,-1.9947,-2.002,-2.0107,-2.0241,-2.0591,-2.1527,-2.249,-2.323,-2.3631,-2.4092,-2.4112,-2.399,-2.3873,-2.3974,-2.3808,-2.3566,-2.3074,-2.2616,-2.2041,-2.1335,-2.1102,-2.1102,-2.1102,-2.0976,-2.0976,-2.0232,-1.9833,-1.8925,-1.8099,-1.6675,-1.5335,-1.4194,-1.3674,-1.3309,-1.34,-1.3487,-1.3596,-1.3709,-1.3318,-1.2848,-1.1897,-1.1187,-1.0837,-1.0515,-1.0341,-1.0108,-0.9981,-1.0036,-1.0103,-0.9663,-0.9218,-0.8541,-0.7758,-0.6886,-0.59,-0.4436,-0.336,-0.2897,-0.2552,-0.246,-0.2371,-0.2146,-0.202,-0.1885,-0.1795,-0.1795,-0.1795,-0.1797,-0.2021,-0.2924,-0.4155,-0.5483,-0.6932,-0.8402,-0.9776,-1.0141,-1.0634,-1.113,-1.1269,-1.1305,-1.1314,-1.1362,-1.0748,-1.0361,-1.0635,-0.969,-0.8955,-0.8596,-0.9076,-0.9562,-1.0072,-1.073,-1.1675,-1.176,-1.1828,-1.1888,-1.1917,-1.1985,-1.2017,-1.2021,-1.1697,-1.1464,-1.1268,-1.1143,-1.1126,-1.1709,-1.2169,-1.2625,-1.3388,-1.46,-1.5792,-1.6669,-1.7807,-1.8888,-1.9883,-2.0126,-2.0254,-2.0261,-2.0267,-2.0706,-2.1767,-2.2213,-2.2407,-2.2719,-2.2434,-2.2448,-2.3238,-2.2737,-2.24,-2.2464,-2.2558,-2.2359,-2.1943,-2.1587,-2.1102,-2.1102,-2.1102,-2.0976,-2.0843,-2.0309,-1.9376,-1.8626,-1.7735,-1.6527,-1.4916,-1.3591,-1.2751,-1.2231,-1.2458,-1.2407,-1.266,-1.2606,-1.2699,-1.2474,-1.2039,-1.1582,-1.0993,-1.0652,-1.0341,-1.0167,-1.0129,-0.9981,-1.0015,-0.9932,-0.9487,-0.8556,-0.7529,-0.6641,-0.6145,-0.5044,-0.3576,-0.2723,-0.2241,-0.202,-0.2049,-0.2086,-0.2125,-0.1612,-0.1346,-0.1795,-0.1797,-0.1818,-0.1827,-0.1831,-0.2196,-0.3111,-0.4214,-0.5681,-0.7309,-0.9141,-0.9276,-0.9993,-1.1532,-1.1458,-1.1322,-1.1047,-1.0771,-1.0229,-0.9926,-0.9352,-0.8601,-0.7617,-0.6634,-0.6989,-0.8255,-0.929,-0.9971,-1.0623,-1.1181,-1.1764,-1.1846,-1.1846,-1.1897,-1.1949,-1.1992,-1.1814,-1.1657,-1.1441,-1.1159,-1.0991,-1.1286,-1.1381,-1.1694,-1.1845,-1.3093,-1.4083,-1.5361,-1.6659,-1.8036,-1.9547,-2.0178,-2.0548,-2.0728,-2.0862,-2.0862,-2.1318,-2.1471,-2.1484,-2.1678,-2.1475,-2.1229,-2.1853,-2.1742,-2.1366,-2.1512,-2.1846,-2.1594,-2.1475,-2.1229,-2.1102,-2.1102,-2.0976,-2.0716,-2.0329,-1.9413,-1.8471,-1.7451,-1.6576,-1.5222,-1.3624,-1.2847,-1.1991,-1.1983,-1.2188,-1.1991,-1.1874,-1.1967,-1.2,-1.1918,-1.1614,-1.1157,-1.0808,-1.0591,-1.0291,-1.0114,-1.0039,-0.9988,-0.9771,-0.9382,-0.855,-0.7518,-0.6272,-0.5286,-0.4553,-0.3696,-0.259,-0.2105,-0.1986,-0.2004,-0.2032,-0.2069,-0.2102,-0.1596,-0.1344,-0.1812,-0.1817,-0.1845,-0.1858,-0.1862,-0.1878,-0.2348,-0.3156,-0.441,-0.558,-0.6203,-0.7423,-0.8743,-0.9593,-0.9717,-0.9676,-0.9683,-0.9137,-0.8581,-0.7986,-0.7913,-0.7197,-0.5955,-0.5103,-0.5632,-0.7024,-0.8054,-0.8483,-0.9397,-1.0458,-1.1038,-1.1896,-1.1768,-1.1686,-1.1755,-1.1831,-1.1827,-1.1652,-1.1516,-1.1286,-1.1062,-1.0706,-1.0649,-1.0694,-1.0717,-1.1508,-1.2676,-1.4226,-1.5864,-1.7655,-1.9449,-2.0473,-2.0855,-2.1015,-2.1089,-2.1069,-2.1069,-2.1195,-2.1202,-2.1209,-2.1102,-2.1102,-2.1102,-2.1089,-2.1209,-2.1209,-2.1229,-2.1229,-2.1102,-2.1102,-2.1102,-2.0976,-2.0716,-2.0329,-1.9425,-1.8524,-1.7552,-1.646,-1.5253,-1.392,-1.2992,-1.2337,-1.2004,-1.1979,-1.1996,-1.2048,-1.2081,-1.2125,-1.2033,-1.1868,-1.153,-1.1121,-1.0885,-1.0532,-1.035,-1.0124,-0.9928,-0.9627,-0.9147,-0.8614,-0.7649,-0.6388,-0.4918,-0.3694,-0.2714,-0.2222,-0.2099,-0.21,-0.1983,-0.1999,-0.2016,-0.1919,-0.195,-0.1845,-0.1865,-0.184,-0.1841,-0.187,-0.1885,-0.1893,-0.1894,-0.1907,-0.205,-0.3092,-0.3067,-0.2838,-0.526,-0.6734,-0.7342,-0.7659,-0.7823,-0.7823,-0.7479,-0.7021,-0.5921,-0.6618,-0.6158,-0.494,-0.4218,-0.4844,-0.5638,-0.6436,-0.7473,-0.8253,-0.9068,-1.0171,-1.1667,-1.1279,-1.1196,-1.1691,-1.1721,-1.1709,-1.1563,-1.13,-1.1059,-1.1076,-1.0975,-1.0721,-1.0717,-1.0853,-1.1247,-1.2684,-1.4236,-1.6053,-1.7608,-1.9291,-2.0316,-2.0956,-2.1089,-2.1102,-2.1102,-2.1102,-2.1102,-2.1102,-2.1102,-2.1102,-2.1102,-2.1102,-2.1102,-2.1102,-2.1102,-2.1102,-2.1102,-2.1102,-2.1102,-2.1102,-2.0589,-2.0075,-1.9297,-1.8396,-1.7361,-1.6172,-1.5182,-1.4148,-1.3088,-1.2708,-1.2194,-1.217,-1.215,-1.2134,-1.2235,-1.2308,-1.232,-1.2182,-1.2039,-1.156,-1.1091,-1.0802,-1.055,-1.0184,-0.9948,-0.9794,-0.9395,-0.8638,-0.7601,-0.6528,-0.504,-0.3448,-0.2713,-0.2223,-0.21,-0.1977,-0.1978,-0.1979,-0.1984,-0.2002,-0.1774,-0.18,-0.1961,-0.1988,-0.184,-0.1841,-0.1849,-0.1889,-0.1947,-0.193,-0.1937,-0.1964,-0.2203,-0.2312,-0.2432,-0.4024,-0.5129,-0.5489,-0.6363,-0.663,-0.663,-0.5916,-0.5824,-0.5368,-0.5425,-0.5227,-0.4229,-0.4261,-0.4523,-0.4913,-0.5717,-0.6823,-0.7908,-0.8333,-0.8618,-0.9981,-0.9974,-1.027,-1.1108,-1.1247,-1.1383,-1.1383,-1.1118,-1.0986,-1.1118,-1.0853,-1.0721,-1.0721,-1.0853,-1.0853,-1.1901,-1.2943,-1.4079,-1.5341,-1.7725,-1.9425,-2.0982,-2.1102,-2.1102,-2.1102,-2.1102,-2.1102,-2.1102,-2.1102,-2.1102,-2.1102,-2.1102,-2.1102,-2.1102,-2.1102,-2.0976,-2.0969,-2.0976,-2.0976,-2.0716,-1.9941,-1.917,-1.8139,-1.7232,-1.6073,-1.4907,-1.403,-1.3151,-1.2789,-1.241,-1.2369,-1.2349,-1.2328,-1.2308,-1.2361,-1.2458,-1.2491,-1.2214,-1.2055,-1.1664,-1.1184,-1.0699,-1.0429,-1.0039,-0.951,-0.9227,-0.8567,-0.7801,-0.6537,-0.5287,-0.394,-0.2714,-0.2346,-0.1977,-0.1985,-0.1988,-0.198,-0.1981,-0.199,-0.2001,-0.1904,-0.1924,-0.1953,-0.2112,-0.1264,-0.1727,-0.1855,-0.1889,-0.1928,-0.1917,-0.1928,-0.1953,-0.1956,-0.1962,-0.2093,-0.3079,-0.3692,-0.3809,-0.4671,-0.5046,-0.493,-0.4342,-0.4371,-0.4283,-0.4347,-0.4264,-0.4161,-0.4187,-0.4344,-0.4614,-0.5027,-0.6,-0.7236,-0.7102,-0.7229,-0.844,-0.8704,-0.9238,-1.0041,-1.0445,-1.0986,-1.0989,-1.0853,-1.0853,-1.0986,-1.0853,-1.0721,-1.0721,-1.0721,-1.0721,-1.1244,-1.2293,-1.3447,-1.5125,-1.7781,-1.9717,-2.1002,-2.1102,-2.1102,-2.1102,-2.1102,-2.1102,-2.1102,-2.1102,-2.1102,-2.1102,-2.1109,-2.1116,-1.9789,-1.9661,-1.9509,-1.9515,-1.9807,-1.9941,-1.9042,-1.8267,-1.7496,-1.6592,-1.5944,-1.5038,-1.4128,-1.3308,-1.2869,-1.2841,-1.2637,-1.2625,-1.2609,-1.2609,-1.2592,-1.2592,-1.2674,-1.2588,-1.2447,-1.1822,-1.146,-1.0976,-1.0339,-0.9734,-0.8934,-0.8547,-0.829,-0.7638,-0.6754,-0.5168,-0.3821,-0.2838,-0.1977,-0.199,-0.2001,-0.2008,-0.2007,-0.2004,-0.2013,-0.2029,-0.2032,-0.2037,-0.2059,-0.2082,-0.2111,-0.0575,-0.1734,-0.1865,-0.1879,-0.1885,-0.1886,-0.1904,-0.193,-0.1937,-0.1953,-0.1973,-0.2344,-0.2221,-0.2221,-0.2226,-0.235,-0.261,-0.3019,-0.3163,-0.3584,-0.4035,-0.4068,-0.4234,-0.4271,-0.4278,-0.4283,-0.4561,-0.5232,-0.6042,-0.5638,-0.5769,-0.7102,-0.7636,-0.8169,-0.8704,-0.9374,-1.0319,-1.0721,-1.0721,-1.0721,-1.0721,-1.0721,-1.0721,-1.0721,-1.0721,-1.0721,-1.1244,-1.2033,-1.321,-1.5438,-1.7933,-1.9889,-2.0755,-2.0843,-2.1102,-2.1102,-2.1102,-2.1102,-2.1102,-2.1102,-2.1102,-2.1109,-2.1116,-2.0469,-1.9158,-1.8209,-1.7936,-1.7959,-1.8378,-1.8396,-1.7496,-1.6592,-1.5944,-1.5298,-1.4782,-1.4263,-1.3481,-1.2828,-1.2828,-1.2824,-1.282,-1.2808,-1.2812,-1.282,-1.2824,-1.2832,-1.2644,-1.269,-1.2314,-1.1479,-1.0955,-1.0239,-0.9643,-0.8808,-0.8125,-0.7516,-0.7155,-0.6156,-0.5163,-0.3699,-0.2478,-0.2248,-0.2011,-0.2019,-0.2029,-0.2035,-0.2042,-0.2044,-0.2055,-0.2061,-0.2054,-0.2052,-0.2079,-0.2101,-0.2119,-0.1158,-0.1874,-0.1832,-0.184,-0.1881,-0.1885,-0.1903,-0.1932,-0.1956,-0.1972,-0.1975,-0.1976,-0.1976,-0.1977,-0.2001,-0.2136,-0.2267,-0.2424,-0.2849,-0.3278,-0.3686,-0.4114,-0.4277,-0.4294,-0.4304,-0.4307,-0.4307,-0.4574,-0.4973,-0.4301,-0.43,-0.577,-0.5235,-0.6708,-0.9661,-1.006,-0.9646,-1.0316,-1.0721,-1.0721,-1.0721,-1.0721,-1.0721,-1.0721,-1.0721,-1.0721,-1.0982,-1.1247,-1.1735,-1.3818,-1.7254,-1.9237,-1.9992,-2.0195,-2.0716,-2.0843,-2.0843,-2.1102,-2.1102,-2.0843,-2.0716,-2.0862,-2.0628,-2.0291,-1.8682,-1.6647,-1.6394,-1.5918,-1.6328,-1.6974,-1.6333,-1.5559,-1.4912,-1.452,-1.4132,-1.3613,-1.2964,-1.2832,-1.2832,-1.2832,-1.2828,-1.2824,-1.2828,-1.2828,-1.2828,-1.2668,-1.2437,-1.235,-1.2009,-1.1296,-1.0228,-0.9535,-0.8729,-0.8407,-0.7861,-0.6535,-0.5927,-0.4805,-0.3952,-0.3115,-0.2391,-0.2164,-0.2048,-0.2053,-0.2055,-0.2059,-0.2067,-0.2083,-0.2076,-0.2078,-0.2067,-0.2069,-0.2097,-0.2117,-0.2132]}]]